[[{"header":{"parameterUnit":"m.s-1","parameterCategory":1,"la1":30.6,"la2":28.766,"lo1":-90.7593,"lo2":-88.6598,"dy":0.0162,"dx":0.0183,"nx":116,"ny":114,"refTime":"2023-08-11T06:00:00:Z","depth":0,"parameterNumber":2,"parameterNumberName":"U-component_of_WINDS"},"data":[0.0,0.0,0.0,0.0,0.0,0.0,0.0,0.0,0.0,0.0,0.0,0.0,0.0,0.0,0.0,0.0,0.0,0.0,0.0,0.0,0.0,0.0,0.0,0.0,0.0,0.0,0.0,0.0,0.0,0.0,0.0,0.0,0.0,0.0,0.0,0.0,0.0,0.0,0.0,0.0,0.0,0.0,0.0,0.0,0.0,0.0,0.0,0.0,0.0,0.0,0.0,0.0,0.0,0.0,0.0,0.0,0.0,0.0,0.0,0.0,0.0,0.0,0.0,0.0,0.0,0.0,0.0,0.0,0.0,0.0,0.0,0.0,0.0,0.0,0.0,0.0,0.0,0.0,0.0,0.0,0.0,0.0,0.0,0.0,0.0,0.0,0.0,0.0,0.0,0.0,0.0,0.0,0.0,0.0,0.0,0.0,0.0,0.0,0.0,0.0,0.0,0.0,0.0,0.0,0.0,0.0,0.0,0.0,0.0,0.0,0.0,0.0,0.0,0.0,0.0,0.0,0.0,0.0,0.0,0.0,0.0,0.0,0.0,0.0,0.0,0.0,0.0,0.0,0.0,0.0,0.0,0.0,0.0,0.0,0.0,0.0,0.0,0.0,0.0,0.0,0.0,0.0,0.0,0.0,0.0,0.0,0.0,0.0,0.0,0.0,0.0,0.0,0.0,0.0,0.0,0.0,0.0,0.0,0.0,0.0,0.0,0.0,0.0,0.0,0.0,0.0,0.0,0.0,0.0,0.0,0.0,0.0,0.0,0.0,0.0,0.0,0.0,0.0,0.0,0.0,0.0,0.0,0.0,0.0,0.0,0.0,0.0,0.0,0.0,0.0,0.0,0.0,0.0,0.0,0.0,0.0,0.0,0.0,0.0,0.0,0.0,0.0,0.0,0.0,0.0,0.0,0.0,0.0,0.0,0.0,0.0,0.0,0.0,0.0,0.0,0.0,0.0,0.0,0.0,0.0,0.0,0.0,0.0,0.0,0.0,0.0,0.0,0.0,0.0,0.0,0.0,0.0,0.0,0.0,0.0,0.0,0.0,0.0,0.0,0.0,0.0,0.0,0.0,0.0,0.0,0.0,0.0,0.0,0.0,0.0,0.0,0.0,0.0,0.0,0.0,0.0,0.0,0.0,0.0,0.0,0.0,0.0,0.0,0.0,0.0,0.0,0.0,0.0,0.0,0.0,0.0,0.0,0.0,0.0,0.0,0.0,0.0,0.0,0.0,0.0,0.0,0.0,0.0,0.0,0.0,0.0,0.0,0.0,0.0,0.0,0.0,0.0,0.0,0.0,0.0,0.0,0.0,0.0,0.0,0.0,0.0,0.0,0.0,0.0,0.0,0.0,0.0,0.0,0.0,0.0,0.0,0.0,0.0,0.0,0.0,0.0,0.0,0.0,0.0,0.0,0.0,0.0,0.0,0.0,0.0,0.0,0.0,0.0,0.0,0.0,0.0,0.0,0.0,0.0,0.0,0.0,0.0,0.0,0.0,0.0,0.0,0.0,0.0,0.0,0.0,0.0,0.0,0.0,0.0,0.0,0.0,0.0,0.0,0.0,0.0,0.0,0.0,0.0,0.0,0.0,0.0,0.0,0.0,0.0,0.0,0.0,0.0,0.0,0.0,0.0,0.0,0.0,0.0,0.0,0.0,0.0,0.0,0.0,0.0,0.0,0.0,0.0,0.0,0.0,0.0,0.0,0.0,0.0,0.0,0.0,0.0,0.0,0.0,0.0,0.0,0.0,0.0,0.0,0.0,0.0,0.0,0.0,0.0,0.0,0.0,0.0,0.0,0.0,0.0,0.0,0.0,0.0,0.0,0.0,0.0,0.0,0.0,0.0,0.0,0.0,0.0,0.0,0.0,0.0,0.0,0.0,0.0,0.0,0.0,0.0,0.0,0.0,0.0,0.0,0.0,0.0,0.0,0.0,0.0,0.0,0.0,0.0,0.0,0.0,0.0,0.0,0.0,0.0,0.0,0.0,0.0,0.0,0.0,0.0,0.0,0.0,0.0,0.0,0.0,0.0,0.0,0.0,0.0,0.0,0.0,0.0,0.0,0.0,0.0,0.0,0.0,0.0,0.0,0.0,0.0,0.0,0.0,0.0,0.0,0.0,0.0,0.0,0.0,0.0,0.0,0.0,0.0,0.0,0.0,0.0,0.0,0.0,0.0,0.0,0.0,0.0,0.0,0.0,0.0,0.0,0.0,0.0,0.0,0.0,0.0,0.0,0.0,0.0,0.0,0.0,0.0,0.0,0.0,0.0,0.0,0.0,0.0,0.0,0.0,0.0,0.0,0.0,0.0,0.0,0.0,0.0,0.0,0.0,0.0,0.0,0.0,0.0,0.0,0.0,0.0,0.0,0.0,0.0,0.0,0.0,0.0,0.0,0.0,0.0,0.0,0.0,0.0,0.0,0.0,0.0,0.0,0.0,0.0,0.0,0.0,0.0,0.0,0.0,0.0,0.0,0.0,0.0,0.0,0.0,0.0,0.0,0.0,0.0,0.0,0.0,0.0,0.0,0.0,0.0,0.0,0.0,0.0,0.0,0.0,0.0,0.0,0.0,0.0,0.0,0.0,0.0,0.0,0.0,0.0,0.0,0.0,0.0,0.0,0.0,0.0,0.0,0.0,0.0,0.0,0.0,0.0,0.0,0.0,0.0,0.0,0.0,0.0,0.0,0.0,0.0,0.0,0.0,0.0,0.0,0.0,0.0,0.0,0.0,0.0,0.0,0.0,0.0,0.0,0.0,0.0,0.0,0.0,0.0,0.0,0.0,0.0,0.0,0.0,0.0,0.0,0.0,0.0,0.0,0.0,0.0,0.0,0.0,0.0,0.0,0.0,0.0,0.0,0.0,0.0,0.0,0.0,0.0,0.0,0.0,0.0,0.0,0.0,0.0,0.0,0.0,0.0,0.0,0.0,0.0,0.0,0.0,0.0,0.0,0.0,0.0,0.0,0.0,0.0,0.0,0.0,0.0,0.0,0.0,0.0,0.0,0.0,0.0,0.0,0.0,0.0,0.0,0.0,0.0,0.0,0.0,0.0,0.0,0.0,0.0,0.0,0.0,0.0,0.0,0.0,0.0,0.0,0.0,0.0,0.0,0.0,0.0,0.0,0.0,0.0,0.0,0.0,0.0,0.0,0.0,0.0,0.0,0.0,0.0,0.0,0.0,0.0,0.0,0.0,0.0,0.0,0.0,0.0,0.0,0.0,0.0,0.0,0.0,0.0,0.0,0.0,0.0,0.0,0.0,0.0,0.0,0.0,0.0,0.0,0.0,0.0,0.0,0.0,0.0,0.0,0.0,0.0,0.0,0.0,0.0,0.0,0.0,0.0,0.0,0.0,0.0,0.0,0.0,0.0,0.0,0.0,0.0,0.0,0.0,0.0,0.0,0.0,0.0,0.0,0.0,0.0,0.0,0.0,0.0,0.0,0.0,0.0,0.0,0.0,0.0,0.0,0.0,0.0,0.0,0.0,0.0,0.0,0.0,0.0,0.0,0.0,0.0,0.0,0.0,0.0,0.0,0.0,0.0,0.0,0.0,0.0,0.0,0.0,0.0,0.0,0.0,0.0,0.0,0.0,0.0,0.0,0.0,0.0,0.0,0.0,0.0,0.0,0.0,0.0,0.0,0.0,0.0,0.0,0.0,0.0,0.0,0.0,0.0,0.0,0.0,0.0,0.0,0.0,0.0,0.0,0.0,0.0,0.0,0.0,0.0,0.0,0.0,0.0,0.0,0.0,0.0,0.0,0.0,0.0,0.0,0.0,0.0,0.0,0.0,0.0,0.0,0.0,0.0,0.0,0.0,0.0,0.0,0.0,0.0,0.0,0.0,0.0,0.0,0.0,0.0,0.0,0.0,0.0,0.0,0.0,0.0,0.0,0.0,0.0,0.0,0.0,0.0,0.0,0.0,0.0,0.0,0.0,0.0,0.0,0.0,0.0,0.0,0.0,0.0,0.0,0.0,0.0,0.0,0.0,0.0,0.0,0.0,0.0,0.0,0.0,0.0,0.0,0.0,0.0,0.0,0.0,0.0,0.0,0.0,0.0,0.0,0.0,0.0,0.0,0.0,0.0,0.0,0.0,0.0,0.0,0.0,0.0,0.0,0.0,0.0,0.0,0.0,0.0,0.0,0.0,0.0,0.0,0.0,0.0,0.0,0.0,0.0,0.0,0.0,0.0,0.0,0.0,0.0,0.0,0.0,0.0,0.0,0.0,0.0,0.0,0.0,0.0,0.0,0.0,0.0,0.0,0.0,0.0,0.0,0.0,0.0,0.0,0.0,0.0,0.0,0.0,0.0,0.0,0.0,0.0,0.0,0.0,0.0,0.0,0.0,0.0,0.0,0.0,0.0,0.0,0.0,0.0,0.0,0.0,0.0,0.0,0.0,0.0,0.0,0.0,0.0,0.0,0.0,0.0,0.0,0.0,0.0,0.0,0.0,0.0,0.0,0.0,0.0,0.0,0.0,0.0,0.0,0.0,0.0,0.0,0.0,0.0,0.0,0.0,0.0,0.0,0.0,0.0,0.0,0.0,0.0,0.0,0.0,0.0,0.0,0.0,0.0,0.0,0.0,0.0,0.0,0.0,0.0,0.0,0.0,0.0,0.0,0.0,0.0,0.0,0.0,0.0,0.0,0.0,0.0,0.0,0.0,0.0,0.0,0.0,0.0,0.0,0.0,0.0,0.0,0.0,0.0,0.0,0.0,0.0,0.0,0.0,0.0,0.0,0.0,0.0,0.0,0.0,0.0,0.0,0.0,0.0,0.0,0.0,0.0,0.0,0.0,0.0,0.0,0.0,0.0,0.0,0.0,0.0,0.0,0.0,0.0,0.0,0.0,0.0,0.0,0.0,0.0,0.0,0.0,0.0,0.0,0.0,0.0,0.0,0.0,0.0,0.0,0.0,0.0,0.0,0.0,0.0,0.0,0.0,0.0,0.0,0.0,0.0,0.0,0.0,0.0,0.0,0.0,0.0,0.0,0.0,0.0,0.0,0.0,0.0,0.0,0.0,0.0,0.0,0.0,0.0,0.0,0.0,0.0,0.0,0.0,0.0,0.0,0.0,0.0,0.0,0.0,0.0,0.0,0.0,0.0,0.0,0.0,0.0,0.0,0.0,0.0,0.0,0.0,0.0,0.0,0.0,0.0,0.0,0.0,0.0,0.0,0.0,0.0,0.0,0.0,0.0,0.0,0.0,0.0,0.0,0.0,0.0,0.0,0.0,0.0,0.0,0.0,0.0,0.0,0.0,0.0,0.0,0.0,0.0,0.0,0.0,0.0,0.0,0.0,0.0,0.0,0.0,0.0,0.0,0.0,0.0,0.0,0.0,0.0,0.0,0.0,0.0,0.0,0.0,0.0,0.0,0.0,0.0,0.0,0.0,0.0,0.0,0.0,0.0,0.0,0.0,0.0,0.0,0.0,0.0,0.0,0.0,0.0,0.0,0.0,0.0,0.0,0.0,0.0,0.0,0.0,0.0,0.0,0.0,0.0,0.0,0.0,0.0,0.0,0.0,0.0,0.0,0.0,0.0,0.0,0.0,0.0,0.0,0.0,0.0,0.0,0.0,0.0,0.0,0.0,0.0,0.0,0.0,0.0,0.0,0.0,0.0,0.0,0.0,0.0,0.0,0.0,0.0,0.0,0.0,0.0,0.0,0.0,0.0,0.0,0.0,0.0,0.0,0.0,0.0,0.0,0.0,0.0,0.0,0.0,0.0,0.0,0.0,0.0,0.0,0.0,0.0,0.0,0.0,0.0,0.0,0.0,0.0,0.0,0.0,0.0,0.0,0.0,0.0,0.0,0.0,0.0,0.0,0.0,0.0,0.0,0.0,0.0,0.0,0.0,0.0,0.0,0.0,0.0,0.0,0.0,0.0,0.0,0.0,0.0,0.0,0.0,0.0,0.0,0.0,0.0,0.0,0.0,0.0,0.0,0.0,0.0,0.0,0.0,0.0,0.0,0.0,0.0,0.0,0.0,0.0,0.0,0.0,0.0,0.0,0.0,0.0,0.0,0.0,0.0,0.0,0.0,0.0,0.0,0.0,0.0,0.0,0.0,0.0,0.0,0.0,0.0,0.0,0.0,-0.9336,-0.8394,0.0,0.0,0.0,0.0,0.0,0.0,0.0,0.0,0.0,0.0,0.0,0.0,0.0,0.0,0.0,0.0,0.0,0.0,0.0,0.0,0.0,0.0,0.0,0.0,0.0,0.0,0.0,0.0,0.0,0.0,0.0,0.0,0.0,0.0,0.0,0.0,0.0,0.0,0.0,0.0,0.0,0.0,0.0,0.0,0.0,0.0,0.0,0.0,0.0,0.0,0.0,0.0,0.0,0.0,0.0,0.0,0.0,0.0,0.0,0.0,0.0,0.0,0.0,0.0,0.0,0.0,0.0,0.0,0.0,0.0,0.0,0.0,0.0,0.0,0.0,0.0,0.0,0.0,0.0,0.0,0.0,0.0,0.0,0.0,0.0,0.0,0.0,0.0,0.0,0.0,0.0,0.0,0.0,0.0,0.0,0.0,0.0,0.0,0.0,0.0,0.0,0.0,0.0,0.0,0.0,0.0,0.0,0.0,0.0,0.0,0.0,0.0,0.0,0.0,-1.1129,-1.0344,0.0,0.0,0.0,0.0,0.0,0.0,0.0,0.0,0.0,0.0,0.0,0.0,0.0,0.0,0.0,0.0,0.0,0.0,0.0,0.0,0.0,0.0,0.0,0.0,0.0,0.0,0.0,0.0,0.0,0.0,0.0,0.0,0.0,0.0,0.0,0.0,0.0,0.0,0.0,0.0,0.0,0.0,0.0,0.0,0.0,0.0,0.0,0.0,0.0,0.0,0.0,0.0,0.0,0.0,0.0,0.0,0.0,0.0,0.0,0.0,0.0,0.0,0.0,0.0,0.0,0.0,0.0,0.0,0.0,0.0,0.0,0.0,0.0,0.0,0.0,0.0,0.0,0.0,0.0,0.0,0.0,0.0,0.0,0.0,0.0,0.0,0.0,0.0,0.0,0.0,0.0,0.0,0.0,0.0,0.0,0.0,0.0,0.0,0.0,0.0,0.0,0.0,0.0,0.0,0.0,0.0,0.0,0.0,-1.1789,-1.1417,-1.1429,-1.1647,-1.2284,-1.3071,-1.2582,-1.1798,-1.0758,-0.962,0.0,0.0,0.0,0.0,0.0,0.0,0.0,0.0,0.0,0.0,0.0,0.0,0.0,0.0,0.0,0.0,0.0,0.0,0.0,0.0,0.0,0.0,0.0,0.0,0.0,0.0,0.0,0.0,0.0,0.0,0.0,0.0,0.0,0.0,0.0,0.0,0.0,0.0,0.0,0.0,0.0,0.0,0.0,0.0,0.0,0.0,0.0,0.0,0.0,0.0,0.0,0.0,0.0,0.0,0.0,0.0,0.0,0.0,0.0,0.0,0.0,0.0,0.0,0.0,0.0,0.0,0.0,0.0,0.0,0.0,0.0,0.0,0.0,0.0,0.0,0.0,0.0,0.0,0.0,0.0,0.0,0.0,0.0,0.0,0.0,0.0,0.6296,0.6264,0.0,0.0,0.0,0.0,0.0,0.0,0.0,0.0,0.0,0.0,0.0,0.0,0.0,-1.0514,-1.2365,-1.1815,-1.1531,-1.1467,-1.2893,-1.3257,-1.2936,-1.4273,-1.4937,-1.4937,-1.3786,0.0,-1.1838,-1.069,0.0,0.0,0.0,0.0,0.0,0.0,0.0,0.0,0.0,0.0,0.0,0.0,0.0,0.0,0.0,0.0,0.0,0.0,0.0,0.0,0.0,0.0,0.0,0.0,0.0,0.0,0.0,0.0,0.0,0.0,0.0,0.0,0.0,0.0,0.0,0.0,0.0,0.0,0.0,0.0,0.0,0.0,0.0,0.0,0.0,0.0,0.0,0.0,0.0,0.0,0.0,0.0,0.0,0.0,0.0,0.0,0.0,0.0,0.0,0.0,0.0,0.0,0.0,0.0,0.0,0.0,0.0,0.0,0.0,0.0,0.0,0.0,0.0,0.0,0.0,0.0,0.0,0.0,0.0,0.0,0.0,0.0,0.0,0.0,0.0,0.1599,0.3656,0.6028,0.2108,-0.1535,0.0,0.0,0.0,0.0,0.0,0.0,0.0,0.0,0.0,-1.1179,-1.151,-1.2215,-1.3243,-1.2774,-1.2592,-1.2724,-1.2762,-1.271,-1.2514,-1.3098,-1.3429,-1.3429,-1.2852,-1.1916,-1.0881,-1.0299,-0.9664,-0.8906,0.0,0.0,0.0,0.0,-0.7506,-0.7941,0.0,0.0,0.0,0.0,0.0,0.0,0.0,0.0,0.0,0.0,0.0,0.0,0.0,0.0,0.0,0.0,0.0,0.0,0.0,0.0,0.0,0.0,0.0,0.0,0.0,0.0,0.0,0.0,0.0,0.0,0.0,0.0,0.0,0.0,0.0,0.0,0.0,0.0,0.0,0.0,0.0,0.0,0.0,0.0,0.0,0.0,0.0,0.0,0.0,0.0,0.0,0.0,0.0,0.0,0.0,0.0,0.0,0.0,0.0,0.0,0.0,0.0,0.0,0.0,0.0,0.0,0.0,0.0,0.0,0.0,0.0,0.0,0.0,0.0,0.0,0.0,0.0,-0.1146,-0.0739,0.2665,-0.2054,-0.5818,0.0,0.0,0.0,0.0,0.0,0.0,-1.0096,-1.1538,-1.2203,-1.1934,-1.2451,-1.3026,-1.3696,-1.3214,-1.3115,-1.3392,-1.2334,-1.1945,-1.1945,-1.1945,-1.1945,-1.1848,-1.1556,-1.0877,-0.9985,-0.9891,-0.9473,-0.8906,-0.7909,-0.7577,-0.7706,-0.7668,-0.777,-0.7957,0.0,0.0,0.0,0.0,0.0,0.0,0.0,0.0,0.0,0.0,0.0,0.0,0.0,0.0,0.0,0.0,0.0,0.0,0.0,0.0,0.0,0.0,0.0,0.0,0.0,0.0,0.0,0.0,0.0,0.0,0.0,0.0,0.0,0.0,0.0,0.0,0.0,0.0,0.0,0.0,0.0,0.0,0.0,0.0,0.0,0.0,0.0,0.0,0.0,0.0,0.0,0.0,0.0,0.0,0.0,0.0,0.0,0.0,0.0,0.0,0.0,0.0,0.0,0.0,0.0,0.0,0.0,0.0,0.0,0.0,0.0,0.0,0.0,0.0,0.0,0.0,0.0,0.0,0.0,-0.5818,-0.4489,0.0,0.0,0.0,0.0,-0.9676,-0.941,-0.9828,-1.1185,-1.1398,-1.2178,-1.356,-1.2554,-1.2582,-1.3855,-1.2603,-1.1935,-1.2042,-1.1945,-1.1945,-1.1945,-1.1945,-1.1945,-1.1848,-1.0583,-1.0096,-0.9985,-0.9891,-0.9142,-0.8001,-0.7848,-0.7882,-0.7997,-0.7851,-0.7991,-0.8228,0.0,0.0,0.0,0.0,0.0,0.0,0.0,0.0,0.0,0.0,0.0,0.0,0.0,0.0,0.0,0.0,0.0,0.0,0.0,0.0,0.0,0.0,0.0,0.0,0.0,0.0,0.0,0.0,0.0,0.0,0.0,0.0,0.0,0.0,0.0,0.0,0.0,0.0,0.0,0.0,0.0,0.0,0.0,0.0,0.0,0.0,0.0,0.0,0.0,0.0,0.0,0.0,0.0,0.0,0.0,0.0,0.0,0.0,0.0,0.0,0.0,0.0,0.0,0.0,0.0,0.0,0.0,0.0,0.0,0.0,0.0,0.0,0.0,0.0,0.0,0.0,0.0,0.0,0.0,-0.7411,-0.6601,0.0,-0.7214,-0.7269,-0.7599,-0.8286,-0.9113,-0.9815,-1.0352,-1.1208,-1.2029,-1.2502,-1.2098,-1.2139,-1.2624,-1.1361,-1.0681,-1.0681,-0.9801,-0.941,-0.941,-0.9426,-0.9434,-0.9335,-0.8954,-0.8759,-0.8755,-0.8696,-0.8411,-0.7955,-0.7902,-0.7918,-0.7965,-0.7912,-0.7978,-0.8122,0.0,0.0,0.0,0.0,0.0,0.0,0.0,0.0,0.0,0.0,0.0,0.0,0.0,0.0,0.0,0.0,0.0,0.0,0.0,0.0,0.0,0.0,0.0,0.0,0.0,0.0,0.0,0.0,0.0,0.0,0.0,0.0,0.0,0.0,0.0,0.0,0.0,0.0,0.0,0.0,0.0,0.0,-0.6179,0.0,0.0,0.0,0.0,0.0,0.0,0.0,0.0,0.0,0.0,0.0,0.0,0.0,0.0,0.0,0.0,0.0,0.0,0.0,0.0,0.0,0.0,0.0,0.0,0.0,0.0,0.0,0.0,0.0,0.0,0.0,0.0,0.0,0.0,-0.8512,-0.8574,-0.7843,-0.8074,-0.8033,-0.7517,-0.7537,-0.7726,-0.8243,-0.9295,-1.0097,-1.0482,-1.1381,-1.1945,-1.1945,-1.1458,-1.1268,-1.1268,-0.9998,-0.9312,-0.9312,-0.8439,-0.7952,-0.7952,-0.7969,-0.7466,-0.6648,-0.6653,-0.6656,-0.6656,-0.6656,-0.7169,-0.7889,-0.6956,-0.6651,-0.6656,-0.6656,-0.6605,-0.6719,0.0,0.0,0.0,0.0,0.0,0.0,0.0,0.0,0.0,0.0,0.0,0.0,0.0,0.0,0.0,0.0,0.0,0.0,0.0,0.0,0.0,0.0,0.0,0.0,0.0,0.0,0.0,0.0,0.0,0.0,0.0,0.0,0.0,0.0,0.0,0.0,0.0,0.0,0.0,0.0,0.0,0.0,-0.6109,0.0,0.0,0.0,0.0,0.0,0.0,0.0,0.0,0.0,0.0,0.0,0.0,0.0,0.0,0.0,0.0,0.0,0.0,0.0,0.0,0.0,0.0,0.0,0.0,0.0,0.0,0.0,0.0,0.0,0.0,0.0,0.0,0.0,-0.8203,-0.9566,-0.9846,-0.7816,-0.8875,-0.9279,-0.782,-0.774,-0.8362,-0.9788,-0.9903,-1.0485,-1.175,-1.175,-1.1755,-1.176,-1.0592,-0.9912,-0.992,-0.8645,-0.7952,-0.8048,-0.7969,-0.7979,-0.7872,-0.7985,-0.6556,-0.4117,-0.3915,-0.3915,-0.4016,-0.4016,-0.5343,-0.7299,-0.5033,-0.3915,-0.3613,-0.3613,-0.3698,-0.3833,0.0,0.0,0.0,0.0,0.0,0.0,0.0,0.0,0.0,0.0,0.0,0.0,0.0,0.0,0.0,0.0,0.0,0.0,0.0,0.0,0.0,0.0,0.0,0.0,0.0,0.0,0.0,0.0,0.0,0.0,0.0,0.0,0.0,0.0,0.0,0.0,0.0,0.0,0.0,0.0,0.0,0.0,-0.6238,0.0,0.0,0.0,0.0,0.0,0.0,0.0,0.0,0.0,0.0,0.0,0.0,0.0,0.0,0.0,0.0,0.0,0.0,0.0,0.0,0.0,0.0,0.0,0.0,0.0,0.0,0.0,0.0,0.0,0.0,0.0,-0.8586,-0.8776,-0.9761,-1.044,-1.087,-1.097,-1.0431,-0.9857,-0.9644,-0.8601,-0.8089,-0.8528,-0.8528,-0.8726,-0.9019,-0.9118,-0.9176,-0.9303,-0.882,-0.8575,-0.8788,-0.8287,-0.8037,-0.8034,-0.8041,-0.6946,-0.5127,-0.708,-0.7604,-0.6676,-0.2822,-0.2219,-0.4041,-0.4041,-0.1007,0.292,-0.4131,-0.2111,0.4738,0.4738,0.3469,0.1771,0.0,0.0,0.0,0.0,0.0,0.0,0.0,0.0,0.0,0.0,0.0,0.0,0.0,0.0,0.0,0.0,0.0,0.0,0.0,0.0,0.0,0.0,0.0,0.0,0.0,0.0,0.0,0.0,0.0,0.0,0.0,0.0,0.0,0.0,0.0,0.0,0.0,0.0,0.0,0.0,0.0,0.0,-0.1949,-0.1998,-0.0444,0.1716,0.1632,0.1641,0.1651,0.1651,0.0,0.0,0.0,0.0,0.0,0.0,0.0,0.0,0.0,0.0,0.0,0.0,0.0,0.0,0.0,0.0,0.0,0.0,0.0,0.0,0.0,0.0,0.0,0.0,-0.8603,-0.9021,-1.0337,-1.1025,-1.1405,-1.1477,-1.1095,-1.0496,-0.965,-0.8722,-0.8136,-0.8136,-0.8136,-0.8113,-0.7955,-0.7952,-0.8026,-0.818,-0.82,-0.7635,-0.6476,-0.6381,-0.6353,-0.6287,-0.7464,-0.7185,-0.5611,-0.5008,-0.3455,-0.1107,0.2017,0.1814,-0.0604,-0.0604,0.2113,0.5854,0.0,0.0,0.0,0.0,0.7188,0.5877,0.0,0.0,0.0,0.0,0.0,0.0,0.0,0.0,0.0,0.0,0.0,0.0,0.0,0.0,0.0,0.0,0.0,0.0,0.0,0.0,0.0,0.0,0.0,0.0,0.0,0.0,0.0,0.0,0.0,0.0,0.0,0.0,0.0,0.0,0.0,0.0,0.0,0.0,0.0,0.0,0.0,0.0,0.4793,0.4839,0.4874,0.4922,0.4858,0.4703,0.4488,0.4488,0.0,0.0,0.0,0.0,0.0,0.0,0.0,0.0,0.0,0.0,0.0,0.0,0.0,0.0,0.0,0.0,0.0,0.0,0.0,0.0,0.0,0.0,0.0,0.0,-0.8702,-0.9223,-1.0293,-1.135,-1.1635,-1.0628,-1.126,-1.0993,-0.8999,-0.8481,-0.8296,-0.8299,-0.8299,-0.8241,-0.8009,-0.7708,0.0,0.0,0.0,-0.7162,-0.4592,-0.3842,-0.3518,-0.3619,-0.5993,-0.6695,-0.5942,-0.1144,0.3407,0.7655,0.7847,0.6693,0.4433,0.4423,0.442,0.4722,0.7083,0.6564,0.4742,0.7452,0.8509,0.8411,0.0,0.0,0.0,0.0,0.0,0.0,0.0,0.0,0.0,0.0,0.0,0.0,0.0,0.0,0.0,0.0,0.0,0.0,0.0,0.0,0.0,0.0,0.0,0.0,0.0,0.0,0.0,0.0,0.0,0.0,0.0,0.0,0.0,0.0,0.0,0.0,0.0,0.0,0.0,0.0,0.0,0.0,0.9377,1.0139,1.0408,1.0361,1.0345,0.8983,0.7229,0.7229,0.734,0.7454,0.6955,0.0,0.0,0.0,0.0,0.0,0.0,0.0,0.0,0.0,0.0,0.0,0.0,0.0,0.0,0.0,0.0,0.0,0.0,0.0,0.0,-0.8752,-0.8789,-0.9237,-1.0465,-1.0852,-1.1348,-1.2178,-1.1371,-1.063,-1.0432,-0.9256,-0.8448,-0.8357,-0.8256,-0.82,-0.7968,-0.595,-0.4734,-0.4752,-0.6893,-0.8007,-0.7913,-0.3218,-0.0771,-0.0762,-0.1307,0.0,0.5629,0.6706,0.6469,0.5256,0.7173,0.7753,0.7217,0.7214,0.7266,0.7256,0.7775,0.7672,0.7275,0.8054,0.8245,0.8177,0.0,0.0,0.0,0.0,0.0,0.0,0.0,0.0,0.0,0.0,0.0,0.0,0.0,0.0,0.0,0.0,0.0,0.0,0.0,0.0,0.0,0.0,0.0,0.0,0.0,0.0,0.0,0.0,0.0,0.0,0.0,0.0,0.0,0.0,0.0,0.0,0.0,0.0,0.0,0.0,0.0,0.0,1.14,1.1552,1.1559,1.1574,1.1829,1.1011,0.9749,0.9943,1.0164,1.038,1.0071,0.8922,0.7753,0.0,0.0,0.0,0.0,0.0,0.0,0.0,0.0,0.0,0.0,0.0,0.0,0.0,0.0,-0.0901,-0.3874,0.0,-0.8659,-0.8719,-0.8762,-0.9069,-0.9734,-0.9846,-1.0292,-1.1607,-1.0971,-1.0245,-0.9888,-0.9126,-0.8515,-0.8645,-0.7269,-0.689,-0.7922,-0.6738,-0.4765,-0.2045,-0.3266,-0.4195,-0.4487,0.1456,0.447,0.4436,0.2988,0.3838,0.6703,0.8243,0.804,0.6495,0.7598,0.8047,0.7968,0.7995,0.7962,0.7955,0.7955,0.8106,0.818,0.8245,0.8221,0.8187,0.0,0.0,0.0,0.0,0.0,0.0,0.0,0.0,0.0,0.0,0.0,0.0,0.0,0.0,0.0,0.0,0.0,0.0,0.0,0.0,0.0,0.0,0.0,0.0,0.0,0.0,0.0,0.0,0.0,0.0,0.0,0.0,0.0,0.0,0.0,0.0,0.0,0.0,0.0,0.0,0.0,0.0,1.3175,1.2969,1.2398,1.1875,1.24,1.2363,1.1972,1.2266,1.248,1.2668,1.2189,1.2294,1.2461,1.2475,1.3074,0.0,0.0,0.0,0.0,0.0,0.0,0.0,0.0,0.1137,0.0837,0.0107,-0.0,-0.0,-0.0,-0.3926,-0.7304,-0.762,-0.7948,-0.8011,-0.8011,-0.8011,-0.8456,-0.9399,-0.9865,-0.9777,-0.8954,-0.8194,-0.8131,-0.8828,-0.6724,-0.5692,-0.645,-0.6489,-0.3947,0.1531,0.1757,0.1438,0.0896,0.5611,0.8335,0.8907,0.6505,0.5331,0.5477,0.781,0.8672,0.8411,0.8384,0.8275,0.8126,0.8126,0.8109,0.8082,0.8082,0.8143,0.8225,0.8225,0.8245,0.8292,0.0,0.0,0.0,0.0,0.0,0.0,0.0,0.0,0.0,0.0,0.0,0.0,0.0,0.0,0.0,0.0,0.0,0.0,0.0,0.0,0.0,0.0,0.0,0.0,0.0,0.0,0.0,0.0,0.0,0.0,0.0,0.0,0.0,0.0,0.0,0.0,0.0,0.0,0.0,0.0,0.0,0.0,1.7411,1.7978,1.6654,1.463,1.4857,1.4434,1.3646,1.3669,1.3722,1.3825,1.4136,1.4989,1.5767,1.4572,0.0,1.39,1.197,1.069,0.9895,1.0486,0.9811,0.8458,0.0,0.5401,0.3937,0.0707,-0.0,-0.0,-0.0,-0.0583,-0.1868,-0.4559,-0.492,-0.5042,-0.5042,-0.5042,-0.5031,-0.5232,-0.7467,-0.8984,-0.89,-0.6487,-0.6031,-0.8657,-0.8638,-0.6217,-0.1202,-0.0884,0.177,0.7701,0.7919,0.6614,0.4024,0.4697,0.6277,0.8897,0.8552,0.8418,0.8383,0.8725,0.892,0.8859,0.8723,0.8574,0.8431,0.8431,0.8357,0.8245,0.8245,0.817,0.8065,0.8065,0.8153,0.8292,0.0,0.0,0.0,0.0,0.0,0.0,0.0,0.0,0.0,0.0,0.0,0.0,0.0,0.0,0.0,0.0,0.0,0.0,0.0,0.0,0.0,0.0,0.0,0.0,0.0,0.0,0.0,0.0,0.0,0.0,0.0,0.0,0.0,0.0,0.0,0.0,0.0,0.0,0.0,0.0,0.0,0.0,1.8396,1.8704,1.8249,1.7354,1.7394,1.6581,0.0,0.0,1.6521,1.6348,1.7387,1.7956,1.8237,1.786,1.7717,0.0,1.5189,1.3303,1.194,1.2269,1.1919,1.1134,0.9078,0.854,0.809,0.6526,0.4599,0.3116,0.3097,0.3093,0.2712,0.122,0.1104,0.123,0.1219,0.1096,0.0971,0.0962,-0.0118,-0.3027,-0.836,-0.776,-0.4543,0.1474,0.1671,0.1773,0.258,0.2663,0.3755,0.622,0.7961,0.8326,0.7067,0.7057,0.7733,0.8876,0.8863,0.8853,0.8954,0.8954,0.8899,0.8798,0.8645,0.8905,0.9476,0.9676,1.0133,1.058,0.9876,0.9548,0.9519,0.8431,0.8079,0.8157,0.0,0.0,0.0,0.0,0.0,0.0,0.0,0.0,0.0,0.0,0.0,0.0,0.0,0.0,0.0,0.0,0.0,0.0,0.0,0.0,0.0,0.0,0.0,0.0,0.0,0.0,0.0,0.0,0.0,0.0,0.0,0.0,0.0,0.0,0.0,0.0,0.0,0.0,0.0,0.0,0.0,0.0,2.018,2.0287,2.0199,1.9922,1.9012,1.8081,0.0,0.0,1.8604,1.8676,1.9737,2.0356,2.0626,2.0348,2.016,1.9526,1.7554,1.5642,1.4134,1.3965,1.3912,1.3334,1.1541,1.1599,1.1693,1.0807,0.8594,0.6837,0.6857,0.6859,0.6825,0.6595,0.6618,0.6622,0.6679,0.6518,0.6341,0.6119,0.6172,0.3555,-0.3217,-0.4606,-0.1382,0.7772,0.8881,0.8136,0.5838,0.5714,0.566,0.5701,0.7741,0.8883,0.8876,0.8819,0.8813,0.8853,0.8862,0.8855,0.894,0.894,0.8879,0.8767,0.9076,0.9661,1.0326,1.0668,1.1196,1.1678,1.083,1.0548,1.056,0.9657,0.9086,0.8834,0.0,0.0,0.0,0.0,0.0,0.0,0.0,0.0,0.0,0.0,0.0,0.0,0.0,0.0,0.0,0.0,0.0,0.0,0.0,0.0,0.0,0.0,0.0,0.0,0.0,0.0,0.0,0.0,0.0,0.0,0.0,0.0,0.0,0.0,0.0,0.0,0.0,0.0,0.0,0.0,0.0,0.0,2.4054,2.4483,2.3659,2.2016,1.9342,0.0,0.0,0.0,1.928,2.0647,2.0656,2.1752,0.0,2.1624,2.0439,1.9328,1.8278,1.7316,1.6328,1.5809,1.4944,1.4372,1.4555,1.4701,1.4038,1.1287,1.0551,1.0582,1.0551,1.0571,1.0524,1.05,1.0089,0.9741,1.012,1.0132,0.9859,0.9333,0.931,0.9193,0.8899,0.6165,0.4686,0.504,0.8,0.949,0.8758,0.8746,0.8788,0.8752,0.8863,0.8853,0.894,0.8794,0.8794,0.8937,0.8638,0.8652,0.894,0.894,0.8937,0.893,1.0445,1.0879,1.0711,1.0814,1.0698,1.0281,1.0561,1.0425,1.0259,1.203,1.1893,1.0775,0.0,0.0,0.0,0.0,0.0,0.0,0.0,0.0,0.0,0.0,0.0,0.0,0.0,0.0,0.0,0.0,0.0,0.0,0.0,0.0,0.0,0.0,0.0,0.0,0.0,0.0,0.0,0.0,0.0,0.0,0.0,0.0,0.0,0.0,0.0,0.0,0.0,0.0,0.0,0.0,0.0,0.0,2.6151,2.5574,2.4753,2.3757,0.0,0.0,0.0,0.0,0.0,2.0152,2.1212,2.1649,2.1802,2.1368,2.0966,2.0549,1.9971,1.9706,1.9252,1.8387,1.8624,1.8519,1.6783,1.6569,1.614,1.395,1.3256,1.2729,1.1913,1.1553,1.1166,1.0256,1.0127,1.0226,1.0229,1.0225,0.9947,0.9667,0.9566,0.9551,0.9466,0.8684,0.8122,0.7991,0.8858,0.9408,0.9208,0.9024,0.8893,0.8954,0.895,0.8947,0.894,0.8889,0.8835,0.8784,0.8682,0.8686,0.8788,0.8788,0.8788,0.8889,1.0052,1.1041,1.1792,1.2854,1.3656,1.4173,1.3347,1.3175,1.3211,1.2802,1.3143,1.371,0.0,0.0,0.0,0.0,0.0,0.0,0.0,0.0,0.0,0.0,0.0,0.0,0.0,0.0,0.0,0.0,0.0,0.0,0.0,0.0,0.0,0.0,0.0,0.0,0.0,0.0,0.0,0.0,0.0,0.0,0.0,0.0,0.0,0.0,0.0,0.0,0.0,0.0,0.0,0.0,0.0,0.0,2.7541,2.6794,2.5732,0.0,0.0,0.0,0.0,0.0,0.0,2.0323,2.1196,2.1328,2.126,2.1426,2.1625,2.1641,2.1228,2.0959,2.0539,1.9618,1.983,1.9737,1.8188,1.7933,1.7625,1.6091,1.5387,1.4508,1.3159,1.2636,1.2213,1.1205,1.1265,1.1432,1.1614,1.094,1.0423,1.0495,0.9933,0.9449,0.9242,0.9466,0.9658,0.9525,0.9313,0.9269,0.93,0.9117,0.8991,0.894,0.894,0.894,0.894,0.8828,0.8672,0.8472,0.8577,0.8601,0.8557,0.8604,0.8628,0.8728,0.9975,1.115,1.2279,1.3333,1.4465,1.5325,1.4618,1.446,1.4645,1.4265,1.4859,1.5603,0.0,0.0,0.0,0.0,0.0,0.0,0.0,0.0,0.0,0.0,0.0,0.0,0.0,0.0,0.0,0.0,0.0,0.0,0.0,0.0,0.0,0.0,0.0,0.0,0.0,0.0,0.0,0.0,0.0,0.0,0.0,0.0,0.0,0.0,0.0,0.0,0.0,0.0,0.0,0.0,0.0,0.0,2.8128,2.8104,0.0,0.0,0.0,0.0,0.0,0.0,2.0898,2.1191,2.0742,2.0918,2.1377,2.1777,2.2197,2.2447,2.1943,2.1216,2.033,1.9623,1.8717,1.817,1.8744,1.8891,1.8588,1.7422,1.6751,1.5885,1.4462,1.3995,1.3693,1.3388,1.3492,1.3695,1.3912,1.2447,1.149,1.1888,1.0539,0.9502,0.9196,0.9429,0.9592,0.9585,0.948,0.9306,0.9161,0.9147,0.9079,0.8944,0.893,0.8927,0.8927,0.8625,0.833,0.8055,0.8336,0.8401,0.8275,0.8411,0.8472,0.8573,1.0003,1.1225,1.2154,1.2358,1.3024,1.3806,1.424,1.4347,1.4487,1.6069,1.6693,1.65,0.0,0.0,0.0,0.0,0.0,0.0,0.0,0.0,0.0,0.0,0.0,0.0,0.0,0.0,0.0,0.0,0.0,0.0,0.0,0.0,0.0,0.0,0.0,0.0,0.0,0.0,0.0,0.0,0.0,0.0,0.0,0.0,0.0,0.0,0.0,0.0,0.0,0.0,0.0,0.0,0.0,0.0,2.8684,0.0,0.0,0.0,0.0,0.0,0.0,0.0,2.1357,2.1641,2.1201,2.1582,2.2148,2.1943,2.2402,2.2872,2.2418,2.1915,2.1336,2.0354,1.9626,1.9048,1.8394,1.8444,1.8466,1.7935,1.7347,1.6474,1.4941,1.4741,1.4554,1.3558,1.3994,1.439,1.4595,1.404,1.3723,1.3732,1.3374,1.2978,1.2562,1.2506,1.2502,1.2353,1.0374,0.9195,0.9154,0.9052,0.8977,0.894,0.8828,0.8767,0.8767,0.8472,0.8286,0.8211,0.8289,0.8306,0.8272,0.8306,0.8326,0.8419,0.9601,1.0306,1.0753,1.271,1.3061,1.263,1.4635,1.4977,1.4463,1.5849,1.652,1.6573,0.0,0.0,0.0,0.0,0.0,0.0,0.0,0.0,0.0,0.0,0.0,0.0,0.0,0.0,0.0,0.0,0.0,0.0,0.0,0.0,0.0,0.0,0.0,0.0,0.0,0.0,0.0,0.0,0.0,0.0,0.0,0.0,0.0,0.0,0.0,0.0,0.0,0.0,0.0,0.0,0.0,0.0,0.0,0.0,0.0,0.0,0.0,0.0,0.0,0.0,2.168,2.1846,2.1592,2.1846,2.2227,2.2178,2.249,2.2852,2.2803,2.1863,2.0819,2.0342,1.9201,1.8182,1.7786,1.7883,1.8043,1.7876,1.7368,1.6691,1.5802,1.5925,1.5804,1.4982,1.5515,1.6212,1.6343,1.5693,1.5183,1.5265,1.4578,1.4055,1.3602,1.3537,1.3507,1.3285,1.1854,1.104,1.104,1.0292,1.0096,1.0558,0.9927,0.9488,0.9339,0.8656,0.8238,0.817,0.817,0.817,0.8167,0.8769,0.8769,0.8264,0.9454,1.0293,1.0974,1.2425,1.3301,1.3788,1.5242,1.5518,1.5243,1.5829,1.6266,1.6473,0.0,0.0,0.0,0.0,0.0,0.0,0.0,0.0,0.0,0.0,0.0,0.0,0.0,0.0,0.0,0.0,0.0,0.0,0.0,0.0,0.0,0.0,0.0,0.0,0.0,0.0,0.0,0.0,0.0,0.0,0.0,0.0,0.0,0.0,0.0,0.0,0.0,0.0,0.0,0.0,0.0,0.0,0.0,0.0,0.0,0.0,0.0,0.0,0.0,0.0,2.1694,2.2041,2.1992,2.2012,2.2129,2.249,2.2598,2.2676,2.3047,2.1489,1.9853,2.012,1.8654,1.7213,1.732,1.7585,1.7657,1.7519,1.7001,1.6633,1.6593,1.6867,1.7027,1.6854,1.7508,1.8183,1.8557,1.7325,1.633,1.6664,1.5451,1.4367,1.4007,1.404,1.4061,1.3932,1.3911,1.3696,1.3372,1.2054,1.172,1.2646,1.1489,1.0793,1.0427,0.9338,0.8571,0.8233,0.8233,0.8233,0.8333,0.9509,0.941,0.8333,0.9706,1.0779,1.1653,1.2042,1.3397,1.5343,1.5635,1.5883,1.5985,1.5823,1.5992,1.6179,0.0,0.0,0.0,0.0,0.0,0.0,0.0,0.0,0.0,0.0,-0.4853,-0.484,0.0,0.0,0.0,0.0,0.0,0.0,0.0,0.0,0.0,0.0,0.0,0.0,0.0,0.0,0.0,0.0,0.0,0.0,0.0,0.0,0.0,0.0,0.0,0.0,0.0,0.0,0.0,0.0,0.0,0.0,0.0,0.0,0.0,0.0,0.0,0.0,0.0,0.0,2.0753,2.2861,2.251,2.2646,2.2939,2.3008,2.3027,2.3047,2.3125,2.2041,2.1032,2.1357,2.0372,1.9176,1.8466,1.8294,1.7967,1.6745,1.642,1.6273,1.6025,1.642,1.6927,1.7361,1.7776,1.8323,1.9105,1.8724,1.844,1.8486,1.8146,1.7808,1.7245,1.7239,1.7143,1.6849,1.6823,1.5849,1.348,1.2772,1.2491,1.2294,1.2082,1.1859,1.1609,1.1418,1.0717,0.9608,0.9608,0.9608,0.9706,0.9903,0.9899,0.9706,1.0974,1.1072,1.0485,1.2619,1.3199,1.2818,1.4956,1.5172,1.4424,1.5452,1.5865,1.5899,0.0,0.0,0.0,0.0,0.0,0.0,0.0,0.0,-0.3347,-0.3463,-0.3636,-0.4069,-0.4884,-0.4823,0.0,0.0,0.0,0.0,0.0,0.0,0.0,0.0,0.0,0.0,0.0,0.0,0.4092,0.4154,0.0,0.0,0.0,0.6164,0.7372,0.8745,0.0,0.0,0.0,0.0,0.0,0.0,0.0,0.0,0.0,0.0,0.0,0.0,0.0,0.0,0.0,0.0,2.0086,2.1995,2.1917,2.197,2.2306,2.295,2.3135,2.3135,2.3135,2.2217,2.1347,2.1455,2.0726,1.9743,1.917,1.8651,1.8022,1.7237,1.6512,1.5999,1.5852,1.6313,1.6794,1.7081,1.7508,1.8009,1.8597,1.8544,1.8457,1.8464,1.8464,1.829,1.7849,1.7802,1.7682,1.7382,1.7361,1.6821,1.5434,1.4853,1.4217,1.3176,1.3144,1.3024,1.2909,1.2237,1.1556,1.0974,1.0974,1.0974,1.0974,1.1745,1.1648,1.1072,1.2328,1.2619,1.2134,1.3392,1.3878,1.4076,1.5343,1.5439,1.4949,1.5534,1.5832,1.5832,0.0,0.0,0.0,0.0,0.0,0.0,0.0,-0.347,-0.2175,-0.0776,-0.0791,-0.1643,-0.3395,-0.4432,-0.4434,0.0,0.0,0.0,0.0,0.0,0.0,0.0,0.0,0.0,0.0,0.0,0.0,0.3452,0.3249,0.0,0.0,0.0,0.0,0.0,0.6518,0.7799,0.0,0.0,0.0,0.0,0.0,1.1915,0.0,0.0,0.0,0.0,0.0,0.0,0.0,0.0,1.8531,1.9756,2.0501,2.1157,2.1826,2.2756,2.3231,2.3464,2.3464,2.2989,2.2416,2.2416,2.1671,2.0824,2.0348,1.9333,1.8274,1.783,1.6669,1.5832,1.5832,1.6206,1.656,1.6687,1.7041,1.7475,1.7976,1.7976,1.7956,1.8036,1.7989,1.7822,1.7522,1.7435,1.7301,1.7074,1.6994,1.6961,1.6961,1.6526,1.5745,1.4484,1.4377,1.4268,1.4268,1.3301,1.2624,1.2334,1.2334,1.2334,1.2334,1.3392,1.3295,1.2431,1.3686,1.4166,1.3872,1.4166,1.4854,1.5832,1.5832,1.5832,1.5832,1.5832,1.5832,1.5832,0.0,0.0,0.0,0.0,0.0,0.0,0.0,-0.4405,-0.2145,0.3931,0.4648,0.3756,0.1389,-0.2732,-0.5256,0.0,0.0,0.0,0.0,0.0,0.0,0.0,0.0,0.0,0.0,0.0,0.0,0.5978,0.4057,0.0,0.0,0.0,0.0,0.0,0.0,0.5768,0.6162,0.6211,0.0,0.0,0.0,0.0,0.0,0.0,0.0,0.0,0.0,1.2936,1.3417,0.0,1.5184,1.5878,1.7985,2.0647,2.2882,2.259,2.3574,2.4617,2.4617,2.5294,2.6036,2.6036,2.5147,2.4039,2.2911,2.0917,1.908,1.7963,1.6669,1.5832,1.5832,1.5872,1.6086,1.662,1.6526,1.678,1.7889,1.7802,1.7729,1.8016,1.7796,1.7508,1.7215,1.6947,1.6774,1.6747,1.65,1.6353,1.6353,1.6299,1.6146,1.5681,1.5648,1.5635,1.5635,1.5534,1.4854,1.3686,1.3686,1.3686,1.368,1.3878,1.3872,1.3782,1.5045,1.4949,1.3974,1.5146,1.573,1.5832,1.5832,1.5832,1.5832,1.5832,1.5832,1.5832,0.0,0.0,0.0,0.0,0.0,0.0,0.0,-0.1804,-0.0066,0.4782,0.5413,0.5062,0.4092,0.2378,-0.0068,0.0,0.0,0.0,0.0,0.0,0.0,0.0,0.0,0.0,0.0,0.0,0.3546,0.6293,0.5438,0.0,0.0,0.0,0.0,0.0,0.0,0.383,0.3944,0.5061,0.0,0.0,0.0,0.0,0.0,0.0,0.0,0.0,0.0,0.0,1.1527,1.1967,1.282,1.3956,1.5333,1.7415,1.9748,2.1845,2.2948,2.3628,2.4555,2.5126,2.563,2.6307,2.5909,2.502,2.3928,2.2351,2.0527,1.8717,1.7627,1.6669,1.592,1.5832,1.5905,1.6139,1.6079,1.6233,1.6887,1.6874,1.6974,1.7448,1.7395,1.7341,1.7408,1.7141,1.6827,1.6473,1.6172,1.6005,1.6005,1.6005,1.5952,1.5832,1.5832,1.5832,1.5832,1.5832,1.554,1.5045,1.5045,1.5045,1.5045,1.5045,1.5045,1.5045,1.554,1.5534,1.5045,1.5635,1.5832,1.5832,1.5832,1.5832,1.5832,1.5832,1.5832,1.5832,0.0,0.0,0.0,0.0,0.0,-0.2461,-0.0317,-0.0,0.0933,0.3496,0.4721,0.5403,0.5393,0.5572,0.4132,0.0136,0.0,0.0,0.0,0.0,0.0,0.0,0.0,0.0,0.0,0.0,0.146,0.4426,0.56,0.6198,0.0,0.0,0.381,0.007,0.0,0.0,0.0,0.0,0.0,0.0,0.0,0.0,0.0,0.0,0.0,0.0,0.0,0.0,0.0,0.0,0.0,1.1973,0.0,0.0,0.0,0.0,2.2022,2.2859,2.4661,2.5427,2.6036,2.7209,2.6737,2.587,2.4925,2.337,2.1485,1.928,1.817,1.7318,1.6015,1.5832,1.5832,0.0,0.0,1.5932,1.6233,1.6273,1.646,1.6961,1.6941,1.6967,1.7174,1.6695,1.6066,1.568,1.5042,1.4743,1.4669,1.4663,1.4854,1.5242,1.5242,1.5051,1.4663,1.5051,1.5242,1.5242,1.5635,1.5832,1.5825,1.5439,1.5439,1.5737,1.5432,1.5439,1.5832,1.5832,1.5832,1.5832,1.5832,1.5832,1.5832,1.5832,1.5832,1.5832,0.0,0.0,0.0,0.0,0.0,0.0,0.0,-0.0,-0.0,0.0067,0.3153,0.5393,0.5379,0.5374,0.5496,0.5706,0.0,0.0,0.0,0.0,0.0,0.0,0.0,0.0,0.0,0.0,-0.0,0.007,0.3923,0.6001,0.6321,0.6321,0.4042,-0.0,0.0,0.0,0.0,0.0,0.0,0.0,0.0,0.0,0.0,0.0,0.0,0.0,0.0,0.0,0.0,0.0,0.0,0.0,0.0,0.0,0.0,0.0,2.0976,2.3016,2.5227,2.6898,2.8347,2.9456,2.8533,2.6999,2.6041,2.3856,2.1485,1.928,1.817,1.7318,1.6015,1.5832,1.5832,1.5832,1.5832,0.0,1.6233,1.6273,1.638,1.6673,1.646,1.6286,1.6286,1.498,1.4068,1.3902,1.2833,1.2173,1.196,1.1945,1.2528,1.3878,1.3872,1.3295,1.1945,1.3295,1.3872,1.3974,1.5242,1.5832,1.573,1.4459,1.4657,1.573,1.4459,1.4657,1.5832,1.5832,1.5832,1.5832,1.5832,1.5832,1.5832,1.5832,1.5832,1.5832,0.0,0.0,0.0,0.0,0.0,0.0,0.0,-0.0,-0.0,-0.0,0.3157,0.5403,0.5393,0.538,0.5428,0.5507,0.0,0.0,0.0,0.0,0.0,0.0,0.0,0.0,0.0,0.0,-0.0,-0.0,0.2488,0.456,0.6248,0.4833,0.2654,-0.0,-0.0,-0.0,0.0,0.0,0.0,0.0,0.0,0.0,0.0954,0.0,0.0,0.0,0.0,0.0,0.0,0.0,0.0,0.0,0.0,0.0,0.0,0.0,0.0,1.8521,2.1949,2.3202,2.4255,2.693,2.6406,2.5173,2.4878,2.3168,2.1071,1.8832,1.8014,1.7318,1.6015,1.5832,1.5832,1.5832,1.5832,0.0,1.5952,1.6146,1.6078,1.523,1.4682,1.4084,1.3847,1.3453,1.3015,1.257,1.234,1.2073,1.196,1.1945,1.2042,1.2522,1.2528,1.2334,1.1945,1.2334,1.2528,1.2528,1.2915,1.3108,1.3113,1.2721,1.2721,1.3204,1.3686,1.4166,1.4555,1.5439,1.5832,1.5832,1.5832,1.5832,1.5832,1.5832,1.5832,1.5832,0.0,0.0,0.0,0.0,0.0,0.0,0.0,-0.1447,-0.1004,-0.1004,0.1137,0.2882,0.3284,0.3949,0.464,0.537,0.0,0.0,0.0,0.0,0.0,0.0,0.0,0.0,0.0,0.1592,0.2232,0.2066,0.2473,0.3804,0.5933,0.3209,0.1243,-0.0,-0.0,-0.0,0.0,0.0,0.0,0.0,0.0,0.0,-0.0,0.0,0.0,0.0,0.0,0.0,0.0,0.0,0.0,0.0,0.0,0.0,0.0,0.0,0.9216,1.1944,0.0,1.9219,2.0742,2.3414,2.3547,2.2863,2.2573,2.1689,2.0105,1.7407,1.6904,1.6432,1.4651,1.437,1.437,1.437,1.437,1.437,1.437,1.4601,1.4465,1.3801,1.3503,1.3152,1.2628,1.2219,1.1794,1.1316,1.0902,1.0689,1.0395,1.0386,1.0386,1.0386,1.0872,1.0974,1.0386,1.0974,1.117,1.117,1.1653,1.1945,1.1848,1.1361,1.1463,1.195,1.2818,1.3392,0.0,1.5242,1.5832,1.5832,1.5832,1.5832,1.5832,1.5832,1.5832,1.5832,0.0,0.0,0.0,0.0,0.0,0.0,0.0,0.0,0.0,-0.288,-0.2404,-0.16,-0.0534,0.1474,0.3419,0.5274,0.0,0.0,0.0,0.0,0.0,0.0,0.0,0.0,0.0,0.4084,0.5986,0.5483,0.3724,0.3487,0.4555,0.1466,-0.0071,-0.0219,-0.0219,-0.0219,0.0,0.0,0.0,0.0,0.0,0.0,0.0,0.0,0.0,0.0,0.0,0.0,0.0,0.0,0.0,0.0,0.0,0.0,0.0,0.0,0.0,0.0,0.0,1.499,1.768,1.9301,1.9993,2.0072,1.9469,1.9404,0.0,1.5151,1.5009,1.4652,1.2302,1.194,1.1955,1.1955,1.1955,1.1853,1.1853,1.2058,1.2289,1.2392,1.2905,1.2802,1.1952,1.1074,1.029,1.0058,0.8962,0.8204,0.8048,0.8038,0.8038,0.8038,0.9217,0.9217,0.8038,0.9217,0.9903,0.9899,1.1072,1.1653,1.1556,1.0386,1.0485,1.1653,1.1848,1.2624,1.3872,1.5242,1.5832,1.5832,1.5832,1.5832,1.5832,1.5832,1.5832,1.5832,0.0,0.0,0.0,0.0,0.0,0.0,0.0,0.0,0.0,0.0,-0.464,-0.4436,-0.4175,-0.007,0.3427,0.0,0.0,0.0,0.0,0.0,0.0,0.0,0.0,0.0,0.0,0.3666,0.5738,0.6067,0.5171,0.2164,-0.285,-0.0898,-0.0848,-0.24,-0.2373,-0.2343,0.0,0.0,0.0,0.0,0.0,0.0,0.0,0.0,0.0,0.0,-0.0,-0.0,0.0,0.0,0.0,0.0,0.0,0.0,0.0,0.0,0.3353,0.4171,0.888,0.0,1.2301,1.6229,1.6373,1.568,0.0,0.0,1.4195,1.3354,0.0,1.2431,1.1872,1.2362,1.2916,1.2916,1.2309,1.1908,1.1908,1.2203,1.2516,1.3003,1.1221,0.9297,0.744,0.8353,0.8913,0.8507,0.8404,0.8204,0.8048,0.8038,0.8038,0.8038,0.8333,0.8333,0.8038,0.8333,0.8432,0.8432,0.8821,0.892,0.892,0.8627,0.8627,0.9019,1.1068,1.2042,1.2528,1.4854,1.5832,1.5832,1.5832,1.5832,1.5832,1.5832,1.5832,1.5832,0.0,0.0,0.0,0.0,0.0,0.0,0.0,0.0,0.0,0.0,0.0,0.0,0.0,0.0,0.0,0.0,0.0,0.0,0.0,0.0,0.0,0.0,0.0,0.0,-0.0,0.1905,0.3893,0.5918,0.4016,0.0607,-0.4087,-0.1831,-0.209,-0.4354,-0.4533,-0.46,0.0,0.0,0.0,0.0,-0.092,0.0,0.0,0.0,0.0,0.0,-0.0,-0.0,0.0,-0.0,-0.0,-0.0,0.0,0.0,0.0,0.0,0.1825,0.2132,0.4461,0.5725,0.7096,0.9632,1.0363,1.0936,1.3023,0.0,0.0,0.0,0.0,0.0,1.0096,1.0387,1.0852,1.0852,0.9418,0.823,0.8299,0.8381,0.8744,0.9245,0.9051,0.8037,0.5887,0.7303,0.8243,0.816,0.8157,0.813,0.8045,0.8038,0.8038,0.8038,0.8038,0.8038,0.8038,0.8038,0.8038,0.8038,0.8038,0.8038,0.8038,0.8038,0.8333,0.9019,1.1068,1.2237,1.3006,1.4956,1.5832,1.5832,1.5832,1.5832,1.5832,1.5832,1.5832,1.5832,0.0,0.0,0.0,0.0,0.0,0.0,0.0,0.0,0.0,0.0,0.0,0.0,0.0,0.0,0.0,0.0,0.0,0.0,0.0,0.0,0.0,0.0,0.0,-0.0,-0.0,-0.0,0.1235,0.377,0.1161,-0.1225,-0.3405,-0.3076,-0.4069,-0.6126,-0.6252,-0.6327,0.0,0.0,-0.6295,-0.6662,-0.2636,0.0,0.0,0.0,0.0,0.0,0.0,0.0,0.0,-0.0,-0.0,-0.0,-0.0,0.0,0.0,0.0,0.0,0.0,-0.0,0.127,0.2647,0.2638,0.3991,0.5897,0.8379,0.0,0.0,0.0,0.0,0.0,0.0,0.7848,0.7982,0.7982,0.5445,0.3355,0.3427,0.3436,0.3449,0.3802,0.6717,0.789,0.5659,0.6964,0.8061,0.8238,0.8113,0.8038,0.8038,0.8038,0.8038,0.8038,0.8038,0.8038,0.8038,0.8038,0.8038,0.8038,0.8038,0.8038,0.8038,0.8038,0.8726,1.0096,1.1365,1.2619,1.3974,1.5242,1.5832,1.5832,1.5832,1.5832,1.5832,1.5832,1.5832,1.5832,0.0,0.0,0.0,0.0,0.0,0.0,0.0,0.0,0.0,0.0,0.0,0.0,0.0,0.0,0.0,0.0,0.0,0.0,0.0,0.0,0.0,0.0,-0.0,-0.0,-0.0,-0.0,-0.1212,-0.3768,-0.2676,-0.3777,-0.6924,-0.7807,-0.8036,-0.7651,-0.672,-0.6327,-0.6215,-0.4329,-0.4672,-0.6362,-0.6119,0.0,0.0,0.0,0.0,0.0,0.0,0.0,0.0,-0.0,-0.0,-0.0,-0.0,0.0,0.0,0.0,0.0,0.0,-0.0,0.024,0.0475,0.0496,0.0751,0.1091,0.1545,0.0,0.0,0.0,0.0,0.0,0.0,0.7821,0.8016,0.8016,0.3886,0.0627,0.0648,0.0651,0.0645,0.0732,0.5077,0.7142,0.448,0.6526,0.8002,0.8075,0.8055,0.8038,0.8038,0.8038,0.8038,0.8038,0.8038,0.8038,0.8038,0.8038,0.8038,0.8038,0.8038,0.8038,0.8038,0.8038,0.8726,1.0096,1.1365,1.2619,1.3974,1.5242,1.5832,1.5832,1.5832,1.5832,1.5832,1.5832,1.5832,1.5832,0.0,0.0,0.0,0.0,0.0,0.0,0.0,0.0,0.0,0.0,0.0,0.0,0.0,0.0,0.0,0.0,0.0,0.0,0.0,0.0,0.0,-0.0,-0.0,-0.0,-0.0,-0.1949,-0.3701,-0.5413,-0.4558,-0.5246,-0.7386,-0.8014,-0.778,-0.666,-0.5238,-0.5189,-0.627,-0.5263,-0.2617,0.0705,0.0,0.0,0.0,0.0,0.0,0.0,0.0,0.0,0.0,0.0,-0.0,-0.0,-0.0,0.0,0.0,0.0,0.0,0.0,-0.0,-0.0,-0.0,-0.0,-0.0,-0.0,-0.0,0.0861,0.0,0.0,0.0,0.0,0.5406,0.6857,0.8153,0.8449,0.6421,0.4177,0.2434,0.2121,0.2206,0.2147,0.4318,0.594,0.6182,0.7322,0.7962,0.8041,0.8038,0.8038,0.8038,0.8038,0.8038,0.8038,0.8038,0.8038,0.8038,0.8726,0.9118,0.9118,0.8333,0.8726,1.0096,0.941,1.019,1.2134,0.0,1.3686,1.4949,1.5534,1.5832,1.5832,1.5832,1.5832,1.5832,1.5832,1.5832,1.5832,0.0,0.0,0.0,0.0,0.0,0.0,0.0,0.0,0.0,0.0,0.0,0.0,0.0,0.0,0.0,0.0,0.0,0.0,0.0,0.0,-0.0,-0.0,-0.0,-0.0,-0.0,-0.3576,-0.5416,-0.541,-0.5386,-0.6058,-0.7309,-0.6764,-0.5991,-0.4876,-0.3112,-0.292,-0.3998,-0.4548,-0.0881,0.5211,0.0,0.0,0.0,0.0,0.0,0.0,0.0,0.0,0.0,0.0,0.0,0.0,0.0,0.0,0.0,-0.0,-0.0,0.0236,0.1205,0.1513,0.1341,0.0883,0.0,0.0325,0.1422,0.162,0.1485,0.0,0.0,0.373,0.3681,0.5563,0.7226,0.7648,0.833,0.793,0.541,0.4992,0.4959,0.497,0.4956,0.5761,0.7772,0.7969,0.7959,0.8041,0.8038,0.8038,0.8038,0.8038,0.8038,0.8038,0.8038,0.8137,0.8432,0.9509,0.9998,0.9998,0.9213,0.9998,1.1853,1.0877,1.1745,1.3878,1.3878,1.4657,1.5832,1.5832,1.5832,1.5832,1.5832,1.5832,1.5832,1.5832,1.5832,1.5832,0.0,0.0,0.0,0.0,0.0,0.0,0.0,0.0,0.0,0.0,0.0,0.0,0.0,0.0,0.0,0.0,0.0,0.0,0.0,0.0,-0.0,-0.0,-0.0,-0.0,-0.0,-0.352,-0.543,-0.5396,-0.5372,-0.6297,-0.7894,-0.529,-0.3607,-0.2703,-0.0813,0.1097,0.2773,0.0531,-0.0089,0.0895,0.4952,0.0,0.0,0.0,0.0,0.0,0.0,0.0,0.0,0.0,0.0,0.0,0.0,0.0,-0.0,-0.0,-0.0,0.0864,0.4818,0.5855,0.5364,0.3372,0.1413,0.1195,0.5604,0.6609,0.0,0.3818,0.3696,0.3991,0.3994,0.4119,0.4323,0.4336,0.6672,0.8481,0.819,0.7883,0.7722,0.7689,0.7664,0.7814,0.7985,0.7955,0.8041,0.8038,0.8038,0.8038,0.8038,0.8038,0.8038,0.8038,0.8038,0.8627,0.9801,0.9998,0.9998,0.9998,1.1072,1.1755,1.1945,1.1848,1.2522,1.3878,1.3878,1.4657,1.5832,1.5832,1.5832,1.5832,1.5832,1.5832,1.5832,1.5832,1.5832,1.5832,0.0,0.0,0.0,0.0,0.0,0.0,0.0,0.0,0.0,0.0,0.0,0.0,0.0,0.0,0.0,0.0,0.0,0.0,0.0,0.0,-0.0,-0.0,-0.0,-0.0,-0.0,-0.0269,-0.0335,-0.0334,-0.1464,-0.2354,-0.2895,-0.1673,-0.0457,0.0793,0.3383,0.5024,0.5754,0.4837,0.1844,-0.2193,-0.1871,-0.1055,0.0,0.0,0.0,0.0,0.0,0.0,0.0,0.0,-0.1095,0.0,0.0,0.0,-0.0,-0.0,-0.0,0.0903,0.5146,0.6266,0.6126,0.5321,0.4344,0.0,0.0,0.5924,0.6817,0.5773,0.588,0.6222,0.62,0.6243,0.6247,0.6448,0.7582,0.8422,0.837,0.827,0.8107,0.8059,0.8039,0.8016,0.7959,0.873,0.8924,0.8038,0.8726,0.8924,0.8038,0.8825,0.8821,0.8038,0.9608,1.0288,0.9998,1.1648,1.2425,1.2425,1.2042,1.2721,1.4274,1.3494,1.3878,1.5045,1.5045,1.5343,1.5832,1.5832,1.5832,1.5832,1.5832,1.5832,1.5832,1.5832,1.5832,1.5832,0.0,0.0,0.0,0.0,0.0,0.0,0.0,0.0,0.0,0.0,0.0,0.0,0.0,0.0,0.0,0.0,0.0,0.0,-0.0069,-0.0,-0.0,-0.0,-0.0,-0.0,-0.0,0.1749,0.2686,0.2678,0.1264,0.1078,0.1945,0.2269,0.2993,0.4086,0.6068,0.6642,0.5955,0.5269,0.2069,-0.2773,-0.5843,-0.5192,0.0,0.0,0.0,0.0,0.0,0.0,0.0,0.0,0.0,0.0,0.0,0.0,0.0,0.0,-0.0,0.0732,0.4218,0.5708,0.627,0.6193,0.0,0.0,0.4412,0.5557,0.6843,0.6741,0.7192,0.7513,0.7568,0.7606,0.7697,0.7892,0.8113,0.8208,0.8201,0.8197,0.8358,0.8641,0.8627,0.8825,0.9213,1.0096,1.0194,0.9312,1.0096,1.019,0.9312,1.0096,1.0194,0.9213,1.0974,1.1653,1.1258,1.3,1.407,1.4465,1.359,1.4082,1.5737,1.4854,1.4949,1.5832,1.5832,1.5832,1.5832,1.5832,1.5832,1.5832,1.5832,1.5832,1.5832,1.5832,1.5832,1.5832,0.0,0.0,0.0,0.0,0.0,0.0,0.0,0.0,0.0,0.0,0.0,0.0,0.0,0.0,0.0,0.0,0.0,0.0,-0.0268,-0.0,-0.0,-0.0,-0.0,-0.0,-0.0,0.1755,0.2695,0.2744,0.2135,0.3189,0.5776,0.6141,0.6449,0.6709,0.6756,0.5618,0.3519,0.1254,0.0169,-0.0432,-0.5211,-0.7073,-0.7056,0.0,0.0,0.0,0.0,0.0,0.0,0.0,0.0,0.0,0.0,0.0,0.0,0.0,-0.0,0.0366,0.2248,0.4465,0.6228,0.604,0.0,0.0,0.6437,0.6369,0.64,0.6837,0.7163,0.7414,0.757,0.7716,0.7811,0.7811,0.7936,0.8041,0.8041,0.8038,0.8531,0.9899,0.9998,1.0485,1.175,1.195,1.195,1.1945,1.195,1.195,1.1945,1.195,1.195,1.1945,1.1945,1.2528,1.3872,1.3878,1.4561,1.5832,1.5832,1.5832,1.5832,1.5832,1.5832,1.5832,1.5832,1.5832,1.5832,1.5832,1.5832,1.5832,1.5832,1.5832,1.5832,1.5832,1.5832,1.5832,0.0,0.0,0.0,0.0,0.0,0.0,0.0,0.0,0.0,0.0,0.0,0.0,0.0,0.0,0.0,0.0,0.0,0.0,-0.2674,-0.2143,-0.1341,-0.0067,-0.0,-0.0,-0.0,0.1749,0.3297,0.4573,0.442,0.4754,0.5679,0.5981,0.6211,0.645,0.6834,0.6682,0.5598,-0.1392,-0.4369,-0.4566,-0.6263,-0.6953,-0.6939,0.0,0.0,0.0,0.0,0.0,0.0,0.0,0.0,0.0,0.0,0.0,0.0,-0.0,-0.0,0.0439,0.2474,0.4331,0.5738,0.6146,0.6064,0.6003,0.0,0.6295,0.0,0.6837,0.7,0.7139,0.7394,0.7641,0.7777,0.7678,0.8642,0.941,0.941,1.0194,1.0877,1.1263,1.1365,1.1458,1.1848,1.2716,1.2915,1.1945,1.2813,1.2909,1.1945,1.2813,1.2909,1.1945,1.3692,1.437,1.3878,1.4758,1.5439,1.5832,1.5832,1.5832,1.5832,1.5832,1.5832,1.5832,1.5832,1.5832,1.5832,1.5832,1.5832,1.5832,1.5832,1.5832,1.5832,1.5832,1.5832,1.5832,0.0,0.0,0.0,0.0,0.0,0.0,0.0,0.0,0.0,0.0,0.0,0.0,0.0,0.0,0.0,0.0,0.0,0.0,0.0,-0.3956,-0.3286,-0.2214,-0.0737,-0.0671,-0.2088,0.0335,0.2144,0.3284,0.4697,0.5454,0.554,0.5692,0.5957,0.6294,0.6871,0.6019,0.3959,-0.15,-0.4777,-0.6291,-0.6509,-0.6713,-0.6837,0.0,0.0,0.0,0.0,0.0,0.0,0.0,0.0,0.0,0.0,0.0,0.0,-0.0523,0.1025,0.2308,0.2955,0.4345,0.5742,0.6112,0.6074,0.6017,0.6139,0.6261,0.642,0.6692,0.6844,0.7,0.7238,0.7838,0.8273,0.8247,0.9598,1.0527,1.045,1.1178,1.1874,1.2257,1.2427,1.2677,1.3256,1.4112,1.4364,1.3494,1.4172,1.4268,1.3499,1.4172,1.4268,1.3499,1.4956,1.5439,1.4657,1.5439,1.5772,1.5658,1.5772,1.5765,1.5658,1.5772,1.5832,1.5832,1.5832,1.5832,1.5832,1.5832,1.5832,1.5832,1.5832,1.5832,1.5832,1.5832,1.5832,1.5832,0.0,0.0,0.0,0.0,0.0,0.0,0.0,0.0,0.0,0.0,0.0,0.0,0.0,0.0,0.0,0.0,0.0,0.0,0.0,0.0,-0.5396,-0.541,-0.2079,-0.181,-0.5068,-0.2079,-0.0401,-0.0267,0.3351,0.5119,0.518,0.5003,0.5202,0.5754,0.622,0.4017,-0.0,-0.0,-0.2209,-0.5789,-0.6179,-0.6475,-0.6668,-0.6695,0.0,0.0,0.0,0.0,0.0,0.0,0.0,0.0,0.0,0.0,-0.4938,-0.1108,0.2596,0.5136,0.3711,0.467,0.6009,0.6013,0.6156,0.63,0.6156,0.6412,0.661,0.6534,0.6685,0.6936,0.7176,0.8213,0.919,0.938,1.0679,1.1589,1.1298,1.1626,1.2149,1.3041,1.3407,1.4025,1.5259,1.5591,1.5752,1.5752,1.5752,1.5752,1.5752,1.5772,1.5792,1.5792,1.5792,1.5792,1.5792,1.5765,1.5618,1.5357,1.5625,1.5625,1.5404,1.5698,1.5832,1.5832,1.5832,1.5832,1.5832,1.5832,1.5832,1.5832,1.5832,1.5832,1.5832,1.5832,1.5832,1.5832,0.0,0.0,0.0,0.0,0.0,0.0,0.0,0.0,0.0,0.0,0.0,0.0,0.0,0.0,0.0,0.0,0.0,0.0,0.0,0.0,-0.5372,-0.5386,-0.3282,-0.2477,-0.3286,-0.3894,-0.3556,-0.2139,0.1537,0.3295,0.3248,0.1815,0.1205,0.1348,0.146,0.0958,-0.0,-0.0,-0.0514,-0.1631,-0.4972,-0.6356,-0.6407,-0.6647,-0.6836,0.0,0.0,0.0,0.0,0.0,0.0,0.0,-0.3756,-0.2286,-0.1166,-0.0232,0.274,0.5657,0.5304,0.5719,0.6207,0.6228,0.6237,0.6483,0.7279,0.748,0.7305,0.6535,0.6447,0.6976,0.8098,0.8649,0.927,1.0267,1.1748,1.262,1.2564,1.3532,1.4288,1.4508,1.4643,1.4773,1.5057,1.511,1.515,1.515,1.515,1.515,1.515,1.5364,1.5491,1.5491,1.5491,1.5491,1.5491,1.5264,1.5117,1.5057,1.5117,1.5237,1.5404,1.5698,1.5832,1.5832,1.5832,1.5832,1.5832,1.5832,1.5832,1.5832,1.5832,1.5832,1.5832,1.5832,1.5832,1.5832,0.0,0.0,0.0,0.0,0.0,0.0,0.0,0.0,0.0,0.0,0.0,0.0,0.0,0.0,0.0,0.0,0.0,0.0,0.0,0.0,0.0,-0.5379,-0.45,-0.4025,-0.402,-0.4913,-0.4913,-0.402,-0.2071,-0.0734,0.0067,-0.0825,-0.1742,-0.2583,-0.2551,-0.164,-0.0,-0.0,-0.0,-0.0215,-0.2382,-0.3858,-0.4798,-0.4954,-0.5084,-0.5201,-0.5256,0.0,0.0,0.0,0.0,0.0,0.0,0.0,-0.0,-0.0,0.1452,0.3421,0.5399,0.6002,0.6152,0.6287,0.6338,0.6567,0.7553,0.7711,0.7564,0.7488,0.7704,0.8184,0.895,0.9731,1.0544,1.1064,1.2598,1.3605,1.3126,1.3924,1.4609,1.4811,1.4706,1.4964,1.5891,1.5402,1.5397,1.6433,1.5575,1.5225,1.5739,1.5368,1.519,1.519,1.519,1.519,1.519,1.5037,1.4897,1.475,1.4897,1.5117,1.5404,1.5698,1.5832,1.5832,1.5832,1.5832,1.5832,1.5832,1.5832,1.5832,1.5832,1.5832,1.5832,1.5832,1.5832,1.5832,0.0,0.0,0.0,0.0,0.0,0.0,0.0,0.0,0.0,0.0,0.0,0.0,0.0,0.0,0.0,0.0,0.0,0.0,0.0,0.0,0.0,-0.5833,-0.5737,-0.5673,-0.5638,-0.5476,-0.5413,-0.5376,-0.5386,-0.47,-0.3409,-0.3423,-0.4232,-0.5714,-0.5503,-0.3744,-0.0899,-0.0277,-0.0,-0.0,-0.0,-0.1011,-0.2539,-0.2581,-0.2553,-0.257,-0.2859,-0.4107,-0.5597,-0.588,0.0,0.0,0.0,0.0,-0.1014,-0.0611,-0.053,0.0302,0.396,0.549,0.6118,0.6234,0.6264,0.656,0.774,0.778,0.7955,0.9047,0.9285,0.9431,0.9699,1.085,1.1764,1.176,1.3214,1.4041,1.3313,1.3791,1.4309,1.4558,1.455,1.5223,1.6839,1.6004,1.6097,1.7892,1.6446,1.5753,1.6684,1.5891,1.5492,1.5492,1.5321,1.5233,1.5233,1.4925,1.4689,1.4449,1.4743,1.51,1.5518,1.5817,1.5913,1.5825,1.5772,1.5752,1.5752,1.5752,1.5752,1.5758,1.5812,1.5832,1.5832,1.5832,1.5832,1.5832,0.0,0.0,0.0,0.0,0.0,0.0,0.0,0.0,0.0,0.0,0.0,0.0,0.0,0.0,0.0,0.0,0.0,0.0,-0.6461,0.0,0.0,-0.7642,-0.702,-0.663,-0.6531,-0.5894,-0.5498,-0.5428,-0.5432,-0.5686,-0.6191,-0.6378,-0.661,-0.6817,-0.5844,-0.516,-0.4483,-0.1343,-0.0,-0.0,-0.0,-0.0141,-0.0425,-0.0437,-0.0447,-0.0456,-0.0457,-0.0626,-0.1132,-0.2983,-0.4929,0.0,0.0,0.0,-0.5096,-0.327,-0.2682,-0.2197,0.0154,0.0,0.6264,0.6271,0.6278,0.6692,0.83,0.8827,0.9437,1.0804,0.9867,0.9237,1.0415,1.1012,1.1679,1.2771,1.3227,1.3347,1.3227,1.3959,1.4516,1.4576,1.567,1.6452,1.6689,1.6912,1.7072,1.7401,1.7155,1.7072,1.7237,1.7371,1.7456,1.7456,1.6428,1.5913,1.5913,1.4822,1.4188,1.4148,1.4442,1.5099,1.5987,1.6309,1.6232,1.5812,1.5565,1.5451,1.5451,1.5451,1.5451,1.5478,1.5732,1.5832,1.5832,1.5832,1.5832,1.5832,0.0,0.0,0.0,0.0,0.0,0.0,0.0,0.0,0.0,0.0,0.0,0.0,0.0,0.0,0.0,-0.6141,-0.6597,-0.6985,-0.7372,-0.7767,-0.7762,-0.7307,-0.7037,-0.6583,-0.6013,-0.5712,-0.5515,-0.5428,-0.5428,-0.5624,-0.6009,-0.6609,-0.7138,-0.7531,-0.6588,-0.5858,-0.5328,-0.368,-0.1876,-0.0,-0.0,-0.0,-0.0,-0.0,-0.0,-0.0,-0.0,-0.0,-0.0156,-0.1028,-0.2066,-0.3182,-0.4297,0.0,0.0,0.0,-0.4902,-0.4171,-0.0854,0.1325,0.3044,0.4222,0.5348,0.637,0.7175,0.8038,0.9069,1.0315,1.0272,1.0263,1.1031,1.1512,1.2104,1.3121,1.3703,1.4072,1.4306,1.478,1.5268,1.5658,1.5947,1.6632,1.7992,1.7432,1.759,1.9009,1.798,1.7585,1.823,1.7817,1.7499,1.7499,1.6996,1.649,1.5913,1.5285,1.465,1.4088,1.4867,1.551,1.6111,1.7125,1.7559,1.7568,1.7326,1.7106,1.665,1.665,1.6285,1.5651,1.5778,1.5832,1.5832,1.5832,1.5832,1.5832,0.0,0.0,0.0,0.0,0.0,0.0,0.0,0.0,0.0,0.0,0.0,0.0,0.0,0.0,0.0,0.0,-0.7757,-0.8091,-0.8291,-0.8544,-0.8285,-0.7372,-0.7306,-0.6785,-0.5756,-0.5644,-0.5515,-0.5428,-0.5428,-0.5491,-0.5749,-0.6396,-0.7177,-0.7962,-0.7111,-0.6392,-0.5807,-0.5512,-0.383,-0.1274,-0.0404,-0.0,-0.0,-0.0,-0.0,-0.0,-0.0,-0.0,-0.0,-0.0,-0.0,-0.0235,-0.1798,-0.4153,0.0,0.0,0.0,-0.5584,-0.2422,-0.0784,0.0393,0.1955,0.3407,0.4765,0.5924,0.7029,0.8065,0.9302,1.014,1.0734,1.0869,1.173,1.2578,1.3046,1.3965,1.4692,1.4956,1.5471,1.6028,1.6524,1.6483,1.717,1.9093,1.8194,1.8351,2.045,1.8789,1.8069,1.8957,1.7908,1.7342,1.7342,1.7342,1.6927,1.6108,1.6108,1.5711,1.4901,1.5703,1.6322,1.6904,1.8011,1.8854,1.9479,1.8954,1.8353,1.7888,1.7888,1.7383,1.6635,1.672,1.6567,1.6292,1.6292,1.6109,1.5832,0.0,0.0,0.0,0.0,0.0,0.0,0.0,0.0,0.0,0.0,0.0,0.0,-0.6337,-0.7324,-0.8264,-0.8995,-0.8388,-0.8355,-0.9204,-0.9977,-1.0104,-0.9204,-0.8517,0.0,-0.6658,-0.5977,-0.5515,-0.5428,-0.5428,-0.5815,-0.6654,-0.6654,-0.7177,-0.7962,-0.7111,-0.6806,-0.6911,-0.5859,-0.5266,-0.4797,-0.1414,-0.0,-0.0,-0.0,-0.0,-0.0,-0.0,-0.0,-0.0,-0.0,-0.0,-0.0,-0.0157,-0.2982,-0.6322,0.0,0.0,0.0,-0.6006,-0.3036,-0.0,0.0158,0.0239,0.1275,0.5159,0.6245,0.6776,0.8198,0.9232,0.9857,0.9629,1.131,1.2691,1.2743,1.3705,1.4478,1.4514,1.5722,1.6585,1.6567,1.7713,1.8657,1.9238,1.9584,1.9936,2.0537,1.952,1.8957,1.9036,1.7908,1.7342,1.7342,1.7342,1.7253,1.7261,1.7261,1.7172,1.7098,1.7172,1.7755,1.8825,1.8922,1.9737,2.0986,1.9236,1.837,1.8387,1.8387,1.8592,1.8937,1.9183,1.8588,1.7598,1.7598,1.685,1.5832,0.0,0.0,0.0,0.0,0.0,0.0,0.0,0.0,0.0,0.0,0.0,0.0,0.0,-0.8931,-0.9901,-1.0746,-1.06,-1.0325,-1.0168,-1.0428,-1.0238,-0.9338,-0.8648,-0.7848,-0.684,-0.6128,-0.5654,-0.5508,-0.541,-0.5557,-0.5881,-0.5881,-0.6017,-0.6354,-0.6753,-0.703,-0.7047,-0.5866,-0.541,-0.5071,-0.1482,-0.0,-0.0,-0.0,-0.0,-0.0,-0.0,-0.0,-0.0,-0.0,-0.0,-0.0,-0.0,-0.1019,-0.2508,-0.3837,-0.4229,-0.4553,-0.5924,-0.523,-0.3421,-0.0641,-0.0158,0.0543,0.3454,0.5188,0.6441,0.7454,0.8323,0.898,0.9662,1.0779,1.1999,1.3097,1.403,1.5027,1.6209,1.7032,1.7501,1.7501,1.7919,1.8398,1.8828,1.9004,1.9277,1.9707,1.8825,1.8276,1.8276,1.7329,1.6702,1.6702,1.6926,1.7166,1.7334,1.7342,1.7342,1.7342,1.8069,1.8638,1.9045,1.9968,2.0601,2.082,2.0342,1.9904,1.9451,1.979,1.9451,1.8985,1.9348,1.9222,1.8772,1.7963,1.7412,1.6943,0.0,0.0,0.0,0.0,0.0,0.0,0.0,0.0,0.0,-0.64,0.0,0.0,0.0,0.0,-1.1425,-1.1712,-1.1997,-1.1779,-1.0688,-1.0624,-1.0238,-0.9338,-0.8991,-0.8368,-0.7414,-0.6916,-0.6511,-0.6134,-0.5896,-0.5686,-0.5428,-0.5428,-0.5369,-0.5379,-0.5561,-0.5969,-0.6457,-0.574,-0.473,-0.337,-0.0943,-0.0,-0.0135,-0.1565,-0.2118,-0.1993,-0.1291,-0.0586,-0.0,-0.0,-0.0,-0.0,-0.0,-0.0,-0.0235,-0.1642,-0.2033,-0.2348,-0.3775,-0.4191,-0.382,-0.2489,-0.1184,0.0156,0.1671,0.4155,0.6271,0.6824,0.7487,0.8209,0.9336,1.0143,1.1308,1.3461,1.4453,1.5562,1.7156,1.7744,1.8008,1.8008,1.8008,1.8174,1.8523,1.8562,1.8818,1.9248,1.8387,1.7701,1.7309,1.6388,1.5847,1.5847,1.6382,1.6941,1.7533,1.7839,1.7996,1.8005,1.8852,1.9316,1.9325,2.0476,2.085,2.0576,2.0879,2.0747,2.0458,2.0735,2.0567,2.0044,2.0385,2.0381,1.9943,1.8772,1.8056,1.7505,0.0,0.0,0.0,0.0,0.0,0.0,0.0,0.0,-0.6307,-0.7269,0.0,0.0,0.0,0.0,0.0,-1.1896,-1.2512,-1.2274,-1.0681,-1.0624,-1.0238,-0.9402,-0.9592,-0.9321,-0.843,0.0,0.0,0.0,0.0,-0.6272,-0.5428,-0.5428,-0.5369,-0.5309,-0.3551,-0.3694,-0.5343,-0.5276,-0.3234,-0.0,-0.0,-0.0067,-0.0609,-0.4743,-0.6297,-0.6028,-0.3972,-0.1921,-0.0151,-0.0076,-0.0,-0.0,-0.0,-0.0,-0.0,-0.0,-0.0,-0.0,0.0,0.0,0.0,-0.5094,-0.3125,-0.0162,-0.0,0.3134,0.6132,0.6278,0.6814,0.756,0.8588,0.9335,1.0767,1.3568,1.482,1.5947,1.7249,1.7744,1.8008,1.8008,1.8008,1.8164,1.8504,1.8533,1.8779,1.9219,1.8248,1.7182,1.6271,1.5219,1.4694,1.4857,1.5755,1.6757,1.7859,1.8839,1.9287,1.9287,1.9707,1.9902,1.9932,2.0352,2.0557,2.0566,2.0566,2.081,2.1221,2.123,2.1719,2.248,2.249,2.2015,2.1176,1.9909,1.874,1.7569,0.0,0.0,0.0,0.0,0.0,0.0,0.0,0.0,-0.9169,0.0,0.0,0.0,-1.277,-1.3431,-1.3545,-1.2757,-1.2328,-1.1717,-1.0688,-1.0624,-1.0491,-1.0238,-1.0019,-0.9708,-0.9496,0.0,0.0,0.0,0.0,0.0,0.0,0.0,0.0,-0.5309,-0.3951,-0.3413,-0.3355,-0.2017,-0.0943,-0.0,-0.0,-0.1841,-0.4671,-0.5846,-0.6294,-0.6201,-0.56,-0.5066,-0.4114,-0.1004,-0.0,-0.0,-0.0,-0.0,-0.0,-0.0,-0.0,-0.0,-0.0,0.0,0.0,0.0,0.0,0.0,-0.0722,0.0872,0.2582,0.5643,0.6457,0.6891,0.7903,0.8592,0.9774,1.2345,1.3984,1.5521,1.7156,1.7744,1.8008,1.8008,1.8008,1.8057,1.8174,1.791,1.79,1.833,1.6865,1.6091,1.6501,1.5524,1.5145,1.5394,1.6365,1.7184,1.7775,1.8756,1.9287,1.9287,1.9404,1.9619,1.9922,2.0039,2.0273,2.0566,2.0566,2.0635,2.0781,2.1103,2.1377,2.1621,2.1934,2.1952,2.1523,1.9418,1.8449,1.7968,0.0,0.0,0.0,0.0,0.0,0.0,0.0,-1.002,-1.077,0.0,0.0,0.0,-1.4382,-1.4606,-1.4273,-1.313,-1.2647,-1.1921,-1.0694,-1.0675,-1.0752,-1.0624,-1.0568,-1.051,-1.051,0.0,0.0,0.0,0.0,0.0,0.0,0.0,0.0,0.0,-0.4694,-0.4156,-0.3758,-0.2688,-0.1814,-0.1144,-0.1225,-0.2763,-0.5072,-0.5987,-0.6324,-0.6286,-0.628,-0.627,-0.5906,-0.3446,-0.1492,-0.0,-0.0,-0.0,-0.0,-0.0,-0.0,-0.0,-0.0,-0.0,-0.0,-0.0,0.0,0.0,-0.0559,-0.0,0.0702,0.3165,0.5075,0.6467,0.7061,0.811,0.9634,1.1806,1.3393,1.4911,1.6794,1.7639,1.8008,1.8008,1.8008,1.8008,1.8008,1.8108,1.8324,1.8509,1.7931,1.7373,1.7123,1.6235,1.5647,1.5468,1.6412,1.7036,1.727,1.8233,1.875,1.876,1.8936,1.915,1.9385,1.957,1.9795,2.0039,2.0225,2.0293,2.0322,2.0771,2.1064,2.126,2.1514,2.1836,2.1887,2.0031,1.9333,1.9011,0.0,0.0,0.0,0.0,0.0,0.0,0.0,-1.093,-1.167,0.0,-1.3411,-1.4239,-1.5313,-1.5294,-1.4706,-1.331,-1.3355,-1.2727,-1.1107,-1.1187,-1.1194,-1.0925,-1.1329,-1.156,-1.156,0.0,0.0,0.0,0.0,0.0,0.0,0.0,0.0,0.0,0.0,-0.5382,-0.5393,-0.5393,-0.45,-0.3019,-0.3316,-0.3428,-0.3668,-0.5568,-0.6307,-0.6277,-0.6002,-0.5821,-0.5608,-0.5608,-0.3066,0.0079,0.055,0.0707,0.0628,0.0392,0.0314,0.0314,0.0078,-0.0,-0.0,-0.0,-0.0,0.0,-0.0,-0.0,-0.0,-0.0,0.3004,0.5712,0.6224,0.7757,0.9578,1.1495,1.2691,1.4148,1.628,1.7285,1.7862,1.8008,1.8076,1.8134,1.8134,1.887,1.9378,1.942,2.0139,1.9879,1.8195,1.7262,1.6408,1.5649,1.6358,1.6775,1.6775,1.7579,1.8008,1.8018,1.8389,1.8594,1.8582,1.9043,1.9238,1.9307,1.9678,1.9844,1.9883,2.0312,2.0752,2.1162,2.1162,2.1631,2.2116,2.0964,2.0517,2.0172,-1.1105,0.0,0.0,0.0,0.0,0.0,0.0,-1.3241,-1.3308,-1.3826,-1.4037,-1.4427,-1.5284,-1.4815,-1.4459,-1.4541,-1.3936,-1.3572,-1.3599,-1.3276,-1.306,-1.2996,-1.2623,-1.2444,-1.2444,-1.2301,0.0,0.0,0.0,0.0,0.0,0.0,0.0,0.0,0.0,-0.5432,-0.5369,-0.5369,-0.5163,-0.4903,-0.5133,-0.5326,-0.5506,-0.6057,-0.6291,-0.6096,-0.4375,-0.266,-0.1256,-0.1256,-0.0707,0.0628,0.4014,0.5048,0.4726,0.2974,0.25,0.211,0.047,-0.0,-0.0,-0.0,-0.0,0.0,-0.0,-0.0,-0.0,-0.0,0.0624,0.2267,0.5643,0.6626,0.7371,0.8789,1.0323,1.2556,1.6123,1.6775,1.7139,1.794,1.8586,1.9044,1.9044,1.9469,1.9965,2.03,2.0526,2.0284,1.9536,1.9047,1.866,1.8469,1.7969,1.7725,1.7725,1.794,1.8008,1.8008,1.8096,1.8311,1.8562,1.8721,1.8955,1.9287,1.9375,1.9404,1.9443,1.9863,2.0303,2.0693,2.0693,2.0801,2.0858,1.9712,1.93,1.9182,-1.2176,0.0,0.0,0.0,0.0,0.0,0.0,0.0,-1.41,-1.3657,-1.4529,-1.5486,-1.6293,-1.6593,-1.6497,-1.5918,-1.5605,-1.5083,-1.4345,-1.4205,-1.3786,-1.3052,-1.2867,-1.2579,-1.2037,-1.207,-1.2011,0.0,0.0,0.0,0.0,0.0,0.0,0.0,0.0,-0.6075,-0.6009,-0.5554,-0.5428,-0.5442,-0.561,-0.5761,-0.5902,-0.6064,-0.6228,-0.6136,-0.5107,-0.2668,0.0314,0.2435,0.3146,0.3301,0.4399,0.543,0.6071,0.5021,0.4701,0.4467,0.3452,0.1568,-0.0,-0.0,-0.0,0.0,0.0,-0.1599,-0.311,-0.3149,-0.1487,0.0624,0.2733,0.4001,0.5286,0.7058,0.8503,1.0242,1.2322,1.4065,1.5668,1.7139,1.8065,1.8793,1.9233,2.0303,2.1148,2.1779,2.1865,2.1561,2.0919,2.071,2.0204,1.9299,1.8629,1.8141,1.7695,1.748,1.748,1.7695,1.7695,1.7697,1.7586,1.7586,1.7487,1.7261,1.7977,1.8225,1.8345,1.9416,2.0049,2.0264,2.0478,2.0703,2.0819,2.0324,2.0085,1.9944,-1.2766,-1.2592,0.0,0.0,0.0,0.0,0.0,0.0,-1.4126,-1.321,-1.4906,-1.6558,-1.7396,-1.8581,-1.8715,-1.7284,-1.7272,-1.6718,-1.5103,-1.4899,-1.4255,-1.3034,-1.2958,-1.2502,-1.1696,-1.1841,-1.1879,0.0,0.0,0.0,0.0,0.0,0.0,0.0,0.0,-0.6527,-0.6654,-0.5752,-0.5446,-0.5416,-0.5542,-0.5661,-0.5783,-0.5973,-0.5898,-0.5625,-0.5193,-0.2909,0.055,0.3936,0.5608,0.6006,0.4231,0.4937,0.6291,0.6291,0.6288,0.6295,0.6318,0.3521,0.0469,0.008,-0.0,-0.0,0.0,0.0,0.0,-0.6115,-0.3578,-0.0949,-0.0158,0.1355,0.3297,0.5848,0.686,0.7493,0.8087,1.0571,1.3273,1.582,1.6991,1.8083,1.926,2.1111,2.2555,2.3078,2.3238,2.2935,2.2199,2.2002,2.1175,1.9628,1.8901,1.8243,1.7383,1.7031,1.6992,1.7256,1.7344,1.7064,1.645,1.645,1.6,1.5251,1.6349,1.6812,1.7008,1.8788,1.9533,1.9649,2.0313,2.0703,2.0774,2.0774,2.0614,2.0353,-1.3046,-1.2906,-1.2838,0.0,0.0,0.0,0.0,0.0,-1.29,-1.3487,-1.5392,-1.703,-1.784,-1.8742,-1.905,-1.848,-1.8072,-1.7818,-1.76,-1.6101,-1.5219,-1.5129,-1.3839,-1.2942,-1.2586,-1.2329,-1.1797,-1.0891,0.0,0.0,0.0,0.0,0.0,0.0,-0.5881,-0.6009,-0.6654,-0.5752,-0.544,-0.5566,-0.5451,-0.5537,-0.5647,-0.5935,-0.4916,-0.3194,-0.1401,-0.0393,0.0079,0.055,0.3224,0.6247,0.5983,0.6126,0.6278,0.6268,0.6264,0.6271,0.6295,0.4555,0.2288,0.047,-0.0,-0.0,-0.0,0.0,-0.18,-0.5532,0.0,-0.4446,-0.0668,0.0,0.0,0.569,0.4849,0.4392,0.6305,0.7186,0.9303,1.4026,1.5745,1.7357,1.939,2.211,2.3554,2.3115,2.3615,2.3616,2.2982,2.2322,2.1428,2.0462,1.9222,1.8243,1.7383,1.7334,1.7139,1.6807,1.7197,1.6911,1.5959,1.5959,1.5678,1.5234,1.5346,1.5546,1.588,1.7501,1.8282,1.8638,2.0072,2.0039,1.9277,1.9277,1.862,1.7725,-1.3126,-1.2959,-1.2912,-1.3272,0.0,0.0,0.0,0.0,-1.3265,-1.4507,-1.6757,-1.8712,-1.9754,-2.0419,-2.0561,-1.9821,-1.9148,-1.851,-1.8046,-1.6908,-1.5972,-1.5334,-1.4089,-1.3128,-1.2508,-1.2226,-1.1681,-1.0783,-1.019,0.0,0.0,0.0,0.0,0.0,-0.6334,-0.639,-0.6752,-0.5894,-0.5603,-0.5679,-0.5627,-0.4917,-0.4051,-0.5173,-0.2283,0.2163,0.0547,-0.0,-0.0,-0.0,0.1176,0.3061,0.5503,0.6291,0.6288,0.6281,0.6281,0.6288,0.6308,0.5634,0.4192,0.0861,-0.0,-0.0,-0.0,-0.0,-0.0498,-0.2265,0.0,0.0,0.0,0.0,0.0,0.0,0.2889,0.3825,0.6005,0.5382,0.6196,1.048,1.3294,1.6193,1.9713,2.2005,2.3231,2.3115,2.3665,2.3753,2.3103,2.2763,2.2042,2.085,1.9622,1.8451,1.7297,1.6604,1.6279,1.6348,1.6533,1.6275,1.5573,1.5262,1.4701,1.3964,1.4229,1.4392,1.4637,1.6229,1.7011,1.7218,1.8303,1.8789,1.8957,1.823,1.7747,1.7342,-1.3153,-1.3026,-1.2919,-1.306,0.0,0.0,0.0,-1.3429,-1.4939,-1.6021,-1.8544,-2.061,-2.1293,-2.1713,-2.1553,-2.0655,-1.9695,-1.8701,-1.7706,-1.6827,-1.5794,-1.4749,-1.3928,-1.3075,-1.2184,-1.2138,-1.1573,-1.0415,0.0,0.0,0.0,0.0,0.0,0.0,-0.6482,-0.6564,-0.6869,-0.5931,-0.5623,-0.5677,-0.4618,-0.2919,-0.1322,-0.3085,0.0381,0.5918,0.2821,0.1017,-0.0,-0.0,-0.0,0.0548,0.3604,0.4943,0.541,0.5455,0.5389,0.5572,0.6112,0.5467,0.3511,-0.0868,-0.0971,-0.0,-0.0,-0.0,-0.0,-0.0,-0.2458,0.0,0.0,0.0,-0.0,-0.0,0.0,0.2957,0.5112,0.4633,0.5123,0.7772,1.1534,1.5355,1.9114,2.1163,2.2367,2.2565,2.3354,2.3504,2.28,2.3005,2.2504,2.1307,2.018,1.8896,1.7431,1.6384,1.592,1.5889,1.6237,1.5956,1.5104,1.4906,1.4344,1.3484,1.3506,1.3643,1.3917,1.5202,1.5815,1.5971,1.6581,1.7324,1.798,1.7172,1.6683,1.6445,-1.3153,-1.32,-1.3106,-1.2889,-1.2829,-1.2988,-1.3342,-1.6079,-1.8101,-1.7996,-2.0676,-2.2436,-2.1913,-2.1877,-2.1553,-2.0655,-1.9393,-1.8082,-1.6748,-1.5325,-1.4239,-1.3414,-1.3012,-1.254,-1.1897,-1.2506,-1.1657,-0.9372,0.0,0.0,0.0,0.0,0.0,0.0,-0.5888,-0.5974,-0.68,-0.5797,-0.5614,-0.5666,-0.1737,0.1029,0.2699,0.0878,0.2772,0.6295,0.6136,0.3446,-0.0,-0.0,-0.0,-0.0,0.0157,0.1563,0.3189,0.3195,0.3224,0.3659,0.5749,0.333,-0.0915,-0.5719,-0.3436,-0.0,-0.0,-0.0,-0.0,-0.0,-0.0084,-0.0168,-0.0168,-0.0083,-0.0,-0.0,0.0086,0.0,0.0,0.5215,0.6688,0.6871,1.1289,1.5119,1.6946,1.9583,2.1186,2.1286,2.255,2.2947,2.1999,2.2702,2.2689,2.1916,2.0914,1.9585,1.7975,1.7392,1.6532,1.5439,1.6622,1.6277,1.4764,1.5458,1.526,1.4413,1.3476,1.3497,1.4231,1.4396,1.4774,1.5363,1.5385,1.5582,1.5779,1.5779,1.5054,1.4166,-1.348,-1.3494,-1.334,-1.2916,-1.3073,-1.3657,-1.4667,-1.7224,-1.9485,-2.0617,-2.1908,-2.2856,-2.338,-2.1731,-2.0466,-2.0143,-1.8942,-1.7745,-1.6697,-1.591,-1.4998,-1.3917,-1.3557,-1.316,-1.2766,-1.2226,-1.123,-0.9721,-0.8876,0.0,0.0,0.0,0.0,0.0,-0.5668,-0.5734,-0.6097,-0.5749,-0.5854,-0.5615,0.0951,0.4108,0.4817,0.447,0.5106,0.6298,0.6312,0.5361,0.3299,-0.2275,-0.4169,-0.3694,-0.0862,0.047,0.1012,0.1065,0.1077,0.0623,-0.1445,-0.3062,-0.4523,-0.6195,-0.5613,-0.3879,-0.0736,-0.0,-0.0,-0.0,-0.0,-0.0,-0.0,-0.0,-0.0,-0.0,-0.0,0.026,0.0,0.181,0.3441,0.6458,0.8256,1.0701,1.4425,1.6331,1.7678,1.8818,2.0051,2.0815,2.0923,2.1818,2.2116,2.1654,2.0846,1.9792,1.8475,1.7801,1.7242,1.6856,1.7253,1.7148,1.6623,1.6069,1.5775,1.5687,1.3897,1.3371,1.3859,1.3483,1.3467,1.3677,1.3815,1.4079,1.4371,1.458,1.4412,1.4088,-1.3559,-1.3559,-1.352,-1.3133,-1.3999,-1.5094,-1.6085,-1.8705,-2.1036,-2.2122,-2.2644,-2.312,-2.3525,-2.1352,-1.9902,-1.9902,-1.8419,-1.7135,-1.6263,-1.5585,-1.4772,-1.3719,-1.3427,-1.3022,-1.2337,-1.1799,-1.0712,-0.9261,-0.8488,-0.7533,0.0,0.0,0.0,0.0,0.0,-0.5547,-0.562,-0.5623,-0.5868,-0.5705,0.0742,0.3451,0.3574,0.3438,0.3643,0.409,0.4097,0.4178,0.3321,-0.214,-0.5016,-0.5835,-0.2988,-0.1534,-0.0845,-0.0223,-0.0,-0.0914,-0.5127,-0.6287,-0.6342,-0.6352,-0.6624,-0.5813,-0.213,-0.065,-0.0,-0.0,-0.0,-0.0,-0.0,-0.0,-0.0,-0.0,-0.0,-0.0,0.0,-0.0,0.1079,0.4044,0.5719,0.7787,1.0708,1.2716,1.4425,1.5739,1.6973,1.7891,1.8405,1.9663,2.0602,2.1102,2.0591,1.9975,1.9285,1.8406,1.7761,1.731,1.758,1.7418,1.6896,1.6368,1.6198,1.6186,1.4263,1.3615,1.3874,1.2587,1.2107,1.2222,1.2414,1.2721,1.3162,1.3688,1.3995,1.4088,-1.3585,-1.3674,-1.3687,-1.3707,-1.5473,-1.7071,-1.7488,-2.0464,-2.2673,-2.2559,-2.2961,-2.3054,-2.2568,-2.0898,-1.9865,-1.9765,-1.7829,-1.6298,-1.5569,-1.4363,-1.3462,-1.2788,-1.2752,-1.2164,-1.0887,-1.1161,-1.0258,-0.8074,-0.8093,0.0,0.0,0.0,0.0,0.0,-0.5552,-0.5364,-0.5419,-0.5428,-0.5664,-0.579,-0.2188,-0.0592,-0.0651,-0.189,-0.1594,-0.0448,-0.0298,-0.0149,-0.0,-0.0073,-0.2873,-0.62,-0.5901,-0.4443,-0.2534,-0.0779,-0.0142,-0.0872,-0.4896,-0.6117,-0.6373,-0.6569,-0.6408,-0.5875,-0.4153,-0.1839,-0.0,-0.0,-0.0,-0.0,-0.0,-0.0,-0.0,-0.0,-0.0,-0.0,-0.0,-0.0,-0.0,-0.0,0.3737,0.6257,0.5907,0.8918,1.13,1.2238,1.3376,1.4222,1.4738,1.6483,1.8309,2.0142,2.013,2.0157,2.0272,1.9183,1.8031,1.6799,1.7519,1.7103,1.5802,1.6428,1.6507,1.6013,1.4418,1.4004,1.4154,1.1747,1.0848,1.1099,1.1099,1.1494,1.22,1.3231,1.3841,1.4088,-1.3975,-1.4148,-1.4362,-1.4589,-1.5854,-1.7158,-1.8003,-2.0757,-2.2856,-2.3202,-2.2991,-2.2668,-2.236,-2.0627,-1.9036,-1.7986,-1.7082,-1.5895,-1.4286,-1.4096,-1.3599,-1.2499,-1.2131,-1.1673,-1.1094,-0.9969,-0.909,-0.8546,-0.7682,0.0,-0.679,0.0,0.0,0.0,0.0,-0.4323,-0.5423,-0.5426,-0.483,-0.3938,-0.4523,-0.4189,-0.3672,-0.6911,-0.7777,-0.714,-0.6452,-0.5229,-0.4101,-0.5096,-0.5614,-0.5891,-0.593,-0.5495,-0.4823,-0.4179,-0.2138,-0.0217,-0.1348,-0.39,-0.632,-0.6388,-0.6352,-0.614,-0.5702,-0.2725,-0.0,-0.0,-0.0,-0.0,-0.0,-0.0,-0.0,-0.0,-0.0,-0.0,-0.0,-0.0,-0.0,-0.0,0.1036,0.2416,0.4064,0.6007,0.7842,0.9473,0.9622,1.055,1.2606,1.4712,1.6372,1.7694,1.8152,1.8511,1.8862,1.8225,1.7549,1.6957,1.7126,1.701,1.6651,1.5685,1.5555,1.5856,1.2924,1.1999,1.2368,1.0388,0.9622,0.9764,0.9764,1.0595,1.1972,1.347,1.4021,1.4088,-1.4275,-1.4509,-1.481,-1.5097,-1.6066,-1.7247,-1.8539,-2.109,-2.2754,-2.2547,-2.2401,-2.184,-2.0486,-1.9336,-1.8137,-1.6692,-1.58,-1.4944,-1.3954,-1.317,-1.243,-1.1815,-1.107,-1.0395,-0.9715,-0.8854,-0.8238,-0.7823,-0.7232,0.0,-0.6847,0.0,0.0,0.0,0.0,-0.3575,-0.4461,-0.5381,-0.5799,-0.5976,-0.7411,-0.7592,0.0,-0.9628,-1.0313,-0.9899,-0.9333,-0.7816,-0.6144,-0.6839,-0.6429,-0.5644,-0.572,-0.5674,-0.5631,-0.5431,-0.3405,-0.0981,-0.021,-0.1766,-0.3739,-0.4656,-0.5625,-0.6325,-0.6317,-0.3057,-0.0,-0.0,-0.0,-0.0,-0.0,-0.0,-0.0,-0.0,-0.0,-0.0,-0.0,-0.0,-0.0,-0.0,-0.0,0.0574,0.1865,0.2791,0.4026,0.5848,0.6876,0.8081,0.9588,1.0697,1.2542,1.5273,1.5881,1.6553,1.7469,1.6995,1.6437,1.5849,1.5463,1.5127,1.4755,1.3541,1.321,1.3514,1.139,1.0666,1.0938,0.9196,0.8585,0.8627,0.8789,0.9673,1.0993,1.2661,1.3633,1.4088,-1.4623,-1.4843,-1.511,-1.5404,-1.6216,-1.7262,-1.8718,-2.0925,-2.2127,-2.0979,-2.1193,-2.0476,-1.8053,-1.7692,-1.7059,-1.5658,-1.4405,-1.3719,-1.3775,-1.1883,-1.0819,-1.0975,-0.9779,-0.8694,-0.7783,-0.7799,-0.7423,-0.6702,-0.6854,0.0,0.0,0.0,0.0,0.0,-0.3977,-0.3699,-0.4059,-0.5764,-0.7639,-0.9468,-1.0073,-1.0392,-1.0437,-1.081,-1.0754,-1.0325,-1.0178,-0.8827,-0.7043,-0.6783,-0.6175,-0.5538,-0.5403,-0.5454,-0.5542,-0.543,-0.4303,-0.2626,-0.0552,-0.0,-0.0419,-0.2216,-0.4128,-0.5504,-0.5479,-0.2601,-0.0,-0.0,-0.0,-0.0,-0.0,-0.0,-0.0,-0.0,-0.0,-0.0,-0.0,-0.0,-0.0,-0.0,-0.0,0.0,-0.0,-0.0,0.0635,0.2189,0.447,0.5925,0.6284,0.6307,0.8345,1.2827,1.3346,1.4313,1.5832,1.5232,1.4569,1.383,1.3185,1.252,1.1866,1.0931,1.0547,1.0528,0.9867,0.971,0.9746,0.8196,0.7613,0.7646,0.7882,0.8598,0.9711,1.1083,1.26,1.3913,-1.5197,-1.5284,-1.5411,-1.5705,-1.6721,-1.7619,-1.7864,-1.8685,-1.9015,-1.8456,-1.8566,-1.8099,-1.6702,-1.6496,-1.5814,-1.4237,-1.3848,-1.3025,-1.1521,-1.1031,-1.0432,-0.9656,-0.8637,-0.8008,-0.7783,-0.71,-0.6708,-0.6702,-0.6854,-0.7,0.0,0.0,0.0,0.0,-0.6166,-0.686,-0.8163,-0.7979,-0.8808,-1.0176,-1.0519,-1.0703,-1.0822,-1.1681,-1.1238,-1.016,-1.0118,-0.924,-0.7986,-0.7047,-0.616,-0.5463,-0.5435,-0.5386,-0.5413,-0.5399,-0.5196,-0.4185,-0.088,-0.0,-0.0068,-0.0478,-0.0834,-0.1132,-0.1138,-0.0508,-0.0,-0.0,-0.0,-0.0,-0.0,-0.0,-0.0,-0.0,-0.0,-0.0,-0.0,-0.0,-0.0,-0.0,-0.0,-0.0,-0.0,-0.0,0.0163,0.0416,0.09,0.2182,0.4522,0.5804,0.7565,0.9878,1.0515,1.1333,0.0,1.1788,1.1262,1.0786,1.1271,1.1473,1.1293,1.0002,0.9794,1.0335,0.9195,0.865,0.8537,0.6978,0.6377,0.6567,0.6595,0.7466,0.8684,0.8914,1.059,1.2766,-1.5565,-1.5618,-1.5665,-1.5805,-1.6298,-1.6662,-1.6662,-1.6672,-1.6866,-1.7391,-1.7608,-1.7001,-1.5046,-1.5127,-1.4471,-1.2378,-1.2191,-1.1601,-1.0115,-0.9513,-0.9064,-0.8542,-0.7553,-0.7022,-0.7022,-0.6634,-0.6474,-0.6702,-0.6773,-0.6892,-0.6957,0.0,0.0,-0.6739,-0.7163,-0.7924,-0.8784,-0.9337,-1.0003,-1.0617,-1.1335,-1.1242,-1.0846,-1.1242,-1.0581,-0.9243,-0.8705,-0.8102,-0.7437,-0.6881,-0.6145,-0.5369,-0.5369,-0.5379,-0.5389,-0.5399,-0.5406,-0.4593,-0.101,-0.0,-0.0,-0.0,-0.0,-0.0,-0.0,-0.0,-0.0,-0.0,-0.0,-0.0,-0.0,-0.0,-0.0,-0.0,-0.0,-0.0,-0.0,-0.0,-0.0,-0.0,-0.0,-0.0,-0.0,0.2261,0.3433,0.2805,0.3352,0.4116,0.5097,0.6078,0.7189,0.8443,0.0,0.0,1.056,0.0,0.9759,0.8965,0.9321,0.9068,0.8091,0.6491,0.5974,0.6343,0.5739,0.5492,0.5689,0.6007,0.6203,0.6338,0.6338,0.6781,0.755,0.8855,1.0151,1.1466,-1.4912,-1.4956,-1.4956,-1.4956,-1.4956,-1.493,-1.4968,-1.4542,-1.4837,-1.6494,-1.6505,-1.5613,-1.3411,-1.3321,-1.2645,-1.0663,-1.049,-1.004,-0.9069,-0.8237,-0.7706,-0.748,-0.6718,-0.6338,-0.6338,-0.6338,-0.639,-0.6651,-0.6685,-0.678,-0.6929,-0.6959,-0.696,-0.7022,-0.7773,-0.8308,-0.8956,-1.0276,-1.0783,-1.0858,-1.1694,-1.1354,-1.0461,-1.0344,-0.9439,-0.819,-0.7409,-0.6823,-0.6396,-0.6396,-0.5954,-0.5379,-0.5379,-0.5389,-0.5399,-0.541,-0.4864,-0.3641,-0.0741,-0.0,-0.0,-0.0,-0.0,-0.0,-0.0,-0.0,-0.0,-0.0,-0.0,-0.0,-0.0,-0.0,-0.0,-0.0,-0.0,-0.0,-0.0,-0.0,-0.0,-0.0,-0.0,-0.0,-0.0,0.4318,0.669,0.5808,0.6344,0.6558,0.609,0.6387,0.6806,0.7471,0.7541,0.7711,0.807,0.0,0.7168,0.6285,0.6724,0.6104,0.4698,0.2917,0.2119,0.2144,0.2112,0.2534,0.3279,0.5407,0.6274,0.6264,0.6295,0.6548,0.7174,0.9131,1.0243,1.0958,-1.2231,-1.2237,-1.2237,-1.2237,-1.2237,-1.2261,-1.2147,-1.1806,-1.2478,-1.4894,-1.3809,-1.2559,-1.1912,-1.0986,-1.0053,-0.9483,-0.9448,-0.8993,-0.8008,-0.7859,-0.7403,-0.649,-0.6338,-0.6338,-0.6338,-0.6338,-0.6335,-0.6495,-0.663,-0.678,-0.6932,-0.7061,-0.7393,-0.8082,0.0,0.0,0.0,-1.0714,-1.0783,-1.0783,-1.0932,-1.0279,-0.928,-0.9259,-0.8416,-0.7245,-0.7159,-0.6427,-0.5491,-0.5491,-0.5498,-0.5379,-0.5379,-0.5393,-0.541,-0.5413,-0.31,-0.0404,-0.0067,-0.0,-0.0,-0.0,-0.0,-0.0,-0.0,-0.0,-0.0,-0.0,-0.0,-0.0,-0.0,-0.0,-0.0,-0.0,-0.0,-0.0,-0.0,-0.0,-0.0,-0.0,-0.0,-0.0,-0.0,0.4323,0.7031,0.6954,0.6057,0.5767,0.6241,0.6344,0.0,0.6478,0.6642,0.5476,0.287,0.1524,0.088,0.0783,0.2387,0.3104,0.2882,0.1088,0.0224,0.0234,0.0234,0.1328,0.3279,0.5413,0.6281,0.6352,0.6403,0.7178,0.8233,0.8677,1.0214,1.2122,-1.1945,-1.1945,-1.1945,-1.1945,-1.1834,-1.1713,-1.1716,-1.14,-1.1478,-1.2394,-1.1505,-1.0794,-1.0616,-1.0062,-0.9306,-0.8489,-0.8494,-0.8048,-0.6953,-0.6872,-0.6718,-0.6338,-0.6338,-0.6338,-0.6338,-0.6338,-0.6329,-0.6471,-0.6719,-0.6912,-0.7058,-0.7112,0.0,0.0,0.0,-0.9832,-0.997,-1.0565,-1.0415,-0.9879,-0.9807,-0.9107,-0.8125,-0.7957,-0.7216,-0.6192,-0.6094,-0.5822,-0.5372,-0.5379,-0.5379,-0.5243,-0.409,-0.3015,-0.2149,-0.2154,-0.1145,-0.0,-0.0,-0.0,-0.0,-0.0,-0.0,-0.0,-0.0,-0.0,-0.0,-0.0,-0.0,-0.0,-0.0,-0.0,-0.0,-0.0,-0.0,-0.0,-0.0,-0.0,-0.0,-0.0,-0.0,-0.0,-0.0,0.1693,0.404,0.6887,0.6342,0.5868,0.5779,0.627,0.0,0.6569,0.0,0.2052,0.0868,-0.0534,-0.1983,-0.3466,-0.2562,-0.0996,0.1065,0.0293,-0.0,-0.0,-0.0,0.047,0.1485,0.4865,0.6285,0.6278,0.6325,0.7198,0.8492,0.9316,1.0726,1.2413,-1.0774,-1.0774,-1.0756,-1.0697,-1.066,-1.0527,-1.0407,-1.0094,-0.9907,-0.9753,-0.9248,-0.9039,-0.9365,-0.8913,-0.8286,-0.7415,-0.7434,-0.7141,-0.6342,-0.6338,-0.6338,-0.6338,-0.6338,-0.6338,-0.6338,-0.6338,-0.6312,-0.641,-0.6668,-0.6848,-0.6946,0.0,0.0,0.0,-0.9366,-0.9727,-0.9372,-1.0045,-0.9777,-0.8736,-0.8655,-0.7938,-0.6949,-0.6704,-0.6173,-0.5511,-0.5413,-0.5379,-0.5312,-0.4776,-0.4637,-0.4495,-0.3758,-0.1877,-0.0,-0.0,-0.0,-0.0,-0.0,-0.0,-0.0,-0.0,-0.0,-0.0,-0.0,-0.0,-0.0,-0.0,-0.0,-0.0,-0.0,-0.0,-0.0,-0.0,-0.0,-0.0,-0.0,-0.0,-0.0,-0.0,-0.0,-0.0,-0.0,-0.0,0.1407,0.4761,0.533,0.5249,0.4753,0.5262,0.0,0.0,0.0,0.0,-0.181,-0.2843,-0.4156,-0.5821,-0.5578,-0.4113,-0.1556,-0.0522,-0.0,-0.0,-0.0,0.0314,0.1173,0.4151,0.5727,0.6278,0.6308,0.7183,0.8487,0.9456,1.0622,1.1986,-0.8038,-0.8038,-0.7991,-0.7838,-0.7811,-0.7712,-0.7513,-0.7244,-0.7143,-0.7139,-0.6753,-0.6951,-0.8137,-0.7187,-0.6493,-0.6352,-0.6338,-0.6342,-0.6338,-0.6338,-0.6338,-0.6338,-0.6338,-0.6338,-0.6338,-0.6338,-0.6338,-0.6342,-0.6407,-0.6478,-0.6481,0.0,-0.7186,-0.7965,-0.804,-0.8485,-0.9296,-0.9301,-0.8641,-0.7495,-0.7495,-0.6781,-0.5593,-0.5589,-0.5494,-0.5432,-0.5376,-0.5379,-0.5106,-0.3349,-0.2744,-0.3015,-0.4791,-0.2896,-0.0,-0.0,-0.0,-0.0,-0.0,-0.0,-0.0,-0.0,-0.0,-0.0,-0.0,-0.0,-0.0,-0.0,-0.0,-0.0,-0.0,-0.0,-0.0,-0.0,-0.0,-0.0,-0.0,-0.0,-0.0,-0.0,-0.0,-0.0,-0.0,-0.0,-0.0,0.0076,0.2271,0.3471,0.3134,0.2876,0.0,0.0161,0.0323,0.0,-0.6173,-0.627,-0.6115,-0.58,-0.5765,-0.563,-0.5192,-0.1611,-0.0,-0.0,-0.0,0.1175,0.3046,0.3124,0.4375,0.6274,0.6417,0.7281,0.8423,0.8615,0.9487,1.0783,-0.8038,-0.7957,-0.7868,-0.7821,-0.7645,-0.7482,-0.7387,-0.7156,-0.6959,-0.6854,-0.6624,-0.6593,-0.688,-0.6651,-0.6417,-0.6352,-0.6349,-0.6366,-0.6268,-0.6162,-0.6149,-0.6254,-0.6159,-0.6152,-0.6257,-0.6338,-0.6264,-0.6274,-0.6512,0.0,0.0,-0.7409,-0.7765,-0.7863,-0.8553,-0.8674,-0.8313,-0.8313,-0.7597,-0.6459,-0.6346,-0.604,-0.5579,-0.5474,-0.541,-0.5376,-0.5386,-0.5396,-0.5129,-0.3303,-0.2695,-0.3034,-0.4815,-0.4605,-0.3167,-0.0741,-0.0,-0.0,-0.0,-0.0,-0.0,-0.0,-0.0,-0.0,-0.0,-0.0,-0.0,-0.0,-0.0,-0.0,-0.0,-0.0,-0.0,-0.0,-0.0,-0.0,-0.0,-0.0,-0.0,-0.0,-0.0,-0.0,-0.0,-0.0,-0.0,-0.0,0.0746,0.1106,0.0988,0.0,0.0,0.0,-0.4188,0.0,-0.6257,-0.6267,-0.6191,-0.596,-0.5971,-0.5768,-0.5277,-0.166,-0.0,-0.0,-0.0,0.2041,0.5274,0.5263,0.5646,0.6278,0.6315,0.7123,0.8319,0.8427,0.9275,1.0538,-0.8038,-0.7916,-0.7794,-0.774,-0.7533,-0.7353,-0.7292,-0.7082,-0.6895,-0.68,-0.6603,-0.6437,-0.6349,-0.6373,-0.6359,-0.6345,-0.6288,-0.6268,-0.6179,-0.603,-0.5986,-0.6084,-0.5996,-0.5993,-0.617,-0.6173,0.0,-0.6277,-0.6366,-0.6448,-0.6452,-0.7062,-0.718,-0.7053,-0.7716,-0.7641,-0.7057,-0.712,-0.6645,-0.5861,-0.582,-0.5681,-0.5494,-0.5466,-0.5432,-0.5306,-0.4637,-0.4372,-0.4108,-0.2293,-0.1687,-0.189,-0.3044,-0.3377,-0.2898,-0.0674,-0.0,-0.0,-0.0,-0.0,-0.0,-0.0,-0.0,-0.0,-0.0,-0.0,-0.0,-0.0,-0.0,-0.0,-0.0,-0.0,-0.0,-0.0,-0.0,-0.0,-0.0,0.1194,0.203,0.2017,0.0833,-0.0,-0.0,-0.0,-0.0,-0.0,-0.0,-0.0,-0.0,0.0,-0.1599,-0.501,-0.5879,-0.6311,-0.6331,-0.6254,-0.6129,-0.5967,-0.5847,-0.4962,-0.3315,-0.1043,-0.0,0.0078,0.1643,0.3379,0.5193,0.5977,0.6281,0.6271,0.6264,0.6812,0.7601,0.769,0.8292,0.9225,-0.8038,-0.7909,-0.7753,-0.7624,-0.7465,-0.7309,-0.7163,-0.7021,-0.6926,-0.6915,-0.6654,-0.6468,-0.6458,-0.6329,-0.6247,-0.6335,0.0,-0.603,-0.603,-0.5878,-0.5789,-0.58,-0.5793,-0.5868,-0.5967,-0.5967,-0.6053,-0.615,-0.5906,-0.582,-0.5967,-0.5878,-0.58,-0.58,-0.58,-0.58,-0.581,-0.5956,-0.5854,-0.5613,-0.5739,-0.5623,-0.5442,-0.5432,-0.5428,-0.516,-0.348,-0.2744,-0.2277,-0.0538,-0.0,-0.0,-0.0,-0.0,-0.0,-0.0,-0.0,-0.0,-0.0,-0.0,-0.0,-0.0,-0.0,-0.0,-0.0,-0.0,-0.0,-0.0,-0.0,-0.0,-0.0,-0.0,-0.0,-0.0,0.0276,0.0421,0.0351,0.3164,0.5271,0.5394,0.2471,0.0291,-0.0,-0.0,-0.0,-0.0,-0.0,-0.0,0.0,0.0,-0.1263,-0.3061,-0.522,-0.6268,-0.6247,-0.6101,-0.6033,-0.6025,-0.5326,-0.3295,-0.0,-0.0,-0.0,0.0227,0.4436,0.5185,0.3515,0.5485,0.6271,0.6338,0.6338,0.6342,0.6478,0.6641,0.6783,0.7257,-0.8038,-0.7828,-0.7638,-0.7604,-0.7377,-0.7183,-0.7146,-0.7021,-0.6888,-0.677,-0.659,-0.643,-0.6322,-0.6176,-0.6132,-0.6251,-0.6118,-0.603,-0.603,-0.5786,-0.5688,-0.5796,-0.5698,-0.5768,-0.5967,-0.5967,-0.5525,-0.4499,-0.3774,-0.428,-0.5878,-0.5803,-0.58,-0.58,-0.58,-0.58,-0.5803,-0.584,-0.5817,-0.5745,-0.5671,-0.5599,-0.5521,-0.5473,-0.5432,-0.5376,-0.4909,-0.3017,-0.0603,-0.0135,-0.0,-0.0,-0.0,-0.0,-0.0,-0.0,-0.0,-0.0,-0.0,-0.0,-0.0,-0.0,-0.0,-0.0,-0.0,-0.0,-0.0,-0.0,-0.0,-0.0,-0.0,-0.0,-0.0,-0.0,0.2727,0.4647,0.4219,0.3852,0.4166,0.5547,0.4764,0.306,0.0291,-0.0,-0.0,-0.0,-0.0,-0.0,-0.0,-0.3437,-0.4694,-0.3134,-0.5342,-0.6376,-0.6088,-0.6211,-0.6225,-0.6191,-0.2895,-0.0826,-0.0,-0.0,-0.0,0.0227,0.4434,0.605,0.5575,0.6122,0.6271,0.6338,0.6338,0.6281,0.6342,0.6603,0.6651,0.6955,-0.7946,-0.7753,-0.7577,-0.7509,-0.7299,-0.7139,-0.7139,-0.7075,-0.6946,-0.6729,-0.6627,-0.6495,-0.6285,-0.6122,-0.6064,-0.6146,-0.6013,-0.5928,-0.6009,-0.5796,-0.5606,-0.5616,-0.5542,-0.5542,-0.5703,-0.5706,-0.5348,-0.4563,-0.4142,-0.449,-0.5606,-0.5603,-0.5599,-0.5599,-0.5599,-0.5599,-0.5603,-0.5674,-0.5664,-0.5599,-0.5593,-0.5549,-0.5477,-0.5459,-0.5432,-0.5372,-0.5389,-0.3758,-0.1472,-0.0404,-0.0,-0.0,-0.0,-0.0,-0.0,-0.0,-0.0,-0.0,-0.0,-0.0,-0.0,-0.0,-0.0,-0.0,-0.0,-0.0,-0.0,-0.0,-0.0,-0.0,-0.0,-0.0,-0.0,-0.0,0.3309,0.5751,0.5467,0.4671,0.4538,0.5528,0.5599,0.4745,0.2643,0.094,-0.0,-0.0,-0.0,0.0,-0.0,-0.2425,-0.4151,-0.4893,-0.5919,-0.6327,-0.6152,-0.6256,-0.6191,-0.582,-0.1879,-0.0,-0.0,-0.0,0.1022,0.2958,0.4294,0.5357,0.6288,0.6274,0.6268,0.6338,0.6338,0.6338,0.6295,0.659,0.6969,0.7675,-0.7804,-0.7662,-0.7522,-0.7394,-0.7244,-0.7139,-0.7139,-0.7122,-0.701,-0.6736,-0.6681,-0.6563,-0.6291,-0.6101,-0.6006,-0.6027,-0.5871,-0.5847,-0.5933,-0.5797,-0.545,-0.4989,-0.4982,-0.5125,-0.5413,-0.5413,-0.541,-0.5406,-0.5396,-0.5386,-0.5376,-0.5432,-0.5428,-0.5428,-0.5428,-0.5428,-0.5435,-0.5501,-0.5494,-0.5406,-0.5511,-0.5491,-0.5459,-0.5435,-0.5428,-0.5432,-0.5386,-0.4634,-0.3345,-0.1412,-0.047,-0.0,-0.0,-0.0,-0.0,-0.0,-0.0,-0.0,-0.0,-0.0,-0.0,-0.0,-0.0,-0.0,-0.0,-0.0,-0.0,-0.0,-0.0,-0.0,-0.0,-0.0,-0.0,-0.0,0.2812,0.5164,0.5375,0.5446,0.5494,0.5437,0.5684,0.5751,0.556,0.2154,-0.0,-0.0,-0.0,-0.0,-0.0,-0.0,-0.2041,-0.6421,-0.6147,-0.6048,-0.6268,-0.6211,-0.5622,-0.4533,-0.1498,0.0357,0.0947,0.0947,0.2736,0.5717,0.4248,0.4598,0.6278,0.6268,0.6338,0.6338,0.6338,0.6338,0.6373,0.6725,0.7569,0.8613,-0.7638,-0.7509,-0.74,-0.7373,-0.7244,-0.7139,-0.7139,-0.7037,-0.6898,-0.6722,-0.6586,-0.6444,-0.6278,-0.6006,-0.5888,-0.602,-0.5779,-0.5696,-0.5713,-0.5569,-0.4721,-0.3215,-0.3149,-0.383,-0.5346,-0.5413,-0.5403,-0.5382,-0.5382,-0.5376,-0.5432,-0.5428,-0.5428,-0.5428,-0.5428,-0.5428,-0.5428,-0.5452,-0.5457,-0.5545,-0.544,-0.546,-0.5542,-0.541,-0.5428,-0.5428,-0.5376,-0.4628,-0.368,-0.4311,-0.2552,-0.0,-0.0,-0.0,-0.0,-0.0,-0.0,-0.0,-0.0,-0.0,-0.0,-0.0,-0.0,-0.0,-0.0,-0.0,-0.0,-0.0,-0.0,-0.0,-0.0,-0.0,-0.0,-0.0,0.1931,0.3941,0.5232,0.0,0.6,0.5491,0.5902,0.62,0.6172,0.244,-0.0,-0.0,-0.0,-0.0,-0.0,-0.0,-0.1266,-0.4021,-0.4097,-0.4777,-0.6291,-0.5828,-0.396,-0.0801,-0.029,0.1888,0.5352,0.5352,0.467,0.3703,0.5159,0.6003,0.6278,0.6268,0.6338,0.6338,0.6338,0.6338,0.6437,0.7466,0.8027,0.8755,-0.7492,-0.7421,-0.75,-0.7856,-0.785,-0.8053,-0.8648,-0.8577,-0.818,-0.7683,-0.7442,-0.7044,-0.6352,-0.5986,-0.583,-0.5898,-0.5637,-0.5474,-0.5552,-0.4934,-0.4016,-0.2746,-0.2678,-0.3082,-0.3899,-0.4922,-0.5396,-0.5379,-0.5379,-0.5372,-0.5428,-0.5428,-0.5428,-0.5428,-0.5428,-0.5428,-0.5428,-0.5428,-0.547,-0.546,-0.5456,-0.5403,-0.546,-0.5456,-0.5428,-0.5428,-0.5376,-0.5033,-0.4622,-0.5196,-0.3632,-0.1272,-0.0337,-0.0,-0.0,-0.0,-0.0,-0.0,-0.0,-0.0,-0.0,-0.0,-0.0,-0.0,-0.0,-0.0,-0.0,-0.0,-0.0,-0.0,-0.0,-0.0,-0.0,-0.0,0.0807,0.2442,0.5445,0.5024,0.4591,0.5307,0.562,0.5039,0.3105,0.1139,-0.0,-0.0,-0.0,-0.0,-0.0,-0.0,-0.0474,-0.1602,-0.1675,-0.205,-0.2862,-0.2598,-0.167,-0.0,0.2323,0.4438,0.6273,0.6332,0.5751,0.4854,0.5864,0.6287,0.6268,0.6264,0.6338,0.6338,0.6338,0.6644,0.7208,0.7936,0.9052,1.0324,-0.7339,-0.7469,-0.7812,-0.8325,-0.8573,-0.9047,-0.9957,-0.9851,-0.9309,-0.8414,-0.8095,-0.7528,-0.6374,-0.5962,-0.5786,-0.5755,-0.5511,-0.5432,-0.5372,-0.4648,-0.3971,-0.3355,-0.3351,-0.3349,-0.3349,-0.4706,-0.5386,-0.5376,-0.5376,-0.5369,-0.5428,-0.5428,-0.5428,-0.5428,-0.5428,-0.5428,-0.5428,-0.5428,-0.5428,-0.5428,-0.5428,-0.5428,-0.5428,-0.5428,-0.5428,-0.5428,-0.5372,-0.5369,-0.5369,-0.5399,-0.4445,-0.2952,-0.0673,-0.0607,-0.1281,-0.128,-0.0942,-0.0538,-0.0135,-0.0,-0.0,-0.0,-0.0,-0.0,-0.0,-0.0,-0.0,-0.0,-0.0,-0.0,-0.0,-0.0,-0.0,-0.0,0.0,0.111,0.4392,0.4063,0.3998,0.523,0.5427,0.4171,0.0944,0.0281,-0.0,-0.0,-0.0,-0.0,-0.0,-0.0,-0.0,-0.0,-0.0,-0.0,-0.0,0.0942,0.1492,0.1492,0.4246,0.5813,0.6315,0.6266,0.6263,0.6274,0.6274,0.6271,0.6338,0.6338,0.6338,0.6338,0.6338,0.6817,0.7565,0.8108,0.957,1.1468,-0.716,-0.7737,-0.8304,-0.8365,-0.9045,-0.9648,-0.973,-0.9622,-0.9163,-0.8141,-0.7914,-0.7351,-0.6136,-0.5898,-0.5749,-0.5616,-0.5457,-0.5428,-0.5428,-0.5306,-0.5246,-0.5189,-0.5189,-0.5186,-0.5176,-0.5312,-0.5372,-0.5428,-0.5428,-0.5428,-0.5428,-0.5428,-0.5428,-0.5428,-0.5428,-0.5428,-0.5428,-0.5428,-0.5428,-0.5428,-0.5428,-0.5428,-0.5428,-0.5428,-0.5428,-0.5428,-0.5428,-0.5369,-0.5379,-0.5393,-0.5336,-0.459,-0.1078,-0.2296,-0.5029,-0.5007,-0.3832,-0.2144,-0.0471,-0.0,-0.0,-0.0,-0.0,-0.0,-0.0,-0.0,-0.0,-0.0,-0.0,-0.0,-0.0,-0.0,-0.0,-0.0,0.0,0.0,0.0391,0.3683,0.5899,0.546,0.5427,0.4657,0.2686,0.0963,-0.0,-0.0,-0.0,-0.0,-0.0,-0.0,-0.0,-0.0,-0.0,-0.0,-0.0,0.3857,0.5849,0.5849,0.4148,0.4373,0.6281,0.6271,0.6264,0.6264,0.6264,0.6338,0.6338,0.6338,0.6338,0.6338,0.6338,0.6417,0.6679,0.7565,0.8936,1.0642,-0.7139,-0.7964,-0.8794,-0.9137,-1.009,-1.0787,-1.0644,-1.0484,-0.9766,-0.8348,-0.797,-0.7375,-0.6329,-0.5952,-0.5779,-0.5725,-0.5501,-0.5428,-0.5428,-0.5428,-0.5432,-0.5372,-0.5376,-0.5372,-0.5369,-0.5369,-0.5432,-0.5428,-0.5428,-0.5428,-0.5428,-0.5428,-0.5428,-0.5428,-0.5428,-0.5428,-0.5428,-0.5428,-0.5432,-0.5372,-0.5372,-0.5376,-0.5382,-0.5382,-0.5382,-0.5382,-0.5382,-0.5386,-0.5389,-0.5403,-0.541,-0.4797,-0.1145,-0.2499,-0.5379,-0.5369,-0.4937,-0.4247,-0.3515,-0.1683,-0.0,-0.0,-0.0,-0.0,-0.0,-0.0,-0.0,-0.0,-0.0,-0.0,-0.0,-0.0,-0.0,-0.0,0.0,-0.0,-0.0,0.1402,0.2295,0.2069,0.4059,0.5277,0.4983,0.3993,0.3477,0.3883,0.3904,0.3898,0.3934,0.2665,0.1955,0.1955,0.1955,0.2585,0.3857,0.5848,0.6655,0.6308,0.5577,0.5644,0.6278,0.6271,0.6264,0.6338,0.6338,0.6338,0.6338,0.6338,0.6338,0.6338,0.6338,0.6734,0.7501,0.802,0.905,1.0371,-0.7139,-0.8321,-0.9379,-0.9692,-1.0936,-1.1757,-1.1183,-1.0906,-1.017,-0.8338,-0.7936,-0.7359,-0.6277,-0.5928,-0.5783,-0.5739,-0.5504,-0.5449,-0.543,-0.5456,-0.5428,-0.5428,-0.5428,-0.5428,-0.5428,-0.5428,-0.5428,-0.5428,-0.5428,-0.5428,-0.5428,-0.5428,-0.5428,-0.5428,-0.5428,-0.5428,-0.5428,-0.5432,-0.5372,-0.5376,-0.4767,-0.4567,-0.4573,-0.4573,-0.4573,-0.4573,-0.4573,-0.4916,-0.5403,-0.541,-0.466,-0.3303,-0.0808,-0.1685,-0.3924,-0.509,-0.5011,-0.4654,-0.5225,-0.3574,-0.1409,-0.0269,-0.0,-0.0,-0.0,-0.0,-0.0,-0.0,-0.0,-0.0,-0.0,-0.0,-0.0,-0.0,-0.0,-0.0,-0.0,-0.0,-0.0,-0.0,0.2181,0.4098,0.5056,0.5288,0.5595,0.6091,0.6273,0.6278,0.6315,0.4867,0.4068,0.4068,0.4178,0.4902,0.6315,0.6704,0.6722,0.6366,0.6582,0.6568,0.6339,0.6332,0.6302,0.6338,0.6338,0.6338,0.6338,0.6338,0.6338,0.6268,0.6312,0.6885,0.7592,0.7792,0.8647,0.9809,-0.7139,-0.8815,-1.0128,-0.9745,-1.1431,-1.2335,-1.0974,-1.0783,-1.011,-0.8084,-0.7783,-0.7262,-0.5981,-0.5803,-0.5742,-0.5603,-0.545,-0.5426,-0.5579,-0.5447,-0.5428,-0.5428,-0.5428,-0.5428,-0.5428,-0.5428,-0.5428,-0.5428,-0.5428,-0.5428,-0.5428,-0.5428,-0.5428,-0.5428,-0.5428,-0.5428,-0.5428,-0.5372,-0.5379,-0.5243,-0.3416,-0.2678,-0.2678,-0.2678,-0.2678,-0.2676,-0.2678,-0.383,-0.5343,-0.5346,-0.2965,-0.0,-0.0,-0.0,-0.0737,-0.4314,-0.4102,-0.3084,-0.4928,-0.5413,-0.4526,-0.0876,-0.0,-0.0,-0.0,-0.0,-0.0,-0.0,-0.0,-0.0,-0.0,-0.0,-0.0,-0.0,-0.0,-0.0,-0.0,-0.0,-0.0,-0.0,-0.0,0.0726,0.2542,0.438,0.5482,0.5767,0.6095,0.6315,0.6288,0.6295,0.6295,0.6295,0.6527,0.6607,0.6281,0.6513,0.6589,0.6589,0.6637,0.6617,0.6471,0.6471,0.6393,0.6338,0.6338,0.6338,0.6338,0.6338,0.6338,0.6278,0.6417,0.6566,0.6702,0.6702,0.765,0.8865,-0.8201,-0.9902,-1.1288,-1.1042,-1.1986,-1.2335,-1.0974,-1.0783,-1.034,-0.8993,-0.8112,-0.7513,-0.7238,-0.627,-0.5677,-0.5732,-0.5508,-0.5449,-0.5426,-0.5452,-0.5428,-0.5428,-0.5428,-0.5428,-0.5428,-0.5428,-0.5428,-0.5428,-0.5428,-0.5428,-0.5428,-0.5428,-0.5428,-0.5428,-0.5428,-0.5432,-0.5372,-0.5376,-0.5386,-0.5336,-0.4788,-0.3094,-0.0807,-0.0807,-0.0797,-0.0785,-0.0801,-0.1129,-0.1639,-0.1605,-0.0876,-0.0,-0.0,-0.0,-0.0201,-0.1278,-0.303,-0.4724,-0.5225,-0.5378,-0.4513,-0.0881,-0.0,-0.0,-0.0,-0.0,-0.0,-0.0,-0.0,-0.0,-0.0,-0.0,-0.0,-0.0,-0.0,-0.0,-0.0,-0.0,-0.0,-0.0,-0.0,0.1382,0.4854,0.5717,0.6046,0.615,0.6227,0.6318,0.6271,0.6271,0.6271,0.6271,0.6393,0.6393,0.6268,0.6606,0.663,0.6414,0.6474,0.6464,0.6325,0.6325,0.6302,0.6338,0.6338,0.6338,0.6338,0.6338,0.6318,0.6413,0.6458,0.7197,0.8026,0.7197,0.7752,0.8794,-0.9016,-1.0558,-1.163,-1.1379,-1.215,-1.2335,-1.0974,-1.0783,-1.0375,-0.9239,-0.8599,-0.8009,-0.7535,-0.6718,-0.6102,-0.5785,-0.5555,-0.5426,-0.5432,-0.5428,-0.5428,-0.5428,-0.5752,-0.5947,-0.5947,-0.5947,-0.5947,-0.5947,-0.5557,-0.5428,-0.5428,-0.5428,-0.5428,-0.5428,-0.5428,-0.5369,-0.5376,-0.4631,-0.4776,-0.5276,-0.3845,-0.1954,-0.0,-0.0,-0.0,-0.0,-0.0,-0.0,-0.0,-0.0,-0.0,-0.0,-0.0,-0.0,-0.0,-0.0,-0.1549,-0.3238,-0.3246,-0.3287,-0.2761,-0.0542,-0.0,-0.0,-0.0,-0.0,-0.0,-0.0,-0.0,-0.0,-0.0,-0.0,-0.0,-0.0,-0.0,-0.0,-0.0,-0.0,-0.0,-0.0,0.1492,0.3461,0.6087,0.5517,0.5349,0.621,0.6278,0.6268,0.6338,0.6338,0.6338,0.6338,0.6315,0.6318,0.6338,0.6582,0.661,0.6346,0.6491,0.6485,0.6342,0.6342,0.6315,0.6264,0.6322,0.6342,0.6349,0.641,0.6485,0.6651,0.7193,0.7915,0.87,0.8439,0.862,0.8803,-0.968,-1.0809,-1.1538,-1.1218,-1.2018,-1.2303,-1.1123,-1.0932,-1.0473,-0.9291,-0.9293,-0.8886,-0.7384,-0.7242,-0.6846,-0.5807,-0.5645,-0.5511,-0.5435,-0.5428,-0.5428,-0.5428,-0.6268,-0.6719,-0.6719,-0.6785,-0.6785,-0.6719,-0.5881,-0.5495,-0.5428,-0.5428,-0.5428,-0.5428,-0.5415,-0.5415,-0.5289,-0.3462,-0.3538,-0.4643,-0.1342,-0.0,-0.0,-0.0,-0.0202,-0.047,-0.0471,-0.0269,-0.0,-0.0,-0.0,-0.0,-0.0,-0.0,-0.0,-0.0,-0.0,-0.0,-0.0,-0.0,-0.0,-0.0,-0.0,-0.0,-0.0,-0.0,-0.0,-0.0,-0.0,-0.0,-0.0,-0.0,-0.0,-0.0,-0.0,-0.0,-0.0,-0.0,0.0157,0.055,0.3936,0.6329,0.6325,0.455,0.4219,0.6119,0.6268,0.6338,0.6338,0.6338,0.6338,0.6338,0.6386,0.639,0.6264,0.639,0.6454,0.6454,0.6597,0.6586,0.6454,0.6454,0.6383,0.6345,0.6396,0.6454,0.6464,0.6617,0.6678,0.6778,0.8026,0.8607,0.8883,1.0014,0.9836,0.9065,-1.0835,-1.1744,-1.2505,-1.2439,-1.2401,-1.2297,-1.2009,-1.1996,-1.1896,-1.1611,-1.0809,-1.0147,-0.9685,-0.8125,-0.6988,-0.6672,-0.5876,-0.5463,-0.5428,-0.5428,-0.5428,-0.5428,-0.6268,-0.6719,-0.6719,-0.7372,-0.7372,-0.6719,-0.6527,-0.6075,-0.5428,-0.5428,-0.5428,-0.5422,-0.5237,-0.526,-0.527,-0.3484,-0.2099,-0.1107,-0.0326,-0.0,-0.0,-0.0,-0.1731,-0.4211,-0.4225,-0.2391,-0.0,-0.0,-0.0,-0.0,-0.0,-0.0,-0.0,-0.0,-0.0,-0.0,-0.0,-0.0,-0.0,-0.0,-0.0,-0.0,-0.0,-0.0,-0.0,-0.0,-0.0,-0.0,-0.0,-0.0,-0.0,-0.0,-0.0,-0.0,-0.0,-0.0,0.1256,0.457,0.5767,0.6322,0.6305,0.5889,0.5796,0.6264,0.6264,0.6338,0.6338,0.6338,0.6338,0.6338,0.6291,0.6291,0.6338,0.6291,0.6305,0.6308,0.6339,0.6339,0.6305,0.6305,0.6288,0.6342,0.6291,0.6305,0.6318,0.6461,0.6522,0.663,0.707,0.7854,0.8713,0.9165,0.9666,1.0269,-1.1645,-1.2045,-1.2405,-1.2405,-1.2084,-1.1884,-1.1884,-1.2004,-1.2044,-1.1904,-1.1631,-1.1044,-1.016,-0.8805,-0.7477,-0.6289,-0.5737,-0.5428,-0.5428,-0.5428,-0.5428,-0.5428,-0.6268,-0.6719,-0.6719,-0.7567,-0.7567,-0.6719,-0.6268,-0.5815,-0.5428,-0.5428,-0.5428,-0.5422,-0.5199,-0.5078,-0.5018,-0.3365,-0.1628,-0.0,-0.0,-0.0,-0.0,-0.0,-0.1203,-0.3049,-0.4788,-0.3076,-0.0,-0.0,-0.0,-0.0,-0.0,-0.0,-0.0,-0.0,-0.0,-0.0,-0.0,-0.0,-0.0,-0.0,-0.0,-0.0,-0.0,-0.0,-0.0,-0.0,-0.0,-0.0,-0.0,0.1635,0.2987,0.2987,0.2117,0.1488,0.1488,0.1488,0.2271,0.4477,0.5668,0.6298,0.6281,0.6274,0.6268,0.6338,0.6338,0.6338,0.6338,0.6338,0.6338,0.6338,0.6338,0.6291,0.6363,0.6363,0.6363,0.6363,0.6291,0.6338,0.6338,0.6338,0.6298,0.6363,0.6363,0.6444,0.6586,0.6661,0.6692,0.6788,0.7451,0.8102,0.8789,0.9393,1.0005,1.0611,-1.2012,-1.1957,-1.181,-1.1864,-1.1623,-1.1443,-1.149,-1.1663,-1.1703,-1.1456,-1.185,-1.1566,-1.0062,-0.931,-0.802,-0.5841,-0.562,-0.5557,-0.5428,-0.5428,-0.5428,-0.5428,-0.6075,-0.6461,-0.6461,-0.7177,-0.7246,-0.6719,-0.5943,-0.5557,-0.5428,-0.5428,-0.5428,-0.5422,-0.5176,-0.4971,-0.4712,-0.3503,-0.2039,-0.0447,-0.0448,-0.0458,-0.0471,-0.0471,-0.0673,-0.1347,-0.4336,-0.3437,-0.0804,-0.0202,-0.0,-0.0,-0.0,-0.0,-0.0,-0.0,-0.0,-0.0,-0.0,-0.0,-0.0,-0.0,-0.0,-0.0,-0.0,-0.0,-0.0,-0.0,-0.0,-0.0,-0.0,0.3461,0.6329,0.6329,0.4792,0.3673,0.3673,0.3673,0.3673,0.3671,0.5243,0.6281,0.6295,0.6298,0.6308,0.6335,0.6312,0.6298,0.6298,0.6298,0.6285,0.6338,0.6312,0.638,0.6471,0.6498,0.6512,0.6508,0.6393,0.6312,0.6338,0.6285,0.6363,0.6471,0.6471,0.663,0.6892,0.6919,0.6912,0.6977,0.8041,0.8381,0.8526,0.9733,1.0364,1.0605,-1.1527,-1.151,-1.1563,-1.1824,-1.1623,-1.151,-1.177,-1.1623,-1.147,-1.143,-1.1496,-1.1334,-1.0896,-0.9878,-0.8489,-0.6662,-0.6523,-0.6203,-0.5425,-0.5428,-0.5428,-0.5428,-0.5491,-0.5557,-0.5557,-0.5686,-0.6079,-0.6719,-0.6593,-0.6137,-0.5428,-0.5428,-0.5428,-0.5415,-0.507,-0.489,-0.4758,-0.4426,-0.3521,-0.235,-0.2352,-0.2365,-0.2344,-0.2344,-0.3293,-0.4727,-0.5199,-0.5061,-0.4189,-0.1069,-0.0,-0.0,-0.0,-0.0,-0.0,-0.0,-0.0,-0.0,-0.0,-0.0,-0.0,-0.0,-0.0,-0.0,-0.0,-0.0,-0.0,-0.0,-0.0,-0.0,-0.0,0.3461,0.6329,0.6329,0.6071,0.5892,0.5892,0.5892,0.5889,0.5879,0.6109,0.6312,0.643,0.6444,0.6498,0.663,0.6519,0.6444,0.6444,0.6444,0.6386,0.6342,0.6508,0.6586,0.6474,0.6603,0.6668,0.6668,0.6651,0.6508,0.6342,0.6386,0.6454,0.6471,0.6471,0.6569,0.6742,0.6875,0.6851,0.6756,0.718,0.7205,0.7282,0.862,0.9726,1.058,-1.145,-1.1296,-1.1223,-1.1356,-1.1136,-1.0989,-1.1182,-1.1162,-1.1182,-1.1182,-1.1323,-1.1316,-1.1022,-0.9545,-0.7897,-0.6141,-0.5943,-0.5815,-0.5428,-0.5428,-0.5428,-0.5428,-0.5428,-0.5428,-0.5428,-0.5428,-0.5512,-0.58,-0.58,-0.561,-0.523,-0.5152,-0.5155,-0.522,-0.4925,-0.4792,-0.4726,-0.4572,-0.4243,-0.388,-0.4133,-0.4218,-0.4231,-0.4236,-0.4721,-0.5138,-0.3096,-0.2404,-0.2123,-0.0537,-0.0,-0.0,-0.0,-0.0,-0.0,-0.0,-0.0,-0.0,-0.0,-0.0,-0.0,-0.0,-0.0,-0.0,-0.0,-0.0,-0.0,-0.0,-0.0,0.0707,0.3066,0.4086,0.487,0.6139,0.6288,0.6278,0.6278,0.6278,0.6274,0.6271,0.6264,0.6318,0.6458,0.6471,0.6536,0.6688,0.6637,0.66,0.66,0.66,0.6569,0.6508,0.663,0.6709,0.6725,0.6793,0.6827,0.6827,0.6909,0.6793,0.6505,0.6481,0.6566,0.6719,0.6546,0.6654,0.6946,0.6936,0.6888,0.6841,0.697,0.6983,0.6946,0.761,0.8623,0.9653]},{"header":{"parameterUnit":"m.s-1","parameterCategory":1,"la1":30.6,"la2":28.766,"lo1":-90.7593,"lo2":-88.6598,"dy":0.0162,"dx":0.0183,"nx":116,"ny":114,"refTime":"2023-08-11T06:00:00:Z","depth":0,"parameterNumber":3,"parameterNumberName":"V-component_of_WINDS"},"data":[0.0,0.0,0.0,0.0,0.0,0.0,0.0,0.0,0.0,0.0,0.0,0.0,0.0,0.0,0.0,0.0,0.0,0.0,0.0,0.0,0.0,0.0,0.0,0.0,0.0,0.0,0.0,0.0,0.0,0.0,0.0,0.0,0.0,0.0,0.0,0.0,0.0,0.0,0.0,0.0,0.0,0.0,0.0,0.0,0.0,0.0,0.0,0.0,0.0,0.0,0.0,0.0,0.0,0.0,0.0,0.0,0.0,0.0,0.0,0.0,0.0,0.0,0.0,0.0,0.0,0.0,0.0,0.0,0.0,0.0,0.0,0.0,0.0,0.0,0.0,0.0,0.0,0.0,0.0,0.0,0.0,0.0,0.0,0.0,0.0,0.0,0.0,0.0,0.0,0.0,0.0,0.0,0.0,0.0,0.0,0.0,0.0,0.0,0.0,0.0,0.0,0.0,0.0,0.0,0.0,0.0,0.0,0.0,0.0,0.0,0.0,0.0,0.0,0.0,0.0,0.0,0.0,0.0,0.0,0.0,0.0,0.0,0.0,0.0,0.0,0.0,0.0,0.0,0.0,0.0,0.0,0.0,0.0,0.0,0.0,0.0,0.0,0.0,0.0,0.0,0.0,0.0,0.0,0.0,0.0,0.0,0.0,0.0,0.0,0.0,0.0,0.0,0.0,0.0,0.0,0.0,0.0,0.0,0.0,0.0,0.0,0.0,0.0,0.0,0.0,0.0,0.0,0.0,0.0,0.0,0.0,0.0,0.0,0.0,0.0,0.0,0.0,0.0,0.0,0.0,0.0,0.0,0.0,0.0,0.0,0.0,0.0,0.0,0.0,0.0,0.0,0.0,0.0,0.0,0.0,0.0,0.0,0.0,0.0,0.0,0.0,0.0,0.0,0.0,0.0,0.0,0.0,0.0,0.0,0.0,0.0,0.0,0.0,0.0,0.0,0.0,0.0,0.0,0.0,0.0,0.0,0.0,0.0,0.0,0.0,0.0,0.0,0.0,0.0,0.0,0.0,0.0,0.0,0.0,0.0,0.0,0.0,0.0,0.0,0.0,0.0,0.0,0.0,0.0,0.0,0.0,0.0,0.0,0.0,0.0,0.0,0.0,0.0,0.0,0.0,0.0,0.0,0.0,0.0,0.0,0.0,0.0,0.0,0.0,0.0,0.0,0.0,0.0,0.0,0.0,0.0,0.0,0.0,0.0,0.0,0.0,0.0,0.0,0.0,0.0,0.0,0.0,0.0,0.0,0.0,0.0,0.0,0.0,0.0,0.0,0.0,0.0,0.0,0.0,0.0,0.0,0.0,0.0,0.0,0.0,0.0,0.0,0.0,0.0,0.0,0.0,0.0,0.0,0.0,0.0,0.0,0.0,0.0,0.0,0.0,0.0,0.0,0.0,0.0,0.0,0.0,0.0,0.0,0.0,0.0,0.0,0.0,0.0,0.0,0.0,0.0,0.0,0.0,0.0,0.0,0.0,0.0,0.0,0.0,0.0,0.0,0.0,0.0,0.0,0.0,0.0,0.0,0.0,0.0,0.0,0.0,0.0,0.0,0.0,0.0,0.0,0.0,0.0,0.0,0.0,0.0,0.0,0.0,0.0,0.0,0.0,0.0,0.0,0.0,0.0,0.0,0.0,0.0,0.0,0.0,0.0,0.0,0.0,0.0,0.0,0.0,0.0,0.0,0.0,0.0,0.0,0.0,0.0,0.0,0.0,0.0,0.0,0.0,0.0,0.0,0.0,0.0,0.0,0.0,0.0,0.0,0.0,0.0,0.0,0.0,0.0,0.0,0.0,0.0,0.0,0.0,0.0,0.0,0.0,0.0,0.0,0.0,0.0,0.0,0.0,0.0,0.0,0.0,0.0,0.0,0.0,0.0,0.0,0.0,0.0,0.0,0.0,0.0,0.0,0.0,0.0,0.0,0.0,0.0,0.0,0.0,0.0,0.0,0.0,0.0,0.0,0.0,0.0,0.0,0.0,0.0,0.0,0.0,0.0,0.0,0.0,0.0,0.0,0.0,0.0,0.0,0.0,0.0,0.0,0.0,0.0,0.0,0.0,0.0,0.0,0.0,0.0,0.0,0.0,0.0,0.0,0.0,0.0,0.0,0.0,0.0,0.0,0.0,0.0,0.0,0.0,0.0,0.0,0.0,0.0,0.0,0.0,0.0,0.0,0.0,0.0,0.0,0.0,0.0,0.0,0.0,0.0,0.0,0.0,0.0,0.0,0.0,0.0,0.0,0.0,0.0,0.0,0.0,0.0,0.0,0.0,0.0,0.0,0.0,0.0,0.0,0.0,0.0,0.0,0.0,0.0,0.0,0.0,0.0,0.0,0.0,0.0,0.0,0.0,0.0,0.0,0.0,0.0,0.0,0.0,0.0,0.0,0.0,0.0,0.0,0.0,0.0,0.0,0.0,0.0,0.0,0.0,0.0,0.0,0.0,0.0,0.0,0.0,0.0,0.0,0.0,0.0,0.0,0.0,0.0,0.0,0.0,0.0,0.0,0.0,0.0,0.0,0.0,0.0,0.0,0.0,0.0,0.0,0.0,0.0,0.0,0.0,0.0,0.0,0.0,0.0,0.0,0.0,0.0,0.0,0.0,0.0,0.0,0.0,0.0,0.0,0.0,0.0,0.0,0.0,0.0,0.0,0.0,0.0,0.0,0.0,0.0,0.0,0.0,0.0,0.0,0.0,0.0,0.0,0.0,0.0,0.0,0.0,0.0,0.0,0.0,0.0,0.0,0.0,0.0,0.0,0.0,0.0,0.0,0.0,0.0,0.0,0.0,0.0,0.0,0.0,0.0,0.0,0.0,0.0,0.0,0.0,0.0,0.0,0.0,0.0,0.0,0.0,0.0,0.0,0.0,0.0,0.0,0.0,0.0,0.0,0.0,0.0,0.0,0.0,0.0,0.0,0.0,0.0,0.0,0.0,0.0,0.0,0.0,0.0,0.0,0.0,0.0,0.0,0.0,0.0,0.0,0.0,0.0,0.0,0.0,0.0,0.0,0.0,0.0,0.0,0.0,0.0,0.0,0.0,0.0,0.0,0.0,0.0,0.0,0.0,0.0,0.0,0.0,0.0,0.0,0.0,0.0,0.0,0.0,0.0,0.0,0.0,0.0,0.0,0.0,0.0,0.0,0.0,0.0,0.0,0.0,0.0,0.0,0.0,0.0,0.0,0.0,0.0,0.0,0.0,0.0,0.0,0.0,0.0,0.0,0.0,0.0,0.0,0.0,0.0,0.0,0.0,0.0,0.0,0.0,0.0,0.0,0.0,0.0,0.0,0.0,0.0,0.0,0.0,0.0,0.0,0.0,0.0,0.0,0.0,0.0,0.0,0.0,0.0,0.0,0.0,0.0,0.0,0.0,0.0,0.0,0.0,0.0,0.0,0.0,0.0,0.0,0.0,0.0,0.0,0.0,0.0,0.0,0.0,0.0,0.0,0.0,0.0,0.0,0.0,0.0,0.0,0.0,0.0,0.0,0.0,0.0,0.0,0.0,0.0,0.0,0.0,0.0,0.0,0.0,0.0,0.0,0.0,0.0,0.0,0.0,0.0,0.0,0.0,0.0,0.0,0.0,0.0,0.0,0.0,0.0,0.0,0.0,0.0,0.0,0.0,0.0,0.0,0.0,0.0,0.0,0.0,0.0,0.0,0.0,0.0,0.0,0.0,0.0,0.0,0.0,0.0,0.0,0.0,0.0,0.0,0.0,0.0,0.0,0.0,0.0,0.0,0.0,0.0,0.0,0.0,0.0,0.0,0.0,0.0,0.0,0.0,0.0,0.0,0.0,0.0,0.0,0.0,0.0,0.0,0.0,0.0,0.0,0.0,0.0,0.0,0.0,0.0,0.0,0.0,0.0,0.0,0.0,0.0,0.0,0.0,0.0,0.0,0.0,0.0,0.0,0.0,0.0,0.0,0.0,0.0,0.0,0.0,0.0,0.0,0.0,0.0,0.0,0.0,0.0,0.0,0.0,0.0,0.0,0.0,0.0,0.0,0.0,0.0,0.0,0.0,0.0,0.0,0.0,0.0,0.0,0.0,0.0,0.0,0.0,0.0,0.0,0.0,0.0,0.0,0.0,0.0,0.0,0.0,0.0,0.0,0.0,0.0,0.0,0.0,0.0,0.0,0.0,0.0,0.0,0.0,0.0,0.0,0.0,0.0,0.0,0.0,0.0,0.0,0.0,0.0,0.0,0.0,0.0,0.0,0.0,0.0,0.0,0.0,0.0,0.0,0.0,0.0,0.0,0.0,0.0,0.0,0.0,0.0,0.0,0.0,0.0,0.0,0.0,0.0,0.0,0.0,0.0,0.0,0.0,0.0,0.0,0.0,0.0,0.0,0.0,0.0,0.0,0.0,0.0,0.0,0.0,0.0,0.0,0.0,0.0,0.0,0.0,0.0,0.0,0.0,0.0,0.0,0.0,0.0,0.0,0.0,0.0,0.0,0.0,0.0,0.0,0.0,0.0,0.0,0.0,0.0,0.0,0.0,0.0,0.0,0.0,0.0,0.0,0.0,0.0,0.0,0.0,0.0,0.0,0.0,0.0,0.0,0.0,0.0,0.0,0.0,0.0,0.0,0.0,0.0,0.0,0.0,0.0,0.0,0.0,0.0,0.0,0.0,0.0,0.0,0.0,0.0,0.0,0.0,0.0,0.0,0.0,0.0,0.0,0.0,0.0,0.0,0.0,0.0,0.0,0.0,0.0,0.0,0.0,0.0,0.0,0.0,0.0,0.0,0.0,0.0,0.0,0.0,0.0,0.0,0.0,0.0,0.0,0.0,0.0,0.0,0.0,0.0,0.0,0.0,0.0,0.0,0.0,0.0,0.0,0.0,0.0,0.0,0.0,0.0,0.0,0.0,0.0,0.0,0.0,0.0,0.0,0.0,0.0,0.0,0.0,0.0,0.0,0.0,0.0,0.0,0.0,0.0,0.0,0.0,0.0,0.0,0.0,0.0,0.0,0.0,0.0,0.0,0.0,0.0,0.0,0.0,0.0,0.0,0.0,0.0,0.0,0.0,0.0,0.0,0.0,0.0,0.0,0.0,0.0,0.0,0.0,0.0,0.0,0.0,0.0,0.0,0.0,0.0,0.0,0.0,0.0,0.0,0.0,0.0,0.0,0.0,0.0,0.0,0.0,0.0,0.0,0.0,0.0,0.0,0.0,0.0,0.0,0.0,0.0,0.0,0.0,0.0,0.0,0.0,0.0,0.0,0.0,0.0,0.0,0.0,0.0,0.0,0.0,0.0,0.0,0.0,0.0,0.0,0.0,0.0,0.0,0.0,0.0,0.0,0.0,0.0,0.0,0.0,0.0,0.0,0.0,0.0,0.0,0.0,0.0,0.0,0.0,0.0,0.0,0.0,0.0,0.0,0.0,0.0,0.0,0.0,0.0,0.0,0.0,0.0,0.0,0.0,0.0,0.0,0.0,0.0,0.0,0.0,0.0,0.0,0.0,0.0,0.0,0.0,0.0,0.0,0.0,0.0,0.0,0.0,0.0,0.0,0.0,0.0,0.0,0.0,0.0,0.0,0.0,0.0,0.0,0.0,0.0,0.0,0.0,0.0,0.0,0.0,0.0,0.0,0.0,0.0,0.0,0.0,0.0,0.0,0.0,0.0,0.0,0.0,0.0,0.0,0.0,0.0,0.0,0.0,0.0,0.0,0.0,0.0,0.0,0.0,0.0,0.0,0.0,0.0,0.0,0.0,0.0,0.0,0.0,0.0,0.0,0.0,0.0,0.0,0.0,0.0,0.0,0.0,0.0,0.0,0.0,0.0,0.0,0.0,0.0,0.0,0.0,0.0,0.0,0.0,0.0,0.0,0.0,0.0,0.0,0.0,0.0,0.0,0.0,0.0,0.0,0.0,0.0,0.0,0.0,0.0,0.0,0.0,0.0,0.0,0.0,0.0,0.0,0.0,0.0,0.0,0.0,0.0,0.0,0.0,0.0,0.0,0.0,0.0,0.0,0.0,0.0,0.0,0.0,0.0,0.0,0.0,0.0,0.0,0.0,0.0,0.0,0.0,0.0,0.0,0.0,0.0,0.0,0.0,0.0,0.0,0.0,0.0,0.0,0.0,-3.4542,-3.3355,0.0,0.0,0.0,0.0,0.0,0.0,0.0,0.0,0.0,0.0,0.0,0.0,0.0,0.0,0.0,0.0,0.0,0.0,0.0,0.0,0.0,0.0,0.0,0.0,0.0,0.0,0.0,0.0,0.0,0.0,0.0,0.0,0.0,0.0,0.0,0.0,0.0,0.0,0.0,0.0,0.0,0.0,0.0,0.0,0.0,0.0,0.0,0.0,0.0,0.0,0.0,0.0,0.0,0.0,0.0,0.0,0.0,0.0,0.0,0.0,0.0,0.0,0.0,0.0,0.0,0.0,0.0,0.0,0.0,0.0,0.0,0.0,0.0,0.0,0.0,0.0,0.0,0.0,0.0,0.0,0.0,0.0,0.0,0.0,0.0,0.0,0.0,0.0,0.0,0.0,0.0,0.0,0.0,0.0,0.0,0.0,0.0,0.0,0.0,0.0,0.0,0.0,0.0,0.0,0.0,0.0,0.0,0.0,0.0,0.0,0.0,0.0,0.0,0.0,-3.6689,-3.5781,0.0,0.0,0.0,0.0,0.0,0.0,0.0,0.0,0.0,0.0,0.0,0.0,0.0,0.0,0.0,0.0,0.0,0.0,0.0,0.0,0.0,0.0,0.0,0.0,0.0,0.0,0.0,0.0,0.0,0.0,0.0,0.0,0.0,0.0,0.0,0.0,0.0,0.0,0.0,0.0,0.0,0.0,0.0,0.0,0.0,0.0,0.0,0.0,0.0,0.0,0.0,0.0,0.0,0.0,0.0,0.0,0.0,0.0,0.0,0.0,0.0,0.0,0.0,0.0,0.0,0.0,0.0,0.0,0.0,0.0,0.0,0.0,0.0,0.0,0.0,0.0,0.0,0.0,0.0,0.0,0.0,0.0,0.0,0.0,0.0,0.0,0.0,0.0,0.0,0.0,0.0,0.0,0.0,0.0,0.0,0.0,0.0,0.0,0.0,0.0,0.0,0.0,0.0,0.0,0.0,0.0,0.0,0.0,-4.012,-4.0146,-3.9858,-3.9958,-3.9869,-3.9639,-3.9305,-3.8894,-3.8465,-3.8584,0.0,0.0,0.0,0.0,0.0,0.0,0.0,0.0,0.0,0.0,0.0,0.0,0.0,0.0,0.0,0.0,0.0,0.0,0.0,0.0,0.0,0.0,0.0,0.0,0.0,0.0,0.0,0.0,0.0,0.0,0.0,0.0,0.0,0.0,0.0,0.0,0.0,0.0,0.0,0.0,0.0,0.0,0.0,0.0,0.0,0.0,0.0,0.0,0.0,0.0,0.0,0.0,0.0,0.0,0.0,0.0,0.0,0.0,0.0,0.0,0.0,0.0,0.0,0.0,0.0,0.0,0.0,0.0,0.0,0.0,0.0,0.0,0.0,0.0,0.0,0.0,0.0,0.0,0.0,0.0,0.0,0.0,0.0,0.0,0.0,0.0,-3.7126,-3.7943,0.0,0.0,0.0,0.0,0.0,0.0,0.0,0.0,0.0,0.0,0.0,0.0,0.0,-3.9584,-3.9517,-4.0865,-4.123,-4.066,-4.2502,-4.2696,-4.1344,-4.1748,-4.1889,-4.1889,-4.2117,0.0,-3.9025,-3.8545,0.0,0.0,0.0,0.0,0.0,0.0,0.0,0.0,0.0,0.0,0.0,0.0,0.0,0.0,0.0,0.0,0.0,0.0,0.0,0.0,0.0,0.0,0.0,0.0,0.0,0.0,0.0,0.0,0.0,0.0,0.0,0.0,0.0,0.0,0.0,0.0,0.0,0.0,0.0,0.0,0.0,0.0,0.0,0.0,0.0,0.0,0.0,0.0,0.0,0.0,0.0,0.0,0.0,0.0,0.0,0.0,0.0,0.0,0.0,0.0,0.0,0.0,0.0,0.0,0.0,0.0,0.0,0.0,0.0,0.0,0.0,0.0,0.0,0.0,0.0,0.0,0.0,0.0,0.0,0.0,0.0,0.0,0.0,0.0,0.0,-3.6625,-3.7125,-3.7012,-3.7128,-3.7019,0.0,0.0,0.0,0.0,0.0,0.0,0.0,0.0,0.0,-3.997,-4.014,-4.0584,-4.137,-4.2109,-4.251,-4.2614,-4.3783,-4.3961,-4.3286,-4.3521,-4.3583,-4.3583,-4.3737,-4.3333,-4.2456,-4.1696,-4.1447,-4.1456,0.0,0.0,0.0,0.0,-4.203,-4.2844,0.0,0.0,0.0,0.0,0.0,0.0,0.0,0.0,0.0,0.0,0.0,0.0,0.0,0.0,0.0,0.0,0.0,0.0,0.0,0.0,0.0,0.0,0.0,0.0,0.0,0.0,0.0,0.0,0.0,0.0,0.0,0.0,0.0,0.0,0.0,0.0,0.0,0.0,0.0,0.0,0.0,0.0,0.0,0.0,0.0,0.0,0.0,0.0,0.0,0.0,0.0,0.0,0.0,0.0,0.0,0.0,0.0,0.0,0.0,0.0,0.0,0.0,0.0,0.0,0.0,0.0,0.0,0.0,0.0,0.0,0.0,0.0,0.0,0.0,0.0,0.0,0.0,-3.7502,-3.7649,-3.6955,-3.762,-3.7797,0.0,0.0,0.0,0.0,0.0,0.0,-3.9391,-3.9908,-4.0547,-4.1278,-4.137,-4.195,-4.3111,-4.322,-4.3577,-4.4146,-4.4474,-4.458,-4.458,-4.458,-4.458,-4.4606,-4.4682,-4.4872,-4.5039,-4.416,-4.3632,-4.3292,-4.2672,-4.297,-4.3701,-4.3489,-4.4066,-4.5124,0.0,0.0,0.0,0.0,0.0,0.0,0.0,0.0,0.0,0.0,0.0,0.0,0.0,0.0,0.0,0.0,0.0,0.0,0.0,0.0,0.0,0.0,0.0,0.0,0.0,0.0,0.0,0.0,0.0,0.0,0.0,0.0,0.0,0.0,0.0,0.0,0.0,0.0,0.0,0.0,0.0,0.0,0.0,0.0,0.0,0.0,0.0,0.0,0.0,0.0,0.0,0.0,0.0,0.0,0.0,0.0,0.0,0.0,0.0,0.0,0.0,0.0,0.0,0.0,0.0,0.0,0.0,0.0,0.0,0.0,0.0,0.0,0.0,0.0,0.0,0.0,0.0,0.0,0.0,-3.9515,-4.018,0.0,0.0,0.0,0.0,-3.9918,-3.9962,-4.0163,-4.0678,-4.145,-4.2123,-4.2683,-4.3782,-4.4242,-4.3942,-4.4317,-4.4542,-4.4553,-4.458,-4.458,-4.458,-4.458,-4.458,-4.4606,-4.4943,-4.5074,-4.5039,-4.416,-4.444,-4.5374,-4.4509,-4.4701,-4.5355,-4.4528,-4.5316,-4.6663,0.0,0.0,0.0,0.0,0.0,0.0,0.0,0.0,0.0,0.0,0.0,0.0,0.0,0.0,0.0,0.0,0.0,0.0,0.0,0.0,0.0,0.0,0.0,0.0,0.0,0.0,0.0,0.0,0.0,0.0,0.0,0.0,0.0,0.0,0.0,0.0,0.0,0.0,0.0,0.0,0.0,0.0,0.0,0.0,0.0,0.0,0.0,0.0,0.0,0.0,0.0,0.0,0.0,0.0,0.0,0.0,0.0,0.0,0.0,0.0,0.0,0.0,0.0,0.0,0.0,0.0,0.0,0.0,0.0,0.0,0.0,0.0,0.0,0.0,0.0,0.0,0.0,0.0,0.0,-4.0479,-4.1094,0.0,-4.0396,-4.0704,-4.1001,-4.1186,-4.1971,-4.2514,-4.2709,-4.334,-4.3747,-4.396,-4.4376,-4.4527,-4.4392,-4.4732,-4.4919,-4.4919,-4.514,-4.5243,-4.5243,-4.5319,-4.5357,-4.5378,-4.5534,-4.5592,-4.5573,-4.5266,-4.5379,-4.5699,-4.5391,-4.5488,-4.5757,-4.5449,-4.6429,-4.789,0.0,0.0,0.0,0.0,0.0,0.0,0.0,0.0,0.0,0.0,0.0,0.0,0.0,0.0,0.0,0.0,0.0,0.0,0.0,0.0,0.0,0.0,0.0,0.0,0.0,0.0,0.0,0.0,0.0,0.0,0.0,0.0,0.0,0.0,0.0,0.0,0.0,0.0,0.0,0.0,0.0,0.0,-3.4172,0.0,0.0,0.0,0.0,0.0,0.0,0.0,0.0,0.0,0.0,0.0,0.0,0.0,0.0,0.0,0.0,0.0,0.0,0.0,0.0,0.0,0.0,0.0,0.0,0.0,0.0,0.0,0.0,0.0,0.0,0.0,0.0,0.0,0.0,-4.1838,-4.2144,-4.1313,-4.2024,-4.2311,-4.1572,-4.2203,-4.2725,-4.2907,-4.373,-4.4173,-4.4083,-4.4405,-4.458,-4.458,-4.4707,-4.4776,-4.4776,-4.5096,-4.5263,-4.5263,-4.5533,-4.568,-4.568,-4.5776,-4.5841,-4.5849,-4.5887,-4.5907,-4.5907,-4.5907,-4.5908,-4.5909,-4.5862,-4.5868,-4.5907,-4.5907,-4.6999,-4.858,0.0,0.0,0.0,0.0,0.0,0.0,0.0,0.0,0.0,0.0,0.0,0.0,0.0,0.0,0.0,0.0,0.0,0.0,0.0,0.0,0.0,0.0,0.0,0.0,0.0,0.0,0.0,0.0,0.0,0.0,0.0,0.0,0.0,0.0,0.0,0.0,0.0,0.0,0.0,0.0,0.0,0.0,-3.6999,0.0,0.0,0.0,0.0,0.0,0.0,0.0,0.0,0.0,0.0,0.0,0.0,0.0,0.0,0.0,0.0,0.0,0.0,0.0,0.0,0.0,0.0,0.0,0.0,0.0,0.0,0.0,0.0,0.0,0.0,0.0,0.0,0.0,-4.3729,-4.3151,-4.2648,-4.2172,-4.3139,-4.3654,-4.3244,-4.3893,-4.4574,-4.5082,-4.5137,-4.4966,-4.4631,-4.4631,-4.465,-4.4669,-4.4981,-4.5175,-4.5213,-4.5534,-4.568,-4.5643,-4.5776,-4.5834,-4.5813,-4.5873,-4.5921,-4.5909,-4.5907,-4.5907,-4.5899,-4.5899,-4.5999,-4.6086,-4.5956,-4.5907,-4.5913,-4.5913,-4.6984,-4.8697,0.0,0.0,0.0,0.0,0.0,0.0,0.0,0.0,0.0,0.0,0.0,0.0,0.0,0.0,0.0,0.0,0.0,0.0,0.0,0.0,0.0,0.0,0.0,0.0,0.0,0.0,0.0,0.0,0.0,0.0,0.0,0.0,0.0,0.0,0.0,0.0,0.0,0.0,0.0,0.0,0.0,0.0,-3.7275,0.0,0.0,0.0,0.0,0.0,0.0,0.0,0.0,0.0,0.0,0.0,0.0,0.0,0.0,0.0,0.0,0.0,0.0,0.0,0.0,0.0,0.0,0.0,0.0,0.0,0.0,0.0,0.0,0.0,0.0,0.0,-4.4173,-4.5151,-4.4029,-4.4775,-4.5276,-4.483,-4.4737,-4.4927,-4.5373,-4.5304,-4.5299,-4.5457,-4.5457,-4.5419,-4.5342,-4.5322,-4.5609,-4.6241,-4.6455,-4.6839,-4.7415,-4.7604,-4.739,-4.6756,-4.6795,-4.6476,-4.5886,-4.6001,-4.6056,-4.6042,-4.6144,-4.6197,-4.6191,-4.6191,-4.6141,-4.6099,-4.6065,-4.6045,-4.6046,-4.6046,-4.6688,-4.7721,0.0,0.0,0.0,0.0,0.0,0.0,0.0,0.0,0.0,0.0,0.0,0.0,0.0,0.0,0.0,0.0,0.0,0.0,0.0,0.0,0.0,0.0,0.0,0.0,0.0,0.0,0.0,0.0,0.0,0.0,0.0,0.0,0.0,0.0,0.0,0.0,0.0,0.0,0.0,0.0,0.0,0.0,-3.8818,-3.9794,-4.0662,-4.1371,-4.153,-4.1765,-4.2018,-4.2018,0.0,0.0,0.0,0.0,0.0,0.0,0.0,0.0,0.0,0.0,0.0,0.0,0.0,0.0,0.0,0.0,0.0,0.0,0.0,0.0,0.0,0.0,0.0,0.0,-4.586,-4.6954,-4.5681,-4.5922,-4.6171,-4.6032,-4.5342,-4.5464,-4.6908,-4.6494,-4.6144,-4.6144,-4.6144,-4.6009,-4.5699,-4.568,-4.6103,-4.6989,-4.7104,-4.7535,-4.8377,-4.8468,-4.8255,-4.7752,-4.78,-4.7368,-4.6538,-4.6666,-4.6493,-4.61,-4.6186,-4.6175,-4.6129,-4.6129,-4.6084,-4.6016,0.0,0.0,0.0,0.0,-4.7388,-4.7863,0.0,0.0,0.0,0.0,0.0,0.0,0.0,0.0,0.0,0.0,0.0,0.0,0.0,0.0,0.0,0.0,0.0,0.0,0.0,0.0,0.0,0.0,0.0,0.0,0.0,0.0,0.0,0.0,0.0,0.0,0.0,0.0,0.0,0.0,0.0,0.0,0.0,0.0,0.0,0.0,0.0,0.0,-4.0498,-4.0886,-4.1964,-4.3197,-4.2634,-4.2946,-4.3617,-4.3617,0.0,0.0,0.0,0.0,0.0,0.0,0.0,0.0,0.0,0.0,0.0,0.0,0.0,0.0,0.0,0.0,0.0,0.0,0.0,0.0,0.0,0.0,0.0,0.0,-4.753,-4.9162,-4.7911,-4.6828,-4.6234,-4.6496,-4.5583,-4.5789,-4.7972,-4.7491,-4.7048,-4.7067,-4.7067,-4.674,-4.6007,-4.6059,0.0,0.0,0.0,-4.7925,-4.8808,-4.8814,-4.8779,-4.8694,-4.8813,-4.8406,-4.754,-4.7662,-4.724,-4.6364,-4.6273,-4.6158,-4.6037,-4.594,-4.5901,-4.589,-4.602,-4.5979,-4.6085,-4.7722,-4.8259,-4.8316,0.0,0.0,0.0,0.0,0.0,0.0,0.0,0.0,0.0,0.0,0.0,0.0,0.0,0.0,0.0,0.0,0.0,0.0,0.0,0.0,0.0,0.0,0.0,0.0,0.0,0.0,0.0,0.0,0.0,0.0,0.0,0.0,0.0,0.0,0.0,0.0,0.0,0.0,0.0,0.0,0.0,0.0,-3.8684,-4.1434,-4.2534,-4.2746,-4.3935,-4.4652,-4.5009,-4.5009,-4.507,-4.515,-4.519,0.0,0.0,0.0,0.0,0.0,0.0,0.0,0.0,0.0,0.0,0.0,0.0,0.0,0.0,0.0,0.0,0.0,0.0,0.0,0.0,-4.7223,-4.8606,-4.9239,-4.8713,-4.8448,-4.8194,-4.795,-4.7365,-4.7457,-4.856,-4.8181,-4.7913,-4.8008,-4.8046,-4.7719,-4.6985,-4.7598,-4.8068,-4.8243,-4.9049,-4.9849,-5.0675,-5.0796,-5.0502,-4.9877,-4.9905,0.0,-4.8463,-4.8484,-4.8319,-4.7994,-4.7291,-4.6962,-4.6889,-4.6198,-4.5873,-4.5816,-4.5849,-4.5847,-4.5931,-4.6872,-4.6759,-4.6374,0.0,0.0,0.0,0.0,0.0,0.0,0.0,0.0,0.0,0.0,0.0,0.0,0.0,0.0,0.0,0.0,0.0,0.0,0.0,0.0,0.0,0.0,0.0,0.0,0.0,0.0,0.0,0.0,0.0,0.0,0.0,0.0,0.0,0.0,0.0,0.0,0.0,0.0,0.0,0.0,0.0,0.0,-3.8178,-4.1306,-4.2398,-4.2454,-4.4146,-4.4578,-4.4431,-4.4848,-4.5379,-4.5871,-4.59,-4.5899,-4.5714,0.0,0.0,0.0,0.0,0.0,0.0,0.0,0.0,0.0,0.0,0.0,0.0,0.0,0.0,-4.5889,-4.6617,0.0,-4.8491,-5.0086,-5.0991,-5.1433,-5.1272,-5.125,-5.0585,-4.8815,-4.8,-4.82,-4.971,-4.9239,-4.8913,-4.9029,-4.8639,-4.8261,-4.7983,-4.7947,-4.8379,-4.9313,-4.9834,-5.049,-5.1288,-5.1307,-5.1094,-5.0705,-5.0674,-5.0166,-4.9253,-4.9256,-4.8696,-4.7724,-4.7304,-4.6833,-4.6371,-4.593,-4.5738,-4.5699,-4.5699,-4.597,-4.6394,-4.6759,-4.6624,-4.6432,0.0,0.0,0.0,0.0,0.0,0.0,0.0,0.0,0.0,0.0,0.0,0.0,0.0,0.0,0.0,0.0,0.0,0.0,0.0,0.0,0.0,0.0,0.0,0.0,0.0,0.0,0.0,0.0,0.0,0.0,0.0,0.0,0.0,0.0,0.0,0.0,0.0,0.0,0.0,0.0,0.0,0.0,-3.8264,-4.0821,-4.1855,-4.2107,-4.3603,-4.3837,-4.354,-4.4229,-4.5001,-4.5678,-4.5889,-4.6286,-4.6504,-4.5367,-4.6356,0.0,0.0,0.0,0.0,0.0,0.0,0.0,0.0,-4.735,-4.7961,-4.8867,-4.9629,-5.0234,-5.0664,-5.1315,-5.197,-5.2556,-5.3179,-5.3604,-5.3604,-5.3604,-5.2645,-5.0102,-4.9037,-4.9154,-5.0779,-5.0314,-4.9928,-5.0067,-4.9408,-4.9006,-4.8991,-4.8474,-4.8786,-5.0113,-5.0301,-5.0702,-5.134,-5.1236,-5.1181,-5.1164,-5.1131,-5.0717,-5.0013,-5.0019,-4.9183,-4.7702,-4.7548,-4.6932,-4.6086,-4.6086,-4.599,-4.5836,-4.5836,-4.6182,-4.6644,-4.6644,-4.6759,-4.7028,0.0,0.0,0.0,0.0,0.0,0.0,0.0,0.0,0.0,0.0,0.0,0.0,0.0,0.0,0.0,0.0,0.0,0.0,0.0,0.0,0.0,0.0,0.0,0.0,0.0,0.0,0.0,0.0,0.0,0.0,0.0,0.0,0.0,0.0,0.0,0.0,0.0,0.0,0.0,0.0,0.0,0.0,-3.8427,-4.0143,-4.0963,-4.1314,-4.2249,-4.3138,-4.3946,-4.402,-4.4535,-4.5219,-4.5879,-4.5793,-4.5469,-4.5866,0.0,-4.5114,-4.4674,-4.4957,-4.6058,-4.8808,-4.8769,-4.922,0.0,-5.3635,-5.2979,-5.4038,-5.4336,-5.4199,-5.3496,-5.3454,-5.3502,-5.3458,-5.3544,-5.3591,-5.3591,-5.3591,-5.3475,-5.3122,-5.2302,-5.1607,-5.1126,-5.0995,-5.0953,-5.1048,-5.0933,-5.0635,-5.0064,-5.0617,-5.0672,-5.0036,-5.0713,-5.1097,-5.1131,-5.1113,-5.112,-5.1106,-5.1106,-5.0989,-5.0777,-5.0779,-5.0587,-5.024,-4.9471,-4.8625,-4.7817,-4.7817,-4.7394,-4.6759,-4.6759,-4.6336,-4.574,-4.574,-4.624,-4.7028,0.0,0.0,0.0,0.0,0.0,0.0,0.0,0.0,0.0,0.0,0.0,0.0,0.0,0.0,0.0,0.0,0.0,0.0,0.0,0.0,0.0,0.0,0.0,0.0,0.0,0.0,0.0,0.0,0.0,0.0,0.0,0.0,0.0,0.0,0.0,0.0,0.0,0.0,0.0,0.0,0.0,0.0,-3.9005,-3.9658,-4.0277,-4.0883,-4.1227,-4.1561,0.0,0.0,-4.2759,-4.3723,-4.414,-4.4165,-4.4029,-4.4204,-4.4409,0.0,-4.5068,-4.6392,-4.7889,-4.8753,-5.0126,-5.1825,-5.4246,-5.4689,-5.4954,-5.6185,-5.6845,-5.7083,-5.6732,-5.6654,-5.6458,-5.5905,-5.6239,-5.6393,-5.5885,-5.5809,-5.5616,-5.5128,-5.4316,-5.3312,-5.2048,-5.1923,-5.193,-5.1952,-5.1047,-5.077,-5.138,-5.0809,-5.0525,-5.0655,-5.0984,-5.1123,-5.1095,-5.1018,-5.0979,-5.0991,-5.0914,-5.0856,-5.0779,-5.0779,-5.0471,-4.9894,-4.9029,-4.8049,-4.7103,-4.7561,-4.7166,-4.6287,-4.6462,-4.6929,-4.7314,-4.6051,-4.5817,-4.6259,0.0,0.0,0.0,0.0,0.0,0.0,0.0,0.0,0.0,0.0,0.0,0.0,0.0,0.0,0.0,0.0,0.0,0.0,0.0,0.0,0.0,0.0,0.0,0.0,0.0,0.0,0.0,0.0,0.0,0.0,0.0,0.0,0.0,0.0,0.0,0.0,0.0,0.0,0.0,0.0,0.0,0.0,-3.8972,-3.918,-3.9643,-4.0176,-4.0312,-4.0374,0.0,0.0,-4.106,-4.1948,-4.2086,-4.2203,-4.2289,-4.2423,-4.2988,-4.3857,-4.4851,-4.6749,-4.849,-4.8701,-5.1028,-5.348,-5.4295,-5.5161,-5.6218,-5.7608,-5.8375,-5.8862,-5.9037,-5.9056,-5.8765,-5.7887,-5.8081,-5.812,-5.7504,-5.7208,-5.6756,-5.5877,-5.5242,-5.4239,-5.2597,-5.265,-5.2794,-5.279,-5.1684,-5.1371,-5.2253,-5.1146,-5.0661,-5.103,-5.1037,-5.1029,-5.0991,-5.0664,-5.0625,-5.0856,-5.026,-5.0221,-5.0702,-5.0702,-5.0356,-4.9721,-4.8971,-4.8022,-4.7064,-4.7628,-4.7086,-4.5982,-4.6449,-4.7095,-4.7632,-4.6428,-4.6205,-4.6532,0.0,0.0,0.0,0.0,0.0,0.0,0.0,0.0,0.0,0.0,0.0,0.0,0.0,0.0,0.0,0.0,0.0,0.0,0.0,0.0,0.0,0.0,0.0,0.0,0.0,0.0,0.0,0.0,0.0,0.0,0.0,0.0,0.0,0.0,0.0,0.0,0.0,0.0,0.0,0.0,0.0,0.0,-3.7939,-3.8616,-3.8989,-3.9112,-3.9438,0.0,0.0,0.0,-3.9751,-3.9874,-3.9891,-4.0062,0.0,-4.0884,-4.1445,-4.2168,-4.3588,-4.4818,-4.6431,-4.9387,-5.1692,-5.3635,-5.5284,-5.6336,-5.737,-5.875,-5.9085,-5.9258,-5.9838,-5.9954,-5.9685,-5.8796,-5.7956,-5.7441,-5.7396,-5.6739,-5.5915,-5.5034,-5.49,-5.4206,-5.2473,-5.3081,-5.3565,-5.3572,-5.3527,-5.3144,-5.2339,-5.2261,-5.1819,-5.0933,-5.0914,-5.0856,-5.0702,-4.9875,-4.9875,-5.0683,-4.899,-4.9067,-5.0702,-5.0702,-5.0683,-5.0644,-5.0214,-4.9582,-4.8819,-4.8777,-4.7762,-4.6374,-4.7152,-4.6542,-4.5338,-4.6516,-4.77,-4.8605,0.0,0.0,0.0,0.0,0.0,0.0,0.0,0.0,0.0,0.0,0.0,0.0,0.0,0.0,0.0,0.0,0.0,0.0,0.0,0.0,0.0,0.0,0.0,0.0,0.0,0.0,0.0,0.0,0.0,0.0,0.0,0.0,0.0,0.0,0.0,0.0,0.0,0.0,0.0,0.0,0.0,0.0,-3.8407,-3.7737,-3.8117,-3.8768,0.0,0.0,0.0,0.0,0.0,-3.8303,-3.8465,-3.8265,-3.7953,-3.8155,-3.964,-4.1216,-4.1174,-4.3241,-4.5912,-4.7901,-5.0483,-5.3031,-5.4894,-5.5937,-5.6753,-5.7552,-5.6854,-5.6254,-5.6652,-5.6786,-5.6783,-5.6717,-5.7434,-5.7992,-5.8011,-5.7258,-5.6415,-5.5532,-5.4955,-5.4164,-5.3009,-5.3321,-5.3548,-5.3469,-5.2936,-5.2682,-5.2896,-5.1838,-5.1087,-5.0779,-5.076,-5.0741,-5.0702,-5.0414,-5.0106,-4.9817,-4.924,-4.926,-4.9837,-4.9837,-4.9837,-4.9779,-4.8859,-4.7824,-4.6859,-4.7146,-4.6473,-4.5295,-4.579,-4.6327,-4.6844,-4.6958,-4.7796,-4.8611,0.0,0.0,0.0,0.0,0.0,0.0,0.0,0.0,0.0,0.0,0.0,0.0,0.0,0.0,0.0,0.0,0.0,0.0,0.0,0.0,0.0,0.0,0.0,0.0,0.0,0.0,0.0,0.0,0.0,0.0,0.0,0.0,0.0,0.0,0.0,0.0,0.0,0.0,0.0,0.0,0.0,0.0,-3.7907,-3.7049,-3.744,0.0,0.0,0.0,0.0,0.0,0.0,-3.7237,-3.7085,-3.6941,-3.6823,-3.711,-3.8615,-4.0277,-4.0562,-4.2735,-4.533,-4.7071,-4.939,-5.1755,-5.3579,-5.4385,-5.506,-5.6117,-5.5018,-5.4145,-5.481,-5.4732,-5.4528,-5.4465,-5.5369,-5.6192,-5.6454,-5.5634,-5.4898,-5.4626,-5.4254,-5.3587,-5.2414,-5.3009,-5.3411,-5.3336,-5.2818,-5.2568,-5.2741,-5.1702,-5.0991,-5.0702,-5.0702,-5.0702,-5.0702,-5.0067,-4.9183,-4.8048,-4.8644,-4.8779,-4.8529,-4.8798,-4.8933,-4.8875,-4.7958,-4.6896,-4.5825,-4.6119,-4.5531,-4.4506,-4.4989,-4.586,-4.6805,-4.6657,-4.7127,-4.7667,0.0,0.0,0.0,0.0,0.0,0.0,0.0,0.0,0.0,0.0,0.0,0.0,0.0,0.0,0.0,0.0,0.0,0.0,0.0,0.0,0.0,0.0,0.0,0.0,0.0,0.0,0.0,0.0,0.0,0.0,0.0,0.0,0.0,0.0,0.0,0.0,0.0,0.0,0.0,0.0,0.0,0.0,-3.6492,-3.6461,0.0,0.0,0.0,0.0,0.0,0.0,-3.6197,-3.6705,-3.5926,-3.6231,-3.7026,-3.7719,-3.8447,-3.9474,-4.1488,-4.3022,-4.4609,-4.6794,-4.8443,-4.9921,-5.1499,-5.1903,-5.249,-5.4428,-5.3534,-5.2779,-5.3975,-5.3634,-5.2945,-5.2237,-5.217,-5.2481,-5.3312,-5.2349,-5.1827,-5.2539,-5.2985,-5.2546,-5.0855,-5.2143,-5.3046,-5.3007,-5.3086,-5.2779,-5.1952,-5.1875,-5.1491,-5.0721,-5.0644,-5.0625,-5.0625,-4.8913,-4.724,-4.5682,-4.7278,-4.7644,-4.6932,-4.7702,-4.8048,-4.801,-4.7573,-4.6757,-4.5757,-4.5722,-4.505,-4.4121,-4.4823,-4.5158,-4.5257,-4.5694,-4.5865,-4.5956,0.0,0.0,0.0,0.0,0.0,0.0,0.0,0.0,0.0,0.0,0.0,0.0,0.0,0.0,0.0,0.0,0.0,0.0,0.0,0.0,0.0,0.0,0.0,0.0,0.0,0.0,0.0,0.0,0.0,0.0,0.0,0.0,0.0,0.0,0.0,0.0,0.0,0.0,0.0,0.0,0.0,0.0,-3.4951,0.0,0.0,0.0,0.0,0.0,0.0,0.0,-3.6992,-3.7483,-3.6721,-3.7381,-3.8362,-3.8007,-3.8802,-3.9816,-3.9827,-4.1216,-4.3028,-4.4663,-4.6518,-4.8356,-4.986,-5.0674,-5.1081,-5.1001,-4.9675,-4.853,-4.8492,-4.937,-5.0341,-5.1043,-5.2685,-5.4176,-5.495,-5.4288,-5.3543,-5.3097,-5.3148,-5.2542,-5.0854,-5.1109,-5.109,-5.0483,-5.1564,-5.2145,-5.1914,-5.1337,-5.0914,-5.0702,-5.0067,-4.9721,-4.9721,-4.8048,-4.699,-4.6567,-4.7009,-4.7105,-4.6913,-4.7105,-4.7221,-4.7145,-4.616,-4.5548,-4.5223,-4.4693,-4.4449,-4.4411,-4.4059,-4.4439,-4.5183,-4.5068,-4.5388,-4.5846,0.0,0.0,0.0,0.0,0.0,0.0,0.0,0.0,0.0,0.0,0.0,0.0,0.0,0.0,0.0,0.0,0.0,0.0,0.0,0.0,0.0,0.0,0.0,0.0,0.0,0.0,0.0,0.0,0.0,0.0,0.0,0.0,0.0,0.0,0.0,0.0,0.0,0.0,0.0,0.0,0.0,0.0,0.0,0.0,0.0,0.0,0.0,0.0,0.0,0.0,-3.755,-3.7838,-3.7398,-3.7838,-3.8497,-3.8413,-3.8954,-3.958,-3.9495,-4.0689,-4.2216,-4.3377,-4.5234,-4.7059,-4.821,-4.9132,-4.9572,-4.9114,-4.7719,-4.6489,-4.6221,-4.7252,-4.828,-4.8623,-5.0748,-5.2617,-5.3456,-5.2978,-5.2517,-5.2371,-5.2567,-5.2001,-5.0323,-5.0522,-5.0409,-4.9579,-5.0342,-5.0846,-5.0846,-5.0585,-5.0186,-4.9671,-4.9343,-4.8813,-4.8046,-4.728,-4.6721,-4.6336,-4.6336,-4.6336,-4.6317,-4.6187,-4.6187,-4.6279,-4.5453,-4.503,-4.4849,-4.4428,-4.4194,-4.4065,-4.3646,-4.4128,-4.4905,-4.4391,-4.469,-4.5259,0.0,0.0,0.0,0.0,0.0,0.0,0.0,0.0,0.0,0.0,0.0,0.0,0.0,0.0,0.0,0.0,0.0,0.0,0.0,0.0,0.0,0.0,0.0,0.0,0.0,0.0,0.0,0.0,0.0,0.0,0.0,0.0,0.0,0.0,0.0,0.0,0.0,0.0,0.0,0.0,0.0,0.0,0.0,0.0,0.0,0.0,0.0,0.0,0.0,0.0,-3.815,-3.8176,-3.8091,-3.8125,-3.8328,-3.8954,-3.914,-3.9276,-3.9918,-4.0844,-4.1858,-4.2661,-4.4214,-4.5735,-4.6634,-4.7348,-4.7862,-4.7809,-4.6709,-4.57,-4.559,-4.6342,-4.6783,-4.6305,-4.8104,-4.9958,-5.0986,-5.0675,-5.0635,-5.1286,-5.1746,-5.1369,-4.9664,-5.0202,-5.0278,-4.9401,-4.9326,-4.9386,-4.9475,-4.9732,-4.929,-4.8031,-4.8321,-4.77,-4.6081,-4.6414,-4.6244,-4.5531,-4.5531,-4.5531,-4.5513,-4.5222,-4.5243,-4.5513,-4.518,-4.4896,-4.4657,-4.4553,-4.4165,-4.3631,-4.3548,-4.3936,-4.4522,-4.3771,-4.3938,-4.4452,0.0,0.0,0.0,0.0,0.0,0.0,0.0,0.0,0.0,0.0,-2.7525,-2.7448,0.0,0.0,0.0,0.0,0.0,0.0,0.0,0.0,0.0,0.0,0.0,0.0,0.0,0.0,0.0,0.0,0.0,0.0,0.0,0.0,0.0,0.0,0.0,0.0,0.0,0.0,0.0,0.0,0.0,0.0,0.0,0.0,0.0,0.0,0.0,0.0,0.0,0.0,-3.9444,-3.9597,-3.8988,-3.9225,-3.9732,-3.9851,-3.9884,-3.9918,-4.0054,-4.0594,-4.1279,-4.2143,-4.2953,-4.3841,-4.5138,-4.5566,-4.5612,-4.5389,-4.5112,-4.4709,-4.403,-4.5112,-4.6507,-4.77,-4.8838,-5.0343,-5.2491,-5.2151,-5.1713,-5.1842,-5.1962,-5.1355,-4.9731,-4.9713,-4.9436,-4.8587,-4.8513,-4.8779,-4.9445,-4.8947,-4.787,-4.6286,-4.6301,-4.5855,-4.489,-4.4959,-4.5071,-4.5201,-4.5201,-4.5201,-4.518,-4.5137,-4.5118,-4.518,-4.4849,-4.4825,-4.4966,-4.4373,-4.4204,-4.4337,-4.3744,-4.3753,-4.4066,-4.3634,-4.3589,-4.3681,0.0,0.0,0.0,0.0,0.0,0.0,0.0,0.0,-2.8279,-2.8718,-2.909,-2.8954,-2.8055,-2.8442,0.0,0.0,0.0,0.0,0.0,0.0,0.0,0.0,0.0,0.0,0.0,0.0,-3.1611,-3.1032,0.0,0.0,0.0,-3.1711,-3.1933,-3.2355,0.0,0.0,0.0,0.0,0.0,0.0,0.0,0.0,0.0,0.0,0.0,0.0,0.0,0.0,0.0,0.0,-3.9634,-3.9884,-3.9949,-4.0254,-4.0449,-4.0154,-4.007,-4.007,-4.007,-4.0497,-4.1007,-4.1435,-4.2261,-4.3073,-4.331,-4.394,-4.4328,-4.3759,-4.387,-4.3956,-4.3552,-4.4819,-4.614,-4.6929,-4.8104,-4.9481,-5.1096,-5.0949,-5.071,-5.0729,-5.0729,-5.0251,-4.904,-4.8912,-4.8581,-4.7755,-4.77,-4.7832,-4.8215,-4.7108,-4.6141,-4.5575,-4.5096,-4.4683,-4.429,-4.4501,-4.4682,-4.4849,-4.4849,-4.4849,-4.4849,-4.4612,-4.4638,-4.4825,-4.4455,-4.4373,-4.4508,-4.4146,-4.4016,-4.3974,-4.3631,-4.3597,-4.3726,-4.3563,-4.3497,-4.3497,0.0,0.0,0.0,0.0,0.0,0.0,0.0,-2.8264,-2.9275,-2.9638,-3.0224,-3.0092,-2.8686,-2.9217,-2.967,0.0,0.0,0.0,0.0,0.0,0.0,0.0,0.0,0.0,0.0,0.0,0.0,-3.0901,-3.1572,0.0,0.0,0.0,0.0,0.0,-3.2398,-3.2174,0.0,0.0,0.0,0.0,0.0,-3.436,0.0,0.0,0.0,0.0,0.0,0.0,0.0,0.0,-3.9739,-4.0061,-4.0453,-4.0643,-4.0621,-4.0017,-3.9834,-3.9833,-3.9833,-4.0019,-4.0231,-4.0231,-4.119,-4.1995,-4.149,-4.2423,-4.3314,-4.2781,-4.3142,-4.3497,-4.3497,-4.4525,-4.5498,-4.5847,-4.6819,-4.8012,-4.9389,-4.9389,-4.9334,-4.9554,-4.9426,-4.8967,-4.8141,-4.7902,-4.7535,-4.6911,-4.6691,-4.6599,-4.6599,-4.5406,-4.4773,-4.491,-4.4246,-4.3912,-4.3912,-4.4194,-4.4392,-4.4474,-4.4474,-4.4474,-4.4474,-4.4146,-4.4175,-4.4447,-4.4076,-4.3924,-4.3998,-4.3924,-4.3758,-4.3497,-4.3497,-4.3497,-4.3497,-4.3497,-4.3497,-4.3497,0.0,0.0,0.0,0.0,0.0,0.0,0.0,-2.8213,-2.8866,-3.0372,-3.0645,-3.0591,-3.03,-3.0464,-3.0587,0.0,0.0,0.0,0.0,0.0,0.0,0.0,0.0,0.0,0.0,0.0,0.0,-3.1866,-3.1891,0.0,0.0,0.0,0.0,0.0,0.0,-3.2301,-3.2845,-3.2716,0.0,0.0,0.0,0.0,0.0,0.0,0.0,0.0,0.0,-3.9519,-4.01,0.0,-4.0343,-4.083,-3.9925,-3.9874,-4.0035,-3.9325,-3.904,-3.9016,-3.9016,-3.858,-3.806,-3.806,-3.8723,-3.942,-3.9884,-4.1052,-4.211,-4.2577,-4.3142,-4.3497,-4.3497,-4.3608,-4.4195,-4.5663,-4.5406,-4.6104,-4.915,-4.8912,-4.871,-4.9499,-4.8893,-4.8104,-4.7297,-4.6562,-4.6085,-4.6012,-4.5333,-4.4929,-4.4929,-4.4782,-4.436,-4.3676,-4.3584,-4.3548,-4.3548,-4.3563,-4.3758,-4.4076,-4.4076,-4.4076,-4.4058,-4.4016,-4.3998,-4.4046,-4.3693,-4.3726,-4.3986,-4.3679,-4.3513,-4.3497,-4.3497,-4.3497,-4.3497,-4.3497,-4.3497,-4.3497,0.0,0.0,0.0,0.0,0.0,0.0,0.0,-2.9496,-3.0039,-3.0625,-3.0698,-3.0659,-3.0567,-3.1081,-3.1211,0.0,0.0,0.0,0.0,0.0,0.0,0.0,0.0,0.0,0.0,0.0,-3.1736,-3.2004,-3.2497,0.0,0.0,0.0,0.0,0.0,0.0,-3.1762,-3.1551,-3.151,0.0,0.0,0.0,0.0,0.0,0.0,0.0,0.0,0.0,0.0,-3.9871,-3.9762,-4.0049,-4.0246,-3.9176,-3.9345,-3.9826,-3.9208,-3.8958,-3.8938,-3.8917,-3.869,-3.8358,-3.7921,-3.7697,-3.7802,-3.8479,-3.9304,-4.0287,-4.1309,-4.2294,-4.3142,-4.3444,-4.3497,-4.3699,-4.4342,-4.4176,-4.4599,-4.6397,-4.6361,-4.6636,-4.7939,-4.7792,-4.7645,-4.7829,-4.7095,-4.6232,-4.5259,-4.4433,-4.3975,-4.3975,-4.3975,-4.3828,-4.3497,-4.3497,-4.3497,-4.3497,-4.3497,-4.3582,-4.3693,-4.3693,-4.3693,-4.3693,-4.3693,-4.3693,-4.3693,-4.3582,-4.3563,-4.3693,-4.3548,-4.3497,-4.3497,-4.3497,-4.3497,-4.3497,-4.3497,-4.3497,-4.3497,0.0,0.0,0.0,0.0,0.0,-2.8135,-2.9061,-2.9961,-3.0552,-3.068,-3.0674,-3.0641,-3.0583,-3.1602,-3.1921,-3.1054,0.0,0.0,0.0,0.0,0.0,0.0,0.0,0.0,0.0,0.0,-3.1841,-3.2,-3.2589,-3.3037,0.0,0.0,-3.2807,-3.2051,0.0,0.0,0.0,0.0,0.0,0.0,0.0,0.0,0.0,0.0,0.0,0.0,0.0,0.0,0.0,0.0,0.0,-3.978,0.0,0.0,0.0,0.0,-3.8727,-3.8807,-3.8339,-3.8235,-3.806,-3.7279,-3.6801,-3.6605,-3.7302,-3.8136,-3.9162,-4.0422,-4.1787,-4.2864,-4.341,-4.3497,-4.3497,0.0,0.0,-4.3773,-4.4599,-4.4709,-4.5223,-4.6599,-4.6544,-4.6617,-4.7186,-4.6819,-4.6006,-4.4589,-4.4313,-4.4064,-4.3841,-4.3823,-4.3758,-4.3646,-4.3646,-4.3712,-4.3823,-4.3712,-4.3646,-4.3646,-4.3548,-4.3497,-4.3479,-4.3597,-4.3597,-4.3532,-4.3579,-4.3597,-4.3497,-4.3497,-4.3497,-4.3497,-4.3497,-4.3497,-4.3497,-4.3497,-4.3497,-4.3497,0.0,0.0,0.0,0.0,0.0,0.0,0.0,-2.9043,-2.9883,-3.0605,-3.0639,-3.0583,-3.0506,-3.2112,-3.2844,-3.1955,0.0,0.0,0.0,0.0,0.0,0.0,0.0,0.0,0.0,0.0,-3.1133,-3.1992,-3.1948,-3.2378,-3.3292,-3.3292,-3.2917,-3.2207,0.0,0.0,0.0,0.0,0.0,0.0,0.0,0.0,0.0,0.0,0.0,0.0,0.0,0.0,0.0,0.0,0.0,0.0,0.0,0.0,0.0,0.0,-3.8037,-3.8305,-3.7051,-3.6684,-3.6446,-3.5733,-3.5552,-3.5829,-3.6508,-3.781,-3.9162,-4.0422,-4.1787,-4.2864,-4.341,-4.3497,-4.3497,-4.3497,-4.3497,0.0,-4.4599,-4.4709,-4.5002,-4.581,-4.5223,-4.4745,-4.4745,-4.5097,-4.496,-4.4091,-4.5125,-4.5429,-4.4636,-4.458,-4.4419,-4.4016,-4.3998,-4.4175,-4.458,-4.4175,-4.3998,-4.3986,-4.3646,-4.3497,-4.3513,-4.3849,-4.3804,-4.3513,-4.3849,-4.3804,-4.3497,-4.3497,-4.3497,-4.3497,-4.3497,-4.3497,-4.3497,-4.3497,-4.3497,-4.3497,0.0,0.0,0.0,0.0,0.0,0.0,0.0,-2.9824,-3.0449,-3.0664,-3.0678,-3.0641,-3.0583,-3.2151,-3.2875,-3.205,0.0,0.0,0.0,0.0,0.0,0.0,0.0,0.0,0.0,0.0,-3.1816,-3.1992,-3.2522,-3.2967,-3.3306,-3.3856,-3.3724,-3.3047,-3.3633,-3.3398,0.0,0.0,0.0,0.0,0.0,0.0,-3.6413,0.0,0.0,0.0,0.0,0.0,0.0,0.0,0.0,0.0,0.0,0.0,0.0,0.0,0.0,-3.6946,-3.653,-3.6421,-3.6129,-3.5097,-3.4883,-3.4967,-3.5202,-3.672,-3.8408,-3.9705,-4.1429,-4.2864,-4.341,-4.3497,-4.3497,-4.3497,-4.3497,0.0,-4.3828,-4.436,-4.509,-4.6186,-4.7285,-4.7548,-4.6375,-4.6918,-4.6535,-4.457,-4.5262,-4.5455,-4.4636,-4.458,-4.4553,-4.4401,-4.4419,-4.4474,-4.458,-4.4474,-4.4419,-4.4419,-4.4308,-4.4252,-4.427,-4.4364,-4.4364,-4.4223,-4.4076,-4.3924,-4.3818,-4.3597,-4.3497,-4.3497,-4.3497,-4.3497,-4.3497,-4.3497,-4.3497,-4.3497,0.0,0.0,0.0,0.0,0.0,0.0,0.0,-3.0121,-3.0667,-3.0667,-3.0643,-3.0626,-3.0605,-3.2161,-3.3015,-3.2528,0.0,0.0,0.0,0.0,0.0,0.0,0.0,0.0,0.0,-3.1698,-3.1914,-3.1514,-3.2327,-3.2749,-3.2808,-3.3322,-3.3492,-3.3418,-3.3965,-3.3906,0.0,0.0,0.0,0.0,0.0,0.0,-3.6055,0.0,0.0,0.0,0.0,0.0,0.0,0.0,0.0,0.0,0.0,0.0,0.0,0.0,-3.6289,-3.5959,0.0,-3.6146,-3.6107,-3.5375,-3.491,-3.4872,-3.5432,-3.6821,-3.8416,-3.9797,-4.1578,-4.3086,-4.3786,-4.3899,-4.3899,-4.3899,-4.3899,-4.3899,-4.3899,-4.4605,-4.5531,-4.6593,-4.7878,-4.8239,-4.7127,-4.7678,-4.7302,-4.5388,-4.5851,-4.5841,-4.5026,-4.4988,-4.4988,-4.4988,-4.4853,-4.4849,-4.4988,-4.4849,-4.48,-4.48,-4.4657,-4.458,-4.4606,-4.4732,-4.4726,-4.4599,-4.4337,-4.4146,0.0,-4.3646,-4.3497,-4.3497,-4.3497,-4.3497,-4.3497,-4.3497,-4.3497,-4.3497,0.0,0.0,0.0,0.0,0.0,0.0,0.0,0.0,0.0,-3.0607,-3.055,-3.0524,-3.0601,-3.2154,-3.3223,-3.3296,0.0,0.0,0.0,0.0,0.0,0.0,0.0,0.0,0.0,-3.1553,-3.1527,-3.0706,-3.146,-3.1841,-3.1903,-3.1978,-3.248,-3.3398,-3.3456,-3.3515,0.0,0.0,0.0,0.0,0.0,0.0,0.0,0.0,0.0,0.0,0.0,0.0,0.0,0.0,0.0,0.0,0.0,0.0,0.0,0.0,0.0,0.0,0.0,-3.5966,-3.625,-3.6301,-3.5701,-3.5477,-3.6809,-3.7878,0.0,-4.0522,-4.2092,-4.3476,-4.4361,-4.4561,-4.4617,-4.4617,-4.4617,-4.4624,-4.4624,-4.5398,-4.6267,-4.7068,-4.7335,-4.7363,-4.7061,-4.7495,-4.7392,-4.6323,-4.6647,-4.6528,-4.5643,-4.5586,-4.5586,-4.5586,-4.5302,-4.5302,-4.5586,-4.5302,-4.5137,-4.5118,-4.4825,-4.4657,-4.4682,-4.4988,-4.4966,-4.4657,-4.4606,-4.4392,-4.3998,-4.3646,-4.3497,-4.3497,-4.3497,-4.3497,-4.3497,-4.3497,-4.3497,-4.3497,0.0,0.0,0.0,0.0,0.0,0.0,0.0,0.0,0.0,0.0,-3.0588,-3.0598,-3.0674,-3.2226,-3.3301,0.0,0.0,0.0,0.0,0.0,0.0,0.0,0.0,0.0,0.0,-3.0975,-3.0957,-3.0854,-3.0898,-3.094,-3.1022,-3.1647,-3.2391,-3.3273,-3.394,-3.4589,0.0,0.0,0.0,0.0,0.0,0.0,0.0,0.0,0.0,0.0,-3.623,-3.6309,0.0,0.0,0.0,0.0,0.0,0.0,0.0,0.0,-3.6487,-3.5911,-3.6634,0.0,-3.6498,-3.6239,-3.6774,-3.7392,0.0,0.0,-3.981,-4.0203,0.0,-4.3351,-4.3547,-4.4202,-4.4674,-4.4674,-4.4764,-4.4832,-4.4832,-4.635,-4.754,-4.7693,-4.8604,-4.8392,-4.632,-4.7375,-4.7511,-4.5898,-4.6473,-4.6528,-4.5643,-4.5586,-4.5586,-4.5586,-4.5513,-4.5513,-4.5586,-4.5513,-4.5495,-4.5495,-4.5381,-4.5362,-4.5362,-4.5438,-4.5438,-4.5342,-4.4806,-4.4553,-4.4419,-4.3758,-4.3497,-4.3497,-4.3497,-4.3497,-4.3497,-4.3497,-4.3497,-4.3497,0.0,0.0,0.0,0.0,0.0,0.0,0.0,0.0,0.0,0.0,0.0,0.0,0.0,0.0,0.0,0.0,0.0,0.0,0.0,0.0,0.0,0.0,0.0,0.0,-3.0918,-3.1153,-3.1144,-3.0804,-3.103,-3.0931,-3.0528,-3.104,-3.1885,-3.3074,-3.4429,-3.5543,0.0,0.0,0.0,0.0,-3.8329,0.0,0.0,0.0,0.0,0.0,-3.5996,-3.5996,0.0,-3.5996,-3.5996,-3.5996,0.0,0.0,0.0,0.0,-3.6341,-3.6148,-3.6998,-3.6665,-3.6086,-3.6262,-3.7055,-3.7826,-3.7821,0.0,0.0,0.0,0.0,0.0,-4.3732,-4.4547,-4.52,-4.52,-4.5281,-4.5512,-4.5896,-4.6933,-4.7761,-4.8124,-4.8836,-4.8677,-4.7094,-4.7449,-4.7354,-4.6278,-4.6259,-4.6105,-4.5624,-4.5586,-4.5586,-4.5586,-4.5586,-4.5586,-4.5586,-4.5586,-4.5586,-4.5586,-4.5586,-4.5586,-4.5586,-4.5586,-4.5513,-4.5342,-4.4806,-4.4501,-4.4261,-4.3744,-4.3497,-4.3497,-4.3497,-4.3497,-4.3497,-4.3497,-4.3497,-4.3497,0.0,0.0,0.0,0.0,0.0,0.0,0.0,0.0,0.0,0.0,0.0,0.0,0.0,0.0,0.0,0.0,0.0,0.0,0.0,0.0,0.0,0.0,0.0,-3.166,-3.0918,-3.1484,-3.1441,-3.0707,-3.1287,-3.1187,-3.0474,-3.0549,-3.1437,-3.305,-3.5012,-3.6348,0.0,0.0,-3.8651,-3.8768,-3.8915,0.0,0.0,0.0,0.0,0.0,0.0,0.0,0.0,-3.5996,-3.5996,-3.5996,-3.5996,0.0,0.0,0.0,0.0,0.0,-3.7051,-3.6364,-3.5624,-3.6585,-3.7189,-3.7765,-3.8593,0.0,0.0,0.0,0.0,0.0,0.0,-4.5084,-4.5853,-4.5853,-4.6007,-4.652,-4.7513,-4.765,-4.7825,-4.8308,-4.8561,-4.8444,-4.7811,-4.7303,-4.691,-4.6721,-4.6009,-4.5586,-4.5586,-4.5586,-4.5586,-4.5586,-4.5586,-4.5586,-4.5586,-4.5586,-4.5586,-4.5586,-4.5586,-4.5586,-4.5586,-4.5586,-4.5419,-4.5074,-4.4751,-4.4373,-4.3986,-4.3646,-4.3497,-4.3497,-4.3497,-4.3497,-4.3497,-4.3497,-4.3497,-4.3497,0.0,0.0,0.0,0.0,0.0,0.0,0.0,0.0,0.0,0.0,0.0,0.0,0.0,0.0,0.0,0.0,0.0,0.0,0.0,0.0,0.0,0.0,-3.1855,-3.1035,-3.0898,-3.0898,-3.0836,-3.0687,-3.0586,-3.0765,-3.1234,-3.1025,-3.1934,-3.3813,-3.582,-3.6824,-3.714,-3.8743,-3.9471,-3.9609,-4.0339,0.0,0.0,0.0,0.0,0.0,0.0,0.0,0.0,-3.5996,-3.5996,-3.5996,-3.5996,0.0,0.0,0.0,0.0,0.0,-3.7051,-3.6601,-3.6286,-3.7887,-3.8254,-3.8461,-3.9325,0.0,0.0,0.0,0.0,0.0,0.0,-4.493,-4.6046,-4.6046,-4.6772,-4.7906,-4.9507,-4.9742,-4.9234,-4.7904,-4.8308,-4.7789,-4.5483,-4.5708,-4.5969,-4.5797,-4.5682,-4.5586,-4.5586,-4.5586,-4.5586,-4.5586,-4.5586,-4.5586,-4.5586,-4.5586,-4.5586,-4.5586,-4.5586,-4.5586,-4.5586,-4.5586,-4.5419,-4.5074,-4.4751,-4.4373,-4.3986,-4.3646,-4.3497,-4.3497,-4.3497,-4.3497,-4.3497,-4.3497,-4.3497,-4.3497,0.0,0.0,0.0,0.0,0.0,0.0,0.0,0.0,0.0,0.0,0.0,0.0,0.0,0.0,0.0,0.0,0.0,0.0,0.0,0.0,0.0,-3.3437,-3.2246,-3.1387,-3.0918,-3.0759,-3.0696,-3.0698,-3.0501,-3.0529,-3.0766,-3.1557,-3.2721,-3.4261,-3.6126,-3.7514,-3.8497,-3.9317,-3.9934,-4.0404,0.0,0.0,0.0,0.0,0.0,0.0,0.0,0.0,0.0,0.0,-3.5996,-3.5996,-3.5996,0.0,0.0,0.0,0.0,0.0,-3.7051,-3.666,-3.6309,-3.7578,-3.7851,-3.8027,-3.8906,-3.9444,0.0,0.0,0.0,0.0,-4.4025,-4.5205,-4.624,-4.6723,-4.7182,-4.7747,-4.8474,-4.8586,-4.8113,-4.6826,-4.6989,-4.6694,-4.5421,-4.5587,-4.5738,-4.5605,-4.5586,-4.5586,-4.5586,-4.5586,-4.5586,-4.5586,-4.5586,-4.5586,-4.5586,-4.5419,-4.5322,-4.5322,-4.5513,-4.5419,-4.5074,-4.5243,-4.5033,-4.4508,0.0,-4.4076,-4.3726,-4.3563,-4.3497,-4.3497,-4.3497,-4.3497,-4.3497,-4.3497,-4.3497,-4.3497,0.0,0.0,0.0,0.0,0.0,0.0,0.0,0.0,0.0,0.0,0.0,0.0,0.0,0.0,0.0,0.0,0.0,0.0,0.0,0.0,-3.332,-3.3125,-3.2539,-3.1797,-3.0918,-3.0789,-3.0717,-3.0679,-3.0544,-3.0458,-3.0443,-3.2168,-3.3551,-3.4698,-3.6489,-3.817,-3.9701,-3.9917,-4.0381,-4.0959,0.0,0.0,0.0,0.0,0.0,0.0,0.0,0.0,0.0,0.0,0.0,0.0,0.0,0.0,0.0,-3.5996,-3.5996,-3.6132,-3.6797,-3.6472,-3.6127,-3.6767,0.0,-3.7264,-3.8313,-3.9068,-4.0011,0.0,0.0,-4.3728,-4.43,-4.5304,-4.6275,-4.6959,-4.724,-4.7388,-4.7486,-4.7492,-4.7181,-4.6316,-4.618,-4.6087,-4.583,-4.5776,-4.5719,-4.5605,-4.5586,-4.5586,-4.5586,-4.5586,-4.5586,-4.5586,-4.5586,-4.5568,-4.5495,-4.5222,-4.5096,-4.5096,-4.5283,-4.5096,-4.4624,-4.4872,-4.4612,-4.4016,-4.4016,-4.3804,-4.3497,-4.3497,-4.3497,-4.3497,-4.3497,-4.3497,-4.3497,-4.3497,-4.3497,-4.3497,0.0,0.0,0.0,0.0,0.0,0.0,0.0,0.0,0.0,0.0,0.0,0.0,0.0,0.0,0.0,0.0,0.0,0.0,0.0,0.0,-3.3066,-3.2324,-3.2226,-3.1797,-3.0918,-3.0894,-3.0794,-3.0602,-3.0467,-3.0609,-3.1083,-3.2937,-3.4323,-3.5326,-3.7257,-3.8676,-3.9649,-4.0543,-4.0937,-4.1006,-4.107,0.0,0.0,0.0,0.0,0.0,0.0,0.0,0.0,0.0,0.0,0.0,0.0,0.0,-3.5996,-3.5996,-3.5996,-3.6005,-3.5987,-3.5952,-3.589,-3.5838,-3.5968,-3.6504,-3.8066,-3.846,0.0,-4.0582,-4.2241,-4.343,-4.3469,-4.4831,-4.5949,-4.6085,-4.6733,-4.7491,-4.8295,-4.8405,-4.8075,-4.721,-4.7056,-4.6694,-4.5873,-4.5699,-4.5605,-4.5586,-4.5586,-4.5586,-4.5586,-4.5586,-4.5586,-4.5586,-4.5586,-4.5438,-4.514,-4.5096,-4.5096,-4.5096,-4.4825,-4.465,-4.458,-4.4606,-4.4401,-4.4016,-4.4016,-4.3804,-4.3497,-4.3497,-4.3497,-4.3497,-4.3497,-4.3497,-4.3497,-4.3497,-4.3497,-4.3497,0.0,0.0,0.0,0.0,0.0,0.0,0.0,0.0,0.0,0.0,0.0,0.0,0.0,0.0,0.0,0.0,0.0,0.0,0.0,0.0,-3.2519,-3.2207,-3.2207,-3.1797,-3.0918,-3.0819,-3.0721,-3.0604,-3.0473,-3.0769,-3.1508,-3.3317,-3.4919,-3.6358,-3.772,-3.8817,-3.9683,-4.0119,-4.0231,-4.0174,-4.0816,-4.0279,0.0,0.0,0.0,0.0,0.0,0.0,0.0,0.0,-3.5843,0.0,0.0,0.0,-3.5195,-3.5195,-3.4805,-3.45,-3.4955,-3.5089,-3.5193,-3.5601,-3.5379,0.0,0.0,-3.7939,-3.8661,-3.9818,-4.1835,-4.3581,-4.4117,-4.5137,-4.5905,-4.5877,-4.6555,-4.7164,-4.7471,-4.7508,-4.718,-4.6296,-4.618,-4.6046,-4.5719,-4.5438,-4.5381,-4.5586,-4.5419,-4.5381,-4.5586,-4.54,-4.5381,-4.5586,-4.5201,-4.5011,-4.5096,-4.4638,-4.4428,-4.4428,-4.4553,-4.4364,-4.3931,-4.4136,-4.4016,-4.3693,-4.3693,-4.3631,-4.3497,-4.3497,-4.3497,-4.3497,-4.3497,-4.3497,-4.3497,-4.3497,-4.3497,-4.3497,0.0,0.0,0.0,0.0,0.0,0.0,0.0,0.0,0.0,0.0,0.0,0.0,0.0,0.0,0.0,0.0,0.0,0.0,-3.1562,-3.1719,-3.1797,-3.1797,-3.1797,-3.1504,-3.0918,-3.081,-3.0703,-3.0606,-3.0482,-3.088,-3.1796,-3.3497,-3.5087,-3.6569,-3.7777,-3.8652,-3.9258,-3.9356,-3.9477,-3.9649,-4.0301,-4.0115,0.0,0.0,0.0,0.0,0.0,0.0,0.0,0.0,0.0,0.0,0.0,0.0,0.0,0.0,-3.4082,-3.3566,-3.4351,-3.4571,-3.4672,-3.5122,0.0,0.0,-3.659,-3.7185,-3.7843,-3.923,-4.1312,-4.3159,-4.4042,-4.4848,-4.5387,-4.5334,-4.6009,-4.6547,-4.6509,-4.649,-4.6223,-4.5515,-4.5438,-4.54,-4.5283,-4.5074,-4.5052,-4.5263,-4.5074,-4.5033,-4.5263,-4.5074,-4.5052,-4.5283,-4.4849,-4.4657,-4.4738,-4.4243,-4.3955,-4.3868,-4.4106,-4.3992,-4.3532,-4.3758,-4.3726,-4.3497,-4.3497,-4.3497,-4.3497,-4.3497,-4.3497,-4.3497,-4.3497,-4.3497,-4.3497,-4.3497,-4.3497,-4.3497,0.0,0.0,0.0,0.0,0.0,0.0,0.0,0.0,0.0,0.0,0.0,0.0,0.0,0.0,0.0,0.0,0.0,0.0,-3.0702,-3.082,-3.0898,-3.0898,-3.0898,-3.0898,-3.0898,-3.0907,-3.08,-3.06,-3.0531,-3.0989,-3.1943,-3.3544,-3.4798,-3.5763,-3.7363,-3.8163,-3.8296,-3.83,-3.8789,-3.9587,-3.958,-3.9608,-3.9512,0.0,0.0,0.0,0.0,0.0,0.0,0.0,0.0,0.0,0.0,0.0,0.0,0.0,-3.4082,-3.3553,-3.4301,-3.4497,-3.4441,-3.4257,0.0,0.0,-3.6507,-3.6122,-3.6295,-3.8777,-4.0623,-4.2047,-4.2931,-4.3758,-4.4297,-4.4297,-4.5009,-4.5605,-4.5605,-4.5586,-4.5476,-4.5118,-4.5096,-4.4966,-4.4631,-4.4599,-4.4599,-4.458,-4.4599,-4.4599,-4.458,-4.4599,-4.4599,-4.458,-4.458,-4.4419,-4.3998,-4.4016,-4.3836,-4.3497,-4.3497,-4.3497,-4.3497,-4.3497,-4.3497,-4.3497,-4.3497,-4.3497,-4.3497,-4.3497,-4.3497,-4.3497,-4.3497,-4.3497,-4.3497,-4.3497,-4.3497,-4.3497,0.0,0.0,0.0,0.0,0.0,0.0,0.0,0.0,0.0,0.0,0.0,0.0,0.0,0.0,0.0,0.0,0.0,0.0,-3.0567,-3.0648,-3.0713,-3.0762,-3.0762,-3.0801,-3.0898,-3.081,-3.0722,-3.0598,-3.0482,-3.0886,-3.1802,-3.3493,-3.4782,-3.5671,-3.6872,-3.7416,-3.7455,-3.7513,-3.7618,-3.787,-3.8992,-3.9431,-3.9354,0.0,0.0,0.0,0.0,0.0,0.0,0.0,0.0,0.0,0.0,0.0,0.0,-3.4687,-3.4082,-3.3552,-3.4305,-3.4042,-3.3833,-3.4853,-3.4391,-3.4045,0.0,-3.5699,0.0,-3.8777,-3.97,-4.0489,-4.1931,-4.3335,-4.4105,-4.3547,-4.4461,-4.5243,-4.5243,-4.5052,-4.4872,-4.4757,-4.4751,-4.4707,-4.4606,-4.4346,-4.4308,-4.458,-4.4318,-4.429,-4.458,-4.4318,-4.429,-4.458,-4.4095,-4.3899,-4.4016,-4.3791,-4.3597,-4.3497,-4.3497,-4.3497,-4.3497,-4.3497,-4.3497,-4.3497,-4.3497,-4.3497,-4.3497,-4.3497,-4.3497,-4.3497,-4.3497,-4.3497,-4.3497,-4.3497,-4.3497,-4.3497,0.0,0.0,0.0,0.0,0.0,0.0,0.0,0.0,0.0,0.0,0.0,0.0,0.0,0.0,0.0,0.0,0.0,0.0,0.0,-3.0565,-3.0625,-3.0701,-3.0694,-3.0735,-3.0828,-3.074,-3.0667,-3.0605,-3.0519,-3.0929,-3.1826,-3.3564,-3.4668,-3.5243,-3.6189,-3.6459,-3.6151,-3.616,-3.6288,-3.6612,-3.7882,-3.8561,-3.8777,0.0,0.0,0.0,0.0,0.0,0.0,0.0,0.0,0.0,0.0,0.0,0.0,-3.4273,-3.3558,-3.3005,-3.3777,-3.3568,-3.3416,-3.4661,-3.4449,-3.4122,-3.4814,-3.5507,-3.6411,-3.795,-3.8815,-3.97,-4.1046,-4.2288,-4.306,-4.2926,-4.3745,-4.4273,-4.395,-4.4013,-4.3931,-4.3461,-4.3697,-4.3849,-4.3698,-4.3757,-4.3881,-4.4136,-4.3943,-4.3912,-4.4154,-4.3943,-4.3912,-4.4154,-4.3744,-4.3597,-4.3804,-4.3597,-4.3332,-4.302,-4.3332,-4.3314,-4.302,-4.3332,-4.3497,-4.3497,-4.3497,-4.3497,-4.3497,-4.3497,-4.3497,-4.3497,-4.3497,-4.3497,-4.3497,-4.3497,-4.3497,-4.3497,0.0,0.0,0.0,0.0,0.0,0.0,0.0,0.0,0.0,0.0,0.0,0.0,0.0,0.0,0.0,0.0,0.0,0.0,0.0,0.0,-3.0602,-3.0679,-3.0691,-3.0689,-3.0698,-3.0691,-3.0661,-3.0604,-3.0598,-3.1006,-3.1807,-3.3476,-3.4295,-3.4385,-3.5276,-3.526,-3.457,-3.4512,-3.4871,-3.5547,-3.6433,-3.7194,-3.7815,-3.7969,0.0,0.0,0.0,0.0,0.0,0.0,0.0,0.0,0.0,0.0,-3.4591,-3.3849,-3.2984,-3.2428,-3.3211,-3.3228,-3.3231,-3.4103,-3.4911,-3.5282,-3.4474,-3.546,-3.6555,-3.6589,-3.7911,-3.9335,-4.0185,-4.0823,-4.1454,-4.2312,-4.2829,-4.2875,-4.2165,-4.2643,-4.272,-4.1679,-4.2199,-4.2532,-4.2209,-4.2837,-4.3277,-4.3277,-4.3277,-4.3277,-4.3277,-4.3332,-4.3387,-4.3387,-4.3387,-4.3387,-4.3387,-4.3314,-4.291,-4.2194,-4.2928,-4.2928,-4.2323,-4.313,-4.3497,-4.3497,-4.3497,-4.3497,-4.3497,-4.3497,-4.3497,-4.3497,-4.3497,-4.3497,-4.3497,-4.3497,-4.3497,-4.3497,0.0,0.0,0.0,0.0,0.0,0.0,0.0,0.0,0.0,0.0,0.0,0.0,0.0,0.0,0.0,0.0,0.0,0.0,0.0,0.0,-3.0467,-3.0544,-3.0586,-3.0623,-3.0625,-3.0613,-3.0614,-3.0589,-3.0606,-3.0703,-3.0904,-3.196,-3.2478,-3.2511,-3.3445,-3.3756,-3.3594,-3.3594,-3.3668,-3.3945,-3.5375,-3.6045,-3.6334,-3.77,-3.7805,0.0,0.0,0.0,0.0,0.0,0.0,0.0,-3.6506,-3.608,-3.5606,-3.5487,-3.4814,-3.4263,-3.4971,-3.4173,-3.3492,-3.4878,-3.5372,-3.5407,-3.4993,-3.519,-3.5506,-3.5696,-3.6565,-3.764,-3.8932,-3.9834,-4.0556,-4.1181,-4.1656,-4.1931,-4.1744,-4.1646,-4.1496,-4.1254,-4.1351,-4.1429,-4.1368,-4.1515,-4.1625,-4.1625,-4.1625,-4.1625,-4.1625,-4.2213,-4.2561,-4.2561,-4.2561,-4.2561,-4.2561,-4.1937,-4.1534,-4.1368,-4.1534,-4.1864,-4.2323,-4.313,-4.3497,-4.3497,-4.3497,-4.3497,-4.3497,-4.3497,-4.3497,-4.3497,-4.3497,-4.3497,-4.3497,-4.3497,-4.3497,-4.3497,0.0,0.0,0.0,0.0,0.0,0.0,0.0,0.0,0.0,0.0,0.0,0.0,0.0,0.0,0.0,0.0,0.0,0.0,0.0,0.0,0.0,-3.0506,-3.0569,-3.0576,-3.0537,-3.0584,-3.0584,-3.0537,-3.0574,-3.0597,-3.0625,-3.1493,-3.1906,-3.1927,-3.2419,-3.2654,-3.2676,-3.2676,-3.2676,-3.2792,-3.4057,-3.4531,-3.4689,-3.6403,-3.6759,-3.6427,-3.6814,0.0,0.0,0.0,0.0,0.0,0.0,0.0,-3.582,-3.5449,-3.5009,-3.4734,-3.5075,-3.4481,-3.4019,-3.5205,-3.5493,-3.5432,-3.5155,-3.478,-3.4473,-3.4489,-3.5482,-3.6536,-3.728,-3.8315,-3.901,-3.8906,-3.9955,-4.0367,-3.9229,-3.9596,-3.9598,-3.8583,-3.9333,-3.9758,-3.9333,-4.0385,-4.0909,-4.042,-4.0842,-4.0994,-4.0737,-4.1379,-4.1735,-4.1735,-4.1735,-4.1735,-4.1735,-4.1313,-4.0928,-4.0524,-4.0928,-4.1534,-4.2323,-4.313,-4.3497,-4.3497,-4.3497,-4.3497,-4.3497,-4.3497,-4.3497,-4.3497,-4.3497,-4.3497,-4.3497,-4.3497,-4.3497,-4.3497,0.0,0.0,0.0,0.0,0.0,0.0,0.0,0.0,0.0,0.0,0.0,0.0,0.0,0.0,0.0,0.0,0.0,0.0,0.0,0.0,0.0,-3.0363,-3.058,-3.0611,-3.0419,-3.0667,-3.0698,-3.0487,-3.0544,-3.0539,-3.0513,-3.1258,-3.1612,-3.1597,-3.1614,-3.1635,-3.1686,-3.1757,-3.1777,-3.1855,-3.2754,-3.309,-3.3184,-3.4728,-3.5396,-3.563,-3.6333,-3.6763,-3.6902,-3.6106,0.0,0.0,0.0,0.0,-3.5728,-3.4995,-3.4683,-3.4608,-3.4756,-3.4665,-3.4699,-3.5353,-3.5526,-3.5393,-3.4914,-3.4385,-3.3783,-3.3183,-3.4353,-3.5507,-3.5576,-3.663,-3.731,-3.6738,-3.8106,-3.8579,-3.6578,-3.7381,-3.752,-3.5806,-3.7176,-3.7917,-3.7164,-3.9118,-4.0092,-3.926,-3.995,-4.0249,-3.9788,-4.0342,-4.0623,-4.0623,-4.0708,-4.0741,-4.0741,-4.073,-4.0359,-3.9698,-4.0506,-4.1207,-4.1782,-4.2587,-4.3135,-4.3479,-4.3332,-4.3277,-4.3277,-4.3277,-4.3277,-4.3296,-4.3442,-4.3497,-4.3497,-4.3497,-4.3497,-4.3497,0.0,0.0,0.0,0.0,0.0,0.0,0.0,0.0,0.0,0.0,0.0,0.0,0.0,0.0,0.0,0.0,0.0,0.0,-3.0075,0.0,0.0,-2.9817,-3.0712,-3.0858,-3.008,-3.1047,-3.1179,-3.0398,-3.0417,-3.0311,-3.0092,-3.0333,-3.0443,-3.0437,-3.042,-3.0425,-3.0453,-3.0752,-3.0879,-3.0957,-3.1953,-3.2343,-3.2439,-3.3356,-3.4177,-3.4841,-3.4899,-3.5854,-3.7053,-3.6872,-3.682,0.0,0.0,0.0,-3.5693,-3.5592,-3.5054,-3.4676,-3.5351,0.0,-3.5526,-3.5565,-3.5603,-3.5249,-3.3921,-3.4131,-3.4028,-3.2056,-3.2786,-3.3881,-3.4334,-3.5192,-3.5943,-3.6316,-3.6589,-3.667,-3.634,-3.6128,-3.5928,-3.563,-3.6038,-3.631,-3.6201,-3.7109,-3.768,-3.7529,-3.7642,-3.768,-3.7605,-3.8338,-3.875,-3.875,-3.9175,-3.9387,-3.9387,-3.9122,-3.8982,-3.8872,-3.968,-3.9853,-3.9568,-4.0365,-4.174,-4.3442,-4.2763,-4.2451,-4.2451,-4.2451,-4.2451,-4.2525,-4.3222,-4.3497,-4.3497,-4.3497,-4.3497,-4.3497,0.0,0.0,0.0,0.0,0.0,0.0,0.0,0.0,0.0,0.0,0.0,0.0,0.0,0.0,0.0,-3.0182,-3.0066,-2.9958,-2.9845,-2.9765,-2.9746,-2.9861,-3.0788,-3.0968,-3.0228,-3.12,-3.1275,-3.0398,-3.0398,-3.0343,-3.0209,-3.0123,-3.0022,-2.9926,-3.0028,-3.0139,-3.0217,-3.0521,-3.0665,-3.0742,-3.1269,-3.1465,-3.1562,-3.2402,-3.2969,-3.3418,-3.4336,-3.5137,-3.582,-3.6235,-3.6387,-3.6365,-3.6309,0.0,0.0,0.0,-3.5444,-3.5242,-3.5595,-3.5698,-3.5691,-3.5669,-3.5261,-3.4793,-3.4496,-3.3482,-3.2427,-3.1745,-3.1615,-3.1823,-3.2495,-3.3672,-3.4418,-3.396,-3.5011,-3.5496,-3.4326,-3.4401,-3.4294,-3.3579,-3.4199,-3.4674,-3.4562,-3.5741,-3.6468,-3.6323,-3.6865,-3.7076,-3.6764,-3.7355,-3.7742,-3.7742,-3.795,-3.8151,-3.8417,-3.8313,-3.8415,-3.8707,-3.8729,-3.8876,-3.9138,-3.9621,-4.0625,-4.1895,-4.1573,-4.1812,-4.2541,-4.2541,-4.2703,-4.3002,-4.3351,-4.3497,-4.3497,-4.3497,-4.3497,-4.3497,0.0,0.0,0.0,0.0,0.0,0.0,0.0,0.0,0.0,0.0,0.0,0.0,0.0,0.0,0.0,0.0,-2.9727,-2.9678,-2.9644,-2.9551,-2.9625,-2.9845,-3.0725,-3.0924,-3.0318,-3.1212,-3.1275,-3.0398,-3.0398,-3.0367,-3.0279,-3.0089,-2.9893,-2.9713,-2.9908,-3.007,-3.0228,-3.0482,-3.064,-3.0716,-3.0857,-3.0898,-3.0976,-3.1621,-3.2012,-3.2363,-3.3613,-3.4336,-3.4785,-3.5391,-3.5742,-3.5898,-3.5795,-3.5756,0.0,0.0,0.0,-3.5758,-3.5758,-3.5929,-3.6052,-3.5806,-3.5383,-3.5009,-3.4931,-3.3429,-3.2048,-3.1914,-3.1206,-3.0738,-3.1125,-3.2228,-3.2766,-3.1888,-3.3304,-3.3992,-3.2441,-3.2804,-3.2862,-3.1913,-3.2702,-3.3338,-3.3405,-3.4765,-3.563,-3.5599,-3.6481,-3.6843,-3.6416,-3.6921,-3.719,-3.719,-3.719,-3.736,-3.772,-3.772,-3.7929,-3.8318,-3.7911,-3.799,-3.8418,-3.8624,-3.9089,-3.9719,-4.0188,-4.098,-4.1887,-4.1887,-4.2226,-4.2778,-4.2996,-4.316,-4.3286,-4.3286,-4.3375,-4.3497,0.0,0.0,0.0,0.0,0.0,0.0,0.0,0.0,0.0,0.0,0.0,0.0,-2.8883,-2.9374,-2.955,-2.9193,-2.9494,-2.9626,-2.9414,-2.9181,-2.9138,-2.9414,-3.0452,0.0,-3.0032,-3.1111,-3.1275,-3.0398,-3.0398,-3.0267,-3.0013,-3.0013,-2.9893,-2.9713,-2.9908,-3.0079,-3.0236,-3.0497,-3.0645,-3.0721,-3.0846,-3.0898,-3.0898,-3.0957,-3.1484,-3.2207,-3.2305,-3.3359,-3.4707,-3.4746,-3.5312,-3.5976,-3.5918,-3.5892,-3.5853,0.0,0.0,0.0,-3.5888,-3.6534,-3.6992,-3.6113,-3.6464,-3.6521,-3.4519,-3.4537,-3.4457,-3.2578,-3.1934,-3.1502,-3.0775,-3.0864,-3.102,-3.0956,-3.1333,-3.1586,-3.1483,-3.1707,-3.186,-3.1825,-3.2119,-3.2642,-3.3322,-3.4092,-3.488,-3.5571,-3.6139,-3.6416,-3.6374,-3.6921,-3.719,-3.719,-3.719,-3.721,-3.7228,-3.7228,-3.7248,-3.7303,-3.7248,-3.7017,-3.655,-3.6544,-3.6732,-3.7092,-3.8793,-3.962,-3.9656,-3.9656,-4.0099,-4.0843,-4.1611,-4.2244,-4.275,-4.275,-4.305,-4.3497,0.0,0.0,0.0,0.0,0.0,0.0,0.0,0.0,0.0,0.0,0.0,0.0,0.0,-2.8762,-2.896,-2.8552,-2.8732,-2.8956,-2.9115,-2.9044,-2.9112,-2.9392,-3.0923,-3.1478,-3.0852,-3.1897,-3.2064,-3.1237,-3.0679,-3.0355,-3.0254,-3.0254,-3.0247,-3.0218,-3.0151,-3.0148,-3.0224,-3.0535,-3.0679,-3.0717,-3.0843,-3.0898,-3.0898,-3.0898,-3.1094,-3.1504,-3.2578,-3.3359,-3.4043,-3.5156,-3.5742,-3.5996,-3.5976,-3.5923,-3.5869,-3.5752,-3.5727,-3.5786,-3.5881,-3.6068,-3.6363,-3.6713,-3.6132,-3.5543,-3.5869,-3.4712,-3.3527,-3.3277,-3.2183,-3.1316,-3.1358,-3.0867,-3.0267,-2.9765,-3.0609,-3.1155,-3.0645,-3.1045,-3.1411,-3.1411,-3.1511,-3.1867,-3.2611,-3.2916,-3.3389,-3.4134,-3.4672,-3.4921,-3.4921,-3.5335,-3.5614,-3.5614,-3.6091,-3.6604,-3.7173,-3.719,-3.719,-3.719,-3.6843,-3.658,-3.6392,-3.6585,-3.6412,-3.6062,-3.7271,-3.8235,-3.9013,-3.9477,-4.0102,-4.0713,-4.1492,-4.1937,-4.2162,-4.2577,-4.2826,-4.3014,0.0,0.0,0.0,0.0,0.0,0.0,0.0,0.0,0.0,-2.7447,0.0,0.0,0.0,0.0,-2.8456,-2.8276,-2.8262,-2.8438,-2.897,-2.8994,-2.9112,-2.9392,-3.0845,-3.1505,-3.1181,-3.1855,-3.2001,-3.1558,-3.0689,-3.0311,-3.0398,-3.0398,-3.0448,-3.0506,-3.0374,-3.0356,-3.0376,-3.0599,-3.0732,-3.0773,-3.0864,-3.0898,-3.0937,-3.1172,-3.1276,-3.146,-3.2846,-3.3549,-3.3984,-3.5137,-3.5742,-3.5996,-3.5996,-3.5976,-3.5917,-3.5822,-3.5802,-3.5821,-3.5915,-3.6085,-3.6343,-3.6752,-3.6152,-3.5644,-3.6446,-3.5106,-3.3838,-3.4308,-3.3089,-3.2031,-3.2291,-3.1452,-3.0448,-2.9538,-3.0131,-3.0541,-3.017,-3.0734,-3.119,-3.119,-3.119,-3.1478,-3.2246,-3.2313,-3.2594,-3.3339,-3.3865,-3.4185,-3.4341,-3.4747,-3.4976,-3.4976,-3.5332,-3.5717,-3.6148,-3.5976,-3.5898,-3.5915,-3.5832,-3.5761,-3.5778,-3.6191,-3.6113,-3.5639,-3.6163,-3.7047,-3.8074,-3.859,-3.9299,-4.0202,-4.0665,-4.1103,-4.1578,-4.2162,-4.2537,-4.2788,0.0,0.0,0.0,0.0,0.0,0.0,0.0,0.0,-2.6526,-2.7129,0.0,0.0,0.0,0.0,0.0,-2.8368,-2.8102,-2.8228,-2.8952,-2.8994,-2.9112,-2.9372,-3.0193,-3.0727,-3.0922,0.0,0.0,0.0,0.0,-3.0155,-3.0398,-3.0398,-3.0448,-3.0498,-3.0576,-3.0637,-3.0691,-3.0702,-3.0768,-3.0898,-3.0898,-3.0918,-3.101,-3.1737,-3.2023,-3.2135,-3.2945,-3.3832,-3.4609,-3.4629,-3.5254,-3.5996,-3.5996,-3.5996,-3.5996,-3.5996,-3.5996,-3.5996,0.0,0.0,0.0,-3.6245,-3.6644,-3.7031,-3.6133,-3.582,-3.5688,-3.5603,-3.4649,-3.3753,-3.3507,-3.2555,-3.1492,-3.0475,-2.9887,-2.9678,-3.0027,-3.0734,-3.119,-3.119,-3.119,-3.1461,-3.2212,-3.2263,-3.2527,-3.3288,-3.3785,-3.4274,-3.4695,-3.5211,-3.5475,-3.5429,-3.4975,-3.4549,-3.4125,-3.3639,-3.3406,-3.3406,-3.4134,-3.4472,-3.4523,-3.525,-3.5605,-3.5622,-3.5622,-3.6045,-3.6755,-3.6772,-3.7618,-3.8937,-3.8954,-3.9717,-4.0897,-4.1507,-4.2091,-4.2678,0.0,0.0,0.0,0.0,0.0,0.0,0.0,0.0,-2.7207,0.0,0.0,0.0,-2.6476,-2.7087,-2.7619,-2.7992,-2.8183,-2.8464,-2.897,-2.8994,-2.9021,-2.9112,-3.0609,-3.1507,-3.1551,0.0,0.0,0.0,0.0,0.0,0.0,0.0,0.0,-3.0498,-3.0527,-3.0552,-3.0637,-3.0774,-3.0864,-3.0898,-3.0898,-3.1215,-3.1728,-3.193,-3.2382,-3.3056,-3.3916,-3.4414,-3.4757,-3.5396,-3.5781,-3.5996,-3.5996,-3.5996,-3.5996,-3.5996,-3.5996,-3.5996,-3.5996,0.0,0.0,0.0,0.0,0.0,-3.6751,-3.6318,-3.5805,-3.563,-3.4836,-3.4255,-3.4577,-3.3223,-3.2222,-3.2584,-3.1594,-3.0627,-3.017,-3.0734,-3.119,-3.119,-3.119,-3.1275,-3.1478,-3.1021,-3.1004,-3.1749,-3.1225,-3.1411,-3.2561,-3.3103,-3.3621,-3.4173,-3.374,-3.3726,-3.4146,-3.3663,-3.3406,-3.3406,-3.3609,-3.3981,-3.4506,-3.4709,-3.5115,-3.5622,-3.5622,-3.574,-3.5994,-3.6552,-3.7026,-3.7449,-3.799,-3.8408,-3.8828,-3.9814,-4.025,-4.0596,0.0,0.0,0.0,0.0,0.0,0.0,0.0,-2.753,-2.6825,0.0,0.0,0.0,-2.635,-2.6762,-2.7272,-2.784,-2.8405,-2.8781,-2.8989,-2.9329,-2.9342,-2.8994,-3.0692,-3.164,-3.164,0.0,0.0,0.0,0.0,0.0,0.0,0.0,0.0,0.0,-3.05,-3.0539,-3.061,-3.0722,-3.0767,-3.0819,-3.1167,-3.1579,-3.2023,-3.2699,-3.3311,-3.3915,-3.473,-3.5109,-3.529,-3.5791,-3.5985,-3.5996,-3.5996,-3.5996,-3.5996,-3.5996,-3.5996,-3.5996,-3.5996,-3.5976,-3.6152,-3.707,0.0,0.0,-3.6578,-3.6289,-3.5755,-3.5288,-3.5005,-3.4894,-3.5097,-3.4108,-3.3323,-3.3571,-3.2737,-3.1794,-3.093,-3.1019,-3.119,-3.119,-3.119,-3.119,-3.119,-3.0589,-3.0346,-3.0804,-2.999,-3.0091,-3.1373,-3.1864,-3.2439,-3.3172,-3.2738,-3.2726,-3.3176,-3.2724,-3.2476,-3.2493,-3.2797,-3.3169,-3.3575,-3.3897,-3.4286,-3.4709,-3.503,-3.5148,-3.5199,-3.5977,-3.6485,-3.6823,-3.7263,-3.7821,-3.8489,-3.9312,-3.9638,-3.9858,0.0,0.0,0.0,0.0,0.0,0.0,0.0,-2.6718,-2.6211,0.0,-2.6464,-2.6361,-2.6657,-2.6758,-2.7085,-2.7906,-2.8641,-2.9096,-2.9126,-2.9722,-2.9741,-2.9028,-3.0503,-3.1334,-3.1334,0.0,0.0,0.0,0.0,0.0,0.0,0.0,0.0,0.0,0.0,-3.0525,-3.0583,-3.0583,-3.0569,-3.0652,-3.1545,-3.1945,-3.2194,-3.3723,-3.4447,-3.471,-3.5393,-3.574,-3.5912,-3.5912,-3.5944,-3.5996,-3.5992,-3.5989,-3.5991,-3.5974,-3.5975,-3.5975,-3.5976,-3.5996,-3.6172,-3.6953,-3.6562,0.0,-3.5996,-3.5957,-3.5684,-3.4902,-3.5224,-3.556,-3.5295,-3.499,-3.4536,-3.3864,-3.3497,-3.2929,-3.1951,-3.1507,-3.1252,-3.119,-3.1151,-3.1095,-3.1095,-3.0493,-3.0126,-3.0192,-2.9717,-2.9751,-3.0583,-3.1141,-3.1688,-3.2264,-3.1933,-3.1716,-3.1716,-3.1389,-3.119,-3.1207,-3.185,-3.2205,-3.2347,-3.2983,-3.3322,-3.344,-3.4083,-3.437,-3.4438,-3.5182,-3.5943,-3.6654,-3.6654,-3.7466,-3.8696,-3.9221,-3.9413,-3.9591,-3.6043,0.0,0.0,0.0,0.0,0.0,0.0,-2.7917,-2.8059,-2.7282,-2.7109,-2.6992,-2.6741,-2.7004,-2.7483,-2.8233,-2.8732,-2.9272,-2.984,-2.9472,-2.9162,-2.902,-3.0287,-3.0994,-3.0994,-3.2684,0.0,0.0,0.0,0.0,0.0,0.0,0.0,0.0,0.0,-3.0417,-3.0448,-3.0448,-3.0444,-3.0527,-3.1518,-3.2259,-3.2902,-3.3916,-3.4787,-3.5476,-3.5631,-3.58,-3.5974,-3.5974,-3.5989,-3.5991,-3.5929,-3.5916,-3.5901,-3.5795,-3.5752,-3.5778,-3.5895,-3.5918,-3.5976,-3.6191,-3.6133,0.0,-3.5996,-3.5996,-3.5918,-3.5684,-3.5756,-3.5788,-3.563,-3.5321,-3.5054,-3.4927,-3.43,-3.336,-3.1987,-3.1716,-3.1565,-3.123,-3.0781,-3.0477,-3.0477,-2.9414,-2.8914,-2.9536,-2.9451,-2.9239,-2.8828,-2.9897,-3.0599,-3.0737,-3.1123,-3.1329,-3.1329,-3.123,-3.119,-3.119,-3.1343,-3.1715,-3.2313,-3.2425,-3.2831,-3.3406,-3.3558,-3.3609,-3.3677,-3.4404,-3.5165,-3.5842,-3.5842,-3.6028,-3.631,-3.6879,-3.7074,-3.7245,-3.5613,0.0,0.0,0.0,0.0,0.0,0.0,0.0,-2.8434,-2.7694,-2.7469,-2.7233,-2.685,-2.7078,-2.7593,-2.8424,-2.9042,-2.9602,-3.0074,-3.0119,-2.9905,-2.9315,-3.0312,-3.0939,-3.1154,-3.2499,-3.2999,0.0,0.0,0.0,0.0,0.0,0.0,0.0,0.0,-3.0196,-3.0209,-3.0336,-3.0398,-3.0475,-3.1417,-3.2263,-3.3051,-3.3955,-3.4878,-3.5707,-3.577,-3.5897,-3.5995,-3.5953,-3.5956,-3.5923,-3.5825,-3.5801,-3.5797,-3.5723,-3.5707,-3.5737,-3.585,-3.5903,-3.6016,-3.6523,-3.6641,0.0,0.0,-3.6625,-3.6469,-3.5995,-3.5848,-3.5776,-3.5716,-3.5812,-3.5902,-3.5895,-3.5419,-3.4854,-3.432,-3.3135,-3.2125,-3.1565,-3.0977,-3.0517,-3.0335,-2.9131,-2.845,-2.8512,-2.8496,-2.8482,-2.84,-2.9035,-2.9673,-3.0293,-3.0251,-3.0342,-3.0649,-3.0277,-3.0277,-3.0649,-3.0649,-3.1121,-3.2055,-3.2055,-3.2376,-3.2983,-3.311,-3.322,-3.3265,-3.4143,-3.4726,-3.5098,-3.547,-3.5859,-3.6243,-3.6478,-3.661,-3.6732,-3.5073,-3.4596,0.0,0.0,0.0,0.0,0.0,0.0,-2.8487,-2.8169,-2.7887,-2.7557,-2.7175,-2.7163,-2.7615,-2.8624,-2.9177,-2.97,-3.0291,-3.0718,-3.057,-2.9622,-3.0528,-3.1139,-3.1283,-3.2313,-3.286,0.0,0.0,0.0,0.0,0.0,0.0,0.0,0.0,-3.0061,-3.0013,-3.0299,-3.0494,-3.0717,-3.1429,-3.2102,-3.2795,-3.3872,-3.4777,-3.5514,-3.5817,-3.5957,-3.5992,-3.5937,-3.5912,-3.5888,-3.5747,-3.5695,-3.568,-3.568,-3.5661,-3.5699,-3.5834,-3.5745,-3.5856,-3.6816,-3.6914,-3.6894,0.0,0.0,0.0,-3.6543,-3.6328,-3.6257,-3.6269,-3.6518,-3.6766,-3.6922,-3.6569,-3.6425,-3.6858,-3.5123,-3.3481,-3.2616,-3.1623,-3.0853,-3.0525,-2.9324,-2.8229,-2.7625,-2.7694,-2.7946,-2.8286,-2.8415,-2.9012,-3.0081,-2.9527,-2.948,-3.0108,-2.9499,-2.9431,-2.9888,-3.004,-3.0626,-3.16,-3.16,-3.1917,-3.2519,-3.2791,-3.2995,-3.3202,-3.4069,-3.4525,-3.4729,-3.5362,-3.6039,-3.6718,-3.6718,-3.6808,-3.6908,-3.5844,-3.5459,-3.4568,0.0,0.0,0.0,0.0,0.0,-2.9319,-2.8924,-2.8646,-2.8343,-2.8003,-2.7526,-2.7718,-2.9008,-2.8642,-2.9076,-3.0951,-3.0282,-2.9708,-2.9534,-3.1082,-3.1635,-3.0957,-3.2757,-3.3781,-3.4022,0.0,0.0,0.0,0.0,0.0,0.0,-3.0254,-3.0209,-3.0013,-3.0299,-3.0852,-3.1564,-3.1723,-3.1807,-3.2025,-3.366,-3.4436,-3.4756,-3.5656,-3.5994,-3.5996,-3.5992,-3.5949,-3.5886,-3.5753,-3.5649,-3.5603,-3.5545,-3.5526,-3.5565,-3.5699,-3.5195,-3.4905,-3.5895,-3.5566,-3.5391,-3.6953,0.0,-3.7476,-3.8156,0.0,-3.8278,-3.8275,0.0,0.0,-3.8073,-3.7461,-3.7104,-3.7679,-3.7402,-3.663,-3.5157,-3.2825,-3.1312,-3.1182,-2.9609,-2.8321,-2.767,-2.8143,-2.8269,-2.7755,-2.8189,-2.8826,-2.9496,-2.9319,-2.948,-3.0108,-3.0023,-2.9685,-2.911,-2.9786,-3.0353,-3.082,-3.082,-3.1445,-3.2484,-3.2539,-3.2963,-3.367,-3.3981,-3.4565,-3.5238,-3.5477,-3.5966,-3.6446,-3.6446,-3.6742,-3.7161,-3.6064,-3.5605,-3.4999,-3.5031,0.0,0.0,0.0,0.0,-2.9969,-2.9257,-2.9319,-2.8952,-2.7822,-2.7847,-2.83,-2.9248,-2.9344,-2.9912,-3.11,-3.1468,-3.1516,-3.1266,-3.221,-3.2697,-3.2584,-3.292,-3.3449,-3.42,-3.4401,0.0,0.0,0.0,0.0,0.0,-3.0122,-3.039,-3.0772,-3.1047,-3.1379,-3.1802,-3.2326,-3.1948,-3.1301,-3.3608,-3.4828,-3.5364,-3.5797,-3.5937,-3.5937,-3.5937,-3.5918,-3.5885,-3.5751,-3.568,-3.5661,-3.5622,-3.5622,-3.5661,-3.5776,-3.5572,-3.5417,-3.5888,-3.6484,-3.7148,-3.7891,-3.7988,-3.8044,-3.841,0.0,0.0,0.0,0.0,0.0,0.0,-3.8877,-3.8835,-3.9586,-3.8295,-3.7024,-3.625,-3.4186,-3.2126,-3.0211,-2.9468,-2.8688,-2.767,-2.8203,-2.8308,-2.7655,-2.786,-2.8086,-2.8306,-2.8153,-2.8143,-2.8365,-2.8188,-2.8197,-2.8315,-2.8636,-2.921,-3.0075,-3.0779,-3.1526,-3.2307,-3.2724,-3.31,-3.3462,-3.4217,-3.4686,-3.5107,-3.6115,-3.6481,-3.6416,-3.6764,-3.6999,-3.719,-3.6138,-3.5789,-3.5495,-3.5881,0.0,0.0,0.0,-3.107,-3.046,-2.9816,-2.9822,-2.9297,-2.7876,-2.8169,-2.8732,-2.9361,-2.9756,-3.0368,-3.1295,-3.2152,-3.2563,-3.2364,-3.3214,-3.3621,-3.3476,-3.3348,-3.361,-3.4334,0.0,0.0,0.0,0.0,0.0,0.0,-3.0171,-3.0553,-3.1306,-3.1616,-3.1891,-3.2199,-3.2861,-3.2545,-3.1867,-3.3569,-3.4881,-3.5843,-3.5846,-3.5864,-3.5898,-3.5898,-3.5898,-3.5875,-3.5795,-3.5734,-3.5666,-3.5442,-3.5531,-3.5681,-3.5572,-3.5519,-3.5648,-3.6161,-3.7097,-3.7988,-3.8437,-3.8496,-3.8457,-3.8457,-3.7498,0.0,0.0,0.0,-3.8613,-3.9726,0.0,-3.9793,-4.0893,-3.9141,-3.7641,-3.7364,-3.5497,-3.3117,-3.0294,-3.0364,-2.9953,-2.8495,-2.8839,-2.8767,-2.7905,-2.766,-2.7667,-2.7767,-2.7271,-2.7112,-2.7361,-2.7,-2.7027,-2.752,-2.7565,-2.8202,-2.9327,-3.0062,-3.0938,-3.1959,-3.2606,-3.3141,-3.3599,-3.4345,-3.4905,-3.5455,-3.6595,-3.694,-3.6865,-3.7248,-3.747,-3.7596,-3.6138,-3.6266,-3.6009,-3.5174,-3.5009,-3.4282,-3.2209,-3.122,-3.0729,-3.0858,-3.0084,-2.9239,-2.8558,-2.8511,-2.8732,-2.9361,-2.93,-2.9945,-3.1664,-3.1597,-3.1609,-3.1989,-3.3897,-3.422,-3.2687,-3.4128,-3.484,-3.4674,0.0,0.0,0.0,0.0,0.0,0.0,-3.065,-3.0733,-3.1321,-3.1661,-3.2249,-3.2974,-3.3138,-3.3676,-3.4288,-3.3524,-3.4263,-3.5699,-3.5707,-3.5791,-3.5898,-3.5898,-3.5898,-3.5898,-3.5898,-3.5806,-3.556,-3.4775,-3.5086,-3.5554,-3.4821,-3.4586,-3.4949,-3.6626,-3.6518,-3.6406,-3.8047,-3.8496,-3.8594,-3.8594,-3.8555,-3.8515,-3.8554,-3.789,-3.7891,-3.9629,-3.9199,0.0,0.0,-4.0289,-3.9437,-3.8969,-3.664,-3.436,-3.2553,-3.2916,-3.2469,-3.0541,-3.0474,-2.9906,-2.8541,-2.791,-2.7894,-2.8432,-2.7133,-2.6957,-2.8079,-2.7432,-2.6978,-2.6742,-2.6992,-2.7633,-2.8514,-2.8032,-2.9158,-3.1444,-3.1941,-3.299,-3.4357,-3.433,-3.5231,-3.6636,-3.669,-3.7158,-3.7859,-3.7859,-3.8216,-3.8658,-3.7037,-3.7074,-3.6652,-3.5247,-3.5917,-3.6285,-3.5191,-3.3442,-3.2428,-3.2994,-3.2176,-3.1315,-3.0608,-3.0466,-3.0486,-3.0724,-3.0609,-3.0891,-3.1735,-3.2984,-3.3687,-3.3599,-3.5549,-3.6156,-3.5073,-3.5761,-3.6168,-3.6279,-3.5932,0.0,0.0,0.0,0.0,0.0,-3.1347,-3.1712,-3.2499,-3.2602,-3.3199,-3.4012,-3.3522,-3.346,-3.374,-3.4536,-3.5218,-3.5718,-3.5795,-3.5871,-3.5903,-3.5904,-3.5891,-3.5904,-3.5908,-3.5876,-3.5669,-3.4866,-3.5237,-3.5717,-3.4833,-3.5003,-3.5553,-3.6054,-3.6465,-3.6906,-3.7473,-3.7226,-3.7031,-3.7617,-3.6816,-3.6367,-3.7539,-3.75,-3.7676,-3.8848,-3.9277,-3.9667,0.0,-3.947,-3.8362,-3.7098,-3.6119,-3.5002,-3.3575,-3.2756,-3.1893,-3.0708,-3.0293,-2.9726,-2.893,-2.8434,-2.7679,-2.6622,-2.6443,-2.6146,-2.5663,-2.5779,-2.5805,-2.5709,-2.5821,-2.6031,-2.6346,-2.7279,-2.8459,-2.9816,-3.1398,-3.2683,-3.3665,-3.4448,-3.5082,-3.5629,-3.6225,-3.6918,-3.7685,-3.8232,-3.8546,-3.8707,-3.7507,-3.7507,-3.7147,-3.6083,-3.6468,-3.6895,-3.6773,-3.518,-3.416,-3.4724,-3.3729,-3.2713,-3.2084,-3.1656,-3.1391,-3.1391,-3.1426,-3.1723,-3.2441,-3.3613,-3.4383,-3.4606,-3.5912,-3.6268,-3.5578,-3.6315,-3.6752,-3.6802,-3.6767,-3.6616,0.0,0.0,0.0,0.0,0.0,-3.2281,-3.314,-3.3159,-3.3712,-3.4552,-3.4015,-3.3534,-3.3305,-3.4909,-3.5399,-3.5212,-3.5271,-3.53,-3.5293,-3.4993,-3.5132,-3.5342,-3.5029,-3.5142,-3.5185,-3.4062,-3.4355,-3.491,-3.4306,-3.4768,-3.5512,-3.6026,-3.6632,-3.7225,-3.7518,-3.724,-3.6992,-3.7246,-3.6406,-3.5879,-3.6699,-3.6836,-3.7129,-3.8008,-3.8867,-3.9434,0.0,-3.8887,-3.8051,-3.6928,-3.6626,-3.5864,-3.4223,-3.4238,-3.3575,-3.1742,-3.1588,-3.1145,-3.0182,-2.9567,-2.8487,-2.6888,-2.6593,-2.6032,-2.5133,-2.4988,-2.49,-2.4836,-2.4646,-2.4761,-2.5167,-2.6068,-2.7226,-2.8609,-3.0588,-3.1882,-3.2685,-3.4119,-3.4913,-3.5246,-3.5799,-3.6685,-3.769,-3.8125,-3.845,-3.8707,-3.7581,-3.7569,-3.7606,-3.7661,-3.6674,-3.6196,-3.7079,-3.6355,-3.5762,-3.5927,-3.4691,-3.3544,-3.2836,-3.2027,-3.1483,-3.1477,-3.1674,-3.2336,-3.3578,-3.3432,-3.3742,-3.4899,-3.5037,-3.4832,-3.4269,-3.5944,-3.6678,-3.642,-3.7276,0.0,0.0,0.0,0.0,0.0,-3.2736,-3.249,-3.3272,-3.333,-3.3846,-3.4597,-3.454,-3.3901,-3.3138,-3.4616,-3.4768,-3.4196,-3.4178,-3.4218,-3.418,-3.3359,-3.3686,-3.4288,-3.3468,-3.3752,-3.4105,-3.2471,-3.2617,-3.3289,-3.3255,-3.3826,-3.4812,-3.6325,-3.681,-3.7096,-3.7918,-3.8276,-3.8184,-3.7402,-3.7207,-3.6934,-3.6191,-3.6055,-3.6348,-3.7226,-3.8066,-3.8574,-3.8535,-3.8535,-3.8476,-3.8301,-3.7941,-3.6895,-3.4835,-3.7147,-3.725,-3.3623,-3.4175,-3.3916,-3.2154,-3.1163,-3.0172,-2.9171,-2.7454,-2.6507,-2.6419,-2.5113,-2.4367,-2.4216,-2.3676,-2.3978,-2.4924,-2.447,-2.554,-2.7876,-2.9562,-3.0729,-3.1604,-3.3405,-3.467,-3.5472,-3.5472,-3.6454,-3.7827,-3.7624,-3.8028,-3.8707,-3.8395,-3.8872,-3.946,-4.0084,-3.7807,-3.6587,-3.8606,-3.7064,-3.5877,-3.6421,-3.5744,-3.4906,-3.4105,-3.3333,-3.2807,-3.2615,-3.2127,-3.2231,-3.3252,-3.3821,-3.4087,-3.411,-3.5483,-3.5925,-3.5187,-3.7203,-3.8231,-3.8156,-3.8618,0.0,-3.9003,0.0,0.0,0.0,0.0,-3.3984,-3.4241,-3.426,-3.4369,-3.4561,-3.4943,-3.4119,-3.2862,-3.4351,-3.4025,-3.2886,-3.3585,-3.3975,-3.4011,-3.3106,-3.3102,-3.341,-3.3205,-3.328,-3.3265,-3.2289,-3.2625,-3.3163,-3.2511,-3.2954,-3.369,-3.4054,-3.4697,-3.527,-3.5502,-3.5618,-3.582,-3.625,-3.582,-3.5684,-3.6777,-3.6973,-3.7246,-3.8125,-3.8457,-3.8379,-3.7715,-3.7637,-3.7383,-3.6699,-3.6528,-3.6854,-3.7868,-3.6382,-3.5372,-3.5354,-3.4118,-3.3208,-3.2839,-3.266,-3.1618,-2.9448,-2.8221,-2.7187,-2.6322,-2.5433,-2.4716,-2.4106,-2.401,-2.4069,-2.4342,-2.486,-2.6017,-2.7742,-2.9372,-3.0854,-3.2219,-3.3198,-3.4118,-3.491,-3.491,-3.5768,-3.7121,-3.8037,-3.8524,-3.8707,-3.9221,-3.9863,-4.0689,-4.1479,-3.9515,-3.8287,-3.9757,-3.8643,-3.7869,-3.8469,-3.7466,-3.6527,-3.6208,-3.4703,-3.3579,-3.3296,-3.2756,-3.2791,-3.3689,-3.4087,-3.4385,-3.4559,-3.5379,-3.5664,-3.5329,-3.6882,-3.7944,-3.845,-3.9023,0.0,-3.933,0.0,0.0,0.0,0.0,-3.4738,-3.5069,-3.4959,-3.4655,-3.4327,-3.4866,-3.4247,0.0,-3.4137,-3.3732,-3.2633,-3.282,-3.2873,-3.2749,-3.1832,-3.1957,-3.2422,-3.2032,-3.2179,-3.2346,-3.1607,-3.1732,-3.2094,-3.2011,-3.2354,-3.2815,-3.3131,-3.3615,-3.4126,-3.4505,-3.4945,-3.541,-3.5898,-3.5918,-3.6016,-3.6621,-3.7031,-3.7715,-3.8965,-3.918,-3.8867,-3.7988,-3.7871,-3.7539,-3.668,-3.6894,-3.7613,-3.8822,-3.6475,-3.5338,-3.6408,-3.5373,-3.4656,-3.4574,-3.4452,-3.3323,-3.097,-2.9868,-2.867,-2.729,-2.655,-2.5678,-2.464,-2.4746,-2.4929,-2.5174,-2.5737,-2.6935,-2.8653,-3.0063,-3.1422,-3.2691,-3.373,-3.4434,-3.4927,-3.5249,-3.5786,-3.6526,-3.784,-3.8497,-3.8707,-4.0175,-4.0781,-4.1515,-4.2323,-4.1432,-4.0668,-4.0836,-4.0412,-4.0124,-4.0516,-3.9032,-3.7909,-3.7849,-3.5679,-3.403,-3.3579,-3.3329,-3.3533,-3.4311,-3.4268,-3.4577,-3.5347,-3.4967,-3.487,-3.5105,-3.5921,-3.6897,-3.8007,-3.8873,0.0,0.0,0.0,0.0,0.0,-3.5599,-3.5197,-3.5629,-3.5393,-3.4816,-3.4141,-3.4558,-3.4259,-3.3612,-3.4027,-3.3594,-3.2747,-3.2035,-3.1562,-3.1127,-3.0285,-3.0694,-3.141,-3.0641,-3.0929,-3.1429,-3.0794,-3.0617,-3.0787,-3.1636,-3.1855,-3.2028,-3.2718,-3.3024,-3.3338,-3.4113,-3.5001,-3.5684,-3.5801,-3.6426,-3.6797,-3.6269,-3.6875,-3.7969,-3.9473,-3.9726,-3.9394,-3.8398,-3.8359,-3.8105,-3.7226,-3.7695,0.0,-3.8418,-3.7012,-3.6381,-3.7123,-3.7075,-3.689,-3.6573,-3.6232,-3.5096,-3.2984,-3.1827,-3.0521,-2.9008,-2.82,-2.7115,-2.5738,-2.5877,-2.6249,-2.6808,-2.7055,-2.821,-3.0148,-3.1294,-3.2262,-3.3168,-3.4469,-3.5062,-3.5215,-3.5923,-3.616,-3.6241,-3.7416,-3.821,-3.875,-4.1754,-4.1992,-4.2341,-4.3149,-4.2723,-4.2276,-4.2343,-4.0765,-3.9423,-3.8911,-3.8491,-3.7523,-3.5614,-3.4977,-3.4304,-3.3337,-3.3226,-3.3494,-3.4185,-3.4203,-3.439,-3.4819,-3.4965,-3.5034,-3.5105,-3.6105,-3.7094,-3.8007,-3.8873,-3.97,0.0,0.0,0.0,0.0,-3.7346,-3.6132,-3.5359,-3.5261,-3.5002,-3.463,-3.4404,-3.4204,-3.4064,-3.3924,-3.3105,-3.198,-3.1849,-3.1444,-3.0879,-3.0224,-3.0278,-3.059,-3.0436,-3.0544,-3.0698,-3.0621,-3.0637,-3.0752,-3.1023,-3.1094,-3.1133,-3.1266,-3.1844,-3.2422,-3.2597,-3.3258,-3.4062,-3.4785,-3.5059,-3.5547,-3.6836,-3.7773,-3.8476,-3.8789,-3.8828,-3.8262,-3.668,-3.707,-3.7207,-3.6328,-3.5723,-3.5957,-3.7383,-3.7246,-3.7363,-3.8103,-3.7489,-3.7006,-3.6833,-3.7167,-3.637,-3.4167,-3.3096,-3.2226,0.0,-3.0119,-2.8961,-2.8099,-2.7549,-2.7698,-2.8488,-2.8842,-2.9922,-3.1574,-3.2331,-3.3148,-3.3923,-3.4297,-3.4831,-3.5432,-3.5585,-3.6291,-3.7243,-3.749,-3.8188,-3.8999,-4.2763,-4.291,-4.3039,-4.3424,-4.3304,-4.3124,-4.3124,-4.1524,-4.022,-3.9996,-3.8638,-3.7305,-3.6324,-3.5208,-3.4299,-3.378,-3.3723,-3.3931,-3.4423,-3.4595,-3.4735,-3.4908,-3.5155,-3.5304,-3.5304,-3.5797,-3.6719,-3.8007,-3.8411,-3.9084,-3.9965,0.0,0.0,-3.8715,-3.7287,-3.6114,-3.523,-3.4845,-3.4599,-3.4456,-3.4124,-3.4093,-3.4139,-3.3599,-3.2809,-3.1972,-3.1657,-3.105,-3.0392,-3.0102,-3.0202,-3.0448,-3.0448,-3.0506,-3.0564,-3.0621,-3.066,-3.0733,-3.0862,-3.0898,-3.0898,-3.0898,-3.1211,-3.1523,-3.1523,-3.2187,-3.3008,-3.3848,-3.4394,-3.5234,-3.6973,-3.8008,-3.8594,-3.8594,-3.8984,-3.8672,-3.6914,-3.7031,-3.6816,-3.5488,-3.5351,-3.5703,-3.6543,-3.6962,-3.7362,-3.7747,-3.7369,-3.6841,-3.6265,-3.7321,-3.6983,-3.4831,0.0,0.0,-3.2261,0.0,-3.0488,-2.9324,-2.9561,-2.966,-2.9678,-3.0868,-3.1847,-3.2631,-3.3397,-3.4191,-3.493,-3.4956,-3.518,-3.5493,-3.5493,-3.6147,-3.7111,-3.7243,-3.7882,-3.8709,-4.3615,-4.3744,-4.3744,-4.3744,-4.3744,-4.367,-4.3472,-4.2234,-4.1323,-4.1343,-3.9122,-3.7462,-3.7353,-3.5868,-3.4743,-3.434,-3.4311,-3.4445,-3.4754,-3.4981,-3.5122,-3.519,-3.5383,-3.5493,-3.5493,-3.5493,-3.6238,-3.7719,-3.7911,-3.845,-3.9296,-3.9469,-3.8973,-3.789,-3.6965,-3.5987,-3.4945,-3.4416,-3.42,-3.4176,-3.3961,-3.3932,-3.3952,-3.3314,-3.2647,-3.1955,-3.1464,-3.0776,-3.0089,-3.0089,-3.0279,-3.0506,-3.0506,-3.0564,-3.0621,-3.0679,-3.0711,-3.0762,-3.087,-3.0898,-3.0898,-3.0898,-3.0898,-3.0898,-3.0898,-3.1426,-3.2207,-3.3203,-3.4238,-3.5449,-3.7012,-3.7715,-3.8105,-3.8281,-3.873,-3.8594,-3.7226,-3.7012,-3.6445,-3.4883,-3.5469,-3.5859,-3.5488,-3.6484,-3.6998,-3.6672,-3.692,-3.6724,-3.5913,-3.717,-3.7175,-3.5531,-3.5477,-3.478,-3.3294,0.0,-3.2,-3.0552,-3.1298,-3.1404,-3.0974,-3.2526,-3.3448,-3.3838,-3.4525,-3.5143,-3.5689,-3.5647,-3.5584,-3.5526,-3.5699,-3.621,-3.6907,-3.7317,-3.7898,-3.8531,-4.4482,-4.4501,-4.4501,-4.4501,-4.4501,-4.421,-4.3431,-4.2573,-4.179,-4.1199,-3.9822,-3.8368,-3.6935,-3.6793,-3.6249,-3.4785,-3.4653,-3.4774,-3.5034,-3.5088,-3.5207,-3.5446,-3.5493,-3.5493,-3.5493,-3.5493,-3.593,-3.6834,-3.7603,-3.845,-3.9315,-4.0046,-3.941,-3.7618,0.0,0.0,0.0,-3.4242,-3.42,-3.42,-3.4152,-3.3885,-3.3463,-3.3388,-3.2543,-3.1381,-3.1321,-3.0901,-3.0367,-3.0367,-3.0405,-3.0506,-3.0506,-3.0583,-3.0679,-3.0698,-3.0782,-3.0876,-3.0898,-3.0898,-3.0898,-3.0898,-3.0898,-3.0898,-3.0898,-3.0957,-3.1465,-3.3066,-3.4726,-3.6172,-3.7129,-3.6719,-3.6504,-3.7285,-3.6836,-3.6309,-3.6133,-3.6113,-3.5762,-3.4805,-3.5469,-3.5371,-3.3809,-3.5854,-3.6596,-3.496,-3.6196,-3.6935,-3.6799,-3.692,0.0,-3.6738,-3.6728,-3.6644,-3.6469,-3.4908,-3.3602,-3.2608,-3.2118,-3.2234,-3.2941,-3.3244,-3.4237,-3.5741,-3.5819,-3.5796,-3.5689,-3.5685,-3.5622,-3.557,-3.6315,-3.6926,-3.7525,-3.8347,-3.8795,-3.904,-4.458,-4.458,-4.458,-4.458,-4.4165,-4.3712,-4.3347,-4.2178,-4.1042,-4.0224,-3.884,-3.7643,-3.7024,-3.6591,-3.5984,-3.5021,-3.5381,-3.5566,-3.5358,-3.5354,-3.5383,-3.5493,-3.5493,-3.5493,-3.5493,-3.5493,-3.5892,-3.6699,-3.8104,-3.92,-4.0027,-4.0335,0.0,0.0,0.0,-3.5155,-3.4486,-3.4288,-3.4334,-3.4451,-3.3923,-3.3693,-3.3521,-3.2517,-3.1889,-3.1487,-3.0988,-3.0663,-3.0467,-3.0506,-3.0506,-3.051,-3.0548,-3.0614,-3.0726,-3.0804,-3.0858,-3.0898,-3.0898,-3.0898,-3.0898,-3.0898,-3.0898,-3.0898,-3.0898,-3.0898,-3.123,-3.2422,-3.4023,-3.5332,-3.5684,-3.6309,-3.6719,-3.6543,-3.668,-3.6406,-3.5371,-3.5215,-3.4726,-3.3359,-3.3516,-3.3633,-3.3418,-3.5252,-3.6162,-3.5431,-3.7396,-3.8125,-3.7012,-3.7467,0.0,-3.7733,0.0,-3.6133,-3.6181,-3.4937,-3.3633,-3.2295,-3.2556,-3.2602,-3.2522,-3.3612,-3.4805,-3.5996,-3.5996,-3.5934,-3.5809,-3.5745,-3.5641,-3.5603,-3.5872,-3.6604,-3.7528,-3.7714,-3.8352,-3.9072,-4.4877,-4.4877,-4.4801,-4.4554,-4.398,-4.343,-4.2936,-4.1646,-4.0485,-3.9859,-3.8153,-3.6937,-3.6876,-3.6425,-3.5892,-3.5264,-3.5739,-3.5898,-3.5512,-3.5493,-3.5493,-3.5493,-3.5493,-3.5493,-3.5493,-3.5493,-3.5795,-3.6353,-3.7815,-3.8834,-3.9392,0.0,0.0,0.0,-3.5262,-3.4779,-3.4674,-3.4464,-3.4379,-3.4396,-3.3772,-3.3386,-3.3047,-3.1881,-3.1391,-3.1256,-3.0698,-3.0506,-3.0518,-3.0586,-3.0568,-3.053,-3.061,-3.0685,-3.0781,-3.0879,-3.0898,-3.0898,-3.0898,-3.0898,-3.0898,-3.0898,-3.0898,-3.0898,-3.0898,-3.0898,-3.1152,-3.2012,-3.332,-3.4316,-3.4316,-3.5527,-3.625,-3.5371,-3.5742,-3.5801,-3.4844,-3.4473,-3.3965,-3.3047,-3.3164,-3.3242,-3.3066,-3.4805,-3.5812,-3.5562,-3.7928,-3.857,-3.6725,-3.7444,0.0,0.0,0.0,0.0,-3.6048,-3.5139,-3.3847,-3.2193,-3.289,-3.2908,-3.2404,-3.4195,-3.5371,-3.5996,-3.5996,-3.5936,-3.5821,-3.5736,-3.5656,-3.5603,-3.5776,-3.6527,-3.7509,-3.7578,-3.83,-3.9205,-4.5586,-4.5586,-4.5316,-4.4451,-4.4297,-4.3739,-4.2069,-4.1085,-4.0508,-4.0489,-3.8296,-3.6612,-3.6326,-3.6546,-3.6358,-3.557,-3.5493,-3.5512,-3.5493,-3.5493,-3.5493,-3.5493,-3.5493,-3.5493,-3.5493,-3.5493,-3.5493,-3.5512,-3.6334,-3.6738,-3.6757,0.0,-3.7402,-3.6304,-3.6268,-3.5685,-3.4694,-3.4713,-3.4339,-3.3808,-3.3808,-3.2962,-3.1718,-3.1698,-3.116,-3.0417,-3.0487,-3.0506,-3.0513,-3.0579,-3.06,-3.0614,-3.0683,-3.0782,-3.0898,-3.0898,-3.0898,-3.0898,-3.0898,-3.0898,-3.0898,-3.0898,-3.0898,-3.0898,-3.0898,-3.0898,-3.1152,-3.2012,-3.2851,-3.3418,-3.3418,-3.4141,-3.4453,-3.3574,-3.3437,-3.373,-3.457,-3.3965,-3.373,-3.457,-3.543,-3.4961,-3.2461,-3.4512,-3.5644,-3.4785,-3.7138,-3.777,-3.582,-3.6547,0.0,-3.7011,-3.6991,0.0,-3.6889,-3.6021,-3.468,-3.2891,-3.3115,-3.3198,-3.3249,-3.5139,-3.5996,-3.5996,-3.5996,-3.5899,-3.571,-3.5703,-3.5631,-3.5584,-3.6392,-3.7025,-3.7603,-3.8461,-3.914,-3.9552,-4.5586,-4.5124,-4.4624,-4.4355,-4.3355,-4.2431,-4.1893,-4.0585,-3.9469,-3.8873,-3.7565,-3.6459,-3.581,-3.633,-3.6392,-3.557,-3.6007,-3.6103,-3.5545,-3.4949,-3.4872,-3.5468,-3.493,-3.4891,-3.5488,-3.5493,-3.5526,-3.5584,-3.693,0.0,0.0,-3.7677,-3.6927,-3.5467,-3.5287,-3.5116,-3.4963,-3.4963,-3.4626,-3.4021,-3.3426,-3.2589,-3.1641,-3.1044,-3.0679,-3.0487,-3.0544,-3.0602,-3.0648,-3.078,-3.08,-3.0808,-3.0837,-3.081,-3.0775,-3.087,-3.0898,-3.0898,-3.0898,-3.0898,-3.0898,-3.0898,-3.0898,-3.0898,-3.0898,-3.0898,-3.0976,-3.1269,-3.1992,-3.2578,-3.2578,-3.3262,-3.3711,-3.3457,-3.3398,-3.3301,-3.3027,-3.2754,-3.2461,-3.2148,-3.2344,-3.2441,-3.2226,-3.3965,-3.5254,-3.5566,-3.8,-3.8969,-3.7741,0.0,0.0,0.0,-3.6754,0.0,-3.6895,-3.6001,-3.4666,-3.2961,-3.3019,-3.3134,-3.3315,-3.455,-3.5449,-3.5996,-3.5996,-3.5938,-3.5825,-3.5747,-3.5649,-3.5603,-3.5815,-3.622,-3.6766,-3.7622,-3.7905,-3.7999,-4.5586,-4.4893,-4.4201,-4.3893,-4.272,-4.17,-4.1354,-4.0162,-3.9104,-3.8565,-3.745,-3.6507,-3.6007,-3.6142,-3.6065,-3.5532,-3.5661,-3.5545,-3.5045,-3.4199,-3.3949,-3.4507,-3.4007,-3.3987,-3.4551,-3.457,0.0,-3.471,-3.5647,-3.6108,-3.6128,-3.5914,-3.5293,-3.4282,-3.4099,-3.4116,-3.4301,-3.4607,-3.4184,-3.3237,-3.3006,-3.2218,-3.116,-3.0609,-3.0417,-3.0479,-3.0568,-3.0627,-3.0683,-3.0852,-3.0891,-3.0899,-3.0905,-3.0831,-3.0801,-3.0871,-3.0898,-3.0898,-3.0898,-3.0898,-3.0898,-3.0898,-3.0898,-3.0898,-3.0898,-3.0898,-3.0898,-3.0898,-3.1328,-3.1719,-3.1719,-3.2383,-3.2832,-3.2519,-3.2734,-3.2773,-3.2266,-3.2165,-3.2045,-3.1831,-3.1805,-3.2012,-3.2559,-3.3574,-3.457,-3.5449,-3.7637,-3.8691,-3.8144,0.0,-3.8561,-3.742,-3.6601,-3.6252,-3.6367,-3.5468,-3.432,-3.3,-3.2744,-3.2712,-3.2919,-3.4144,-3.5,-3.5527,-3.5841,-3.5916,-3.5817,-3.5714,-3.5622,-3.5565,-3.5526,-3.5882,-3.6542,-3.7381,-3.7792,-3.8058,-4.5586,-4.4855,-4.397,-4.3239,-4.2335,-4.145,-4.0623,-3.9815,-3.9277,-3.9219,-3.7738,-3.668,-3.6622,-3.5892,-3.543,-3.5474,0.0,-3.4199,-3.4199,-3.3333,-3.2833,-3.2891,-3.2852,-3.2859,-3.3,-3.3,-3.3064,-3.3185,-3.3071,-3.3006,-3.3,-3.2917,-3.2891,-3.2891,-3.2891,-3.2891,-3.2949,-3.3776,-3.3199,-3.1833,-3.2545,-3.1891,-3.0475,-3.0417,-3.0398,-3.0425,-3.0545,-3.06,-3.0638,-3.0835,-3.0898,-3.0898,-3.0898,-3.0898,-3.0898,-3.0898,-3.0898,-3.0898,-3.0898,-3.0898,-3.0898,-3.0898,-3.0898,-3.0898,-3.0898,-3.0898,-3.0898,-3.0898,-3.0898,-3.0898,-3.0898,-3.1562,-3.1855,-3.1113,-3.1659,-3.2185,-3.2186,-3.213,-3.2366,-3.3118,-3.3248,-3.3299,-3.3301,-3.3359,-3.3789,-3.4726,-3.6289,-3.7246,0.0,0.0,-3.8573,-3.5885,-3.6563,-3.6477,-3.543,-3.4603,-3.3782,-3.291,-3.2259,-3.2018,-3.2246,-3.3828,-3.459,-3.4745,-3.5485,-3.5759,-3.5687,-3.5635,-3.5565,-3.5493,-3.5493,-3.5968,-3.6738,-3.7661,-3.8469,-3.9157,-4.5586,-4.4393,-4.3316,-4.3124,-4.1835,-4.0739,-4.0527,-3.9815,-3.9065,-3.8392,-3.7373,-3.6469,-3.5853,-3.5026,-3.4776,-3.5449,-3.4699,-3.4199,-3.4199,-3.2814,-3.2256,-3.2872,-3.2314,-3.2301,-3.3,-3.3,-3.3017,-3.3055,-3.3125,-3.3064,-3.2917,-3.291,-3.2891,-3.2891,-3.2891,-3.2891,-3.291,-3.3122,-3.2987,-3.2583,-3.216,-3.1756,-3.1314,-3.0648,-3.0417,-3.0487,-3.0565,-3.0633,-3.0697,-3.0859,-3.0898,-3.0898,-3.0898,-3.0898,-3.0898,-3.0898,-3.0898,-3.0898,-3.0898,-3.0898,-3.0898,-3.0898,-3.0898,-3.0898,-3.0898,-3.0898,-3.0898,-3.0898,-3.0898,-3.0898,-3.0898,-3.1074,-3.1367,-3.1816,-3.1974,-3.2048,-3.2048,-3.2546,-3.2744,-3.2281,-3.2859,-3.3297,-3.3299,-3.3359,-3.4043,-3.5586,-3.6074,-3.6601,-3.7266,-3.8323,-3.8228,-3.6742,-3.6841,-3.6161,-3.4526,-3.4345,-3.3588,-3.2223,-3.1508,-3.1532,-3.2207,-3.2617,-3.3496,-3.4706,-3.4856,-3.5207,-3.57,-3.563,-3.5565,-3.5493,-3.5493,-3.5622,-3.5968,-3.745,-3.7719,-3.7525,-4.5066,-4.397,-4.297,-4.2585,-4.1393,-4.0489,-4.0489,-4.0123,-3.9392,-3.8161,-3.7584,-3.6834,-3.5641,-3.4718,-3.4391,-3.4853,-3.4103,-3.3622,-3.3647,-3.2455,-3.1795,-3.1852,-3.1429,-3.1429,-3.1936,-3.1955,-3.1958,-3.1961,-3.1999,-3.1952,-3.1795,-3.1775,-3.1756,-3.1756,-3.1756,-3.1756,-3.1775,-3.2179,-3.2122,-3.1756,-3.1718,-3.1468,-3.1064,-3.0571,-3.0417,-3.0467,-3.0564,-3.061,-3.0648,-3.0837,-3.0859,-3.082,-3.0879,-3.0898,-3.0898,-3.0898,-3.0898,-3.0898,-3.0898,-3.0898,-3.0898,-3.0898,-3.0898,-3.0898,-3.0898,-3.0898,-3.0898,-3.0898,-3.0898,-3.0898,-3.0898,-3.0898,-3.1055,-3.1523,-3.1487,-3.1411,-3.1403,-3.1728,-3.1787,-3.1352,-3.1756,-3.2231,-3.2667,-3.3131,-3.3965,-3.5293,-3.6133,0.0,-3.7851,-3.8283,-3.7898,-3.6549,-3.6852,-3.6348,-3.4891,-3.4595,-3.3813,-3.259,-3.1859,-3.1934,-3.2754,-3.2754,-3.3441,-3.4679,-3.4972,-3.5319,-3.5661,-3.5584,-3.5545,-3.5493,-3.5493,-3.5493,-3.5699,-3.7373,-3.7602,-3.7305,-4.4259,-4.3451,-4.2662,-4.1931,-4.1085,-4.0489,-4.0489,-4.0392,-3.9758,-3.82,-3.7892,-3.7219,-3.568,-3.4603,-3.4064,-3.418,-3.3295,-3.2744,-3.2808,-3.2058,-3.1306,-3.0632,-3.0593,-3.0629,-3.0698,-3.0698,-3.0679,-3.066,-3.0602,-3.0544,-3.0487,-3.0417,-3.0398,-3.0398,-3.0398,-3.0398,-3.0436,-3.1198,-3.116,-3.066,-3.1256,-3.1141,-3.0571,-3.0436,-3.0398,-3.0417,-3.0544,-3.0549,-3.054,-3.0788,-3.0797,-3.0723,-3.0859,-3.0898,-3.0898,-3.0898,-3.0898,-3.0898,-3.0898,-3.0898,-3.0898,-3.0898,-3.0898,-3.0898,-3.0898,-3.0898,-3.0898,-3.0898,-3.0898,-3.0898,-3.0898,-3.1016,-3.1172,-3.1426,-3.1358,-3.1276,-3.128,-3.1287,-3.116,-3.0833,-3.1046,-3.1411,-3.1941,-3.2859,-3.3711,-3.4453,-3.5996,-3.7285,-3.8164,-3.8105,-3.7386,-3.5955,-3.6735,-3.6633,-3.5545,-3.4782,-3.4051,-3.3306,-3.268,-3.2732,-3.3385,-3.3385,-3.3815,-3.4629,-3.5233,-3.5524,-3.5603,-3.5545,-3.5493,-3.5493,-3.5493,-3.5493,-3.5685,-3.719,-3.7625,-3.768,-4.3316,-4.2585,-4.197,-4.1816,-4.1085,-4.0489,-4.0489,-3.9912,-3.9123,-3.8123,-3.7353,-3.6546,-3.5603,-3.4064,-3.3391,-3.4141,-3.2776,-3.1898,-3.1994,-3.1186,-3.0674,-3.0593,-3.06,-3.064,-3.071,-3.0698,-3.0641,-3.0525,-3.0525,-3.0487,-3.0417,-3.0398,-3.0398,-3.0398,-3.0398,-3.0398,-3.0398,-3.0533,-3.0948,-3.1448,-3.0852,-3.0968,-3.1429,-3.0679,-3.0398,-3.0398,-3.0487,-3.051,-3.0521,-3.0675,-3.0714,-3.0723,-3.0859,-3.0898,-3.0898,-3.0898,-3.0898,-3.0898,-3.0898,-3.0898,-3.0898,-3.0898,-3.0898,-3.0898,-3.0898,-3.0898,-3.0898,-3.0898,-3.0898,-3.0898,-3.0898,-3.1504,-3.2461,-3.3887,-3.4008,-3.3932,-3.3994,0.0,-3.4026,-3.1954,-3.3051,-3.3454,-3.2127,-3.2839,-3.3457,-3.3594,-3.4531,-3.5488,-3.6367,-3.6387,-3.6247,-3.5987,-3.6666,-3.6288,-3.4787,-3.3917,-3.3458,-3.3389,-3.326,-3.3247,-3.3323,-3.3323,-3.3761,-3.4509,-3.4519,-3.4937,-3.5603,-3.5545,-3.5493,-3.5493,-3.5493,-3.5493,-3.5595,-3.6291,-3.6971,-3.7547,-4.2489,-4.2085,-4.1476,-4.0415,-3.9919,-3.958,-3.9414,-3.8689,-3.8076,-3.7761,-3.6993,-3.6236,-3.557,-3.3949,-3.3064,-3.3449,-3.1968,-3.1044,-3.109,-3.1155,-3.103,-3.0619,-3.0606,-3.0607,-3.0651,-3.0642,-3.0602,-3.0506,-3.0506,-3.0467,-3.0398,-3.0398,-3.0398,-3.0398,-3.0398,-3.0398,-3.0398,-3.0398,-3.0629,-3.0968,-3.0552,-3.0641,-3.0968,-3.0552,-3.0398,-3.0398,-3.0487,-3.0486,-3.0472,-3.0637,-3.0684,-3.0677,-3.0857,-3.0898,-3.0898,-3.0898,-3.0898,-3.0898,-3.0898,-3.0898,-3.0898,-3.0898,-3.0898,-3.0898,-3.0898,-3.0898,-3.0898,-3.0898,-3.0898,-3.0898,-3.0898,-3.1601,-3.2441,-3.3223,-3.3623,-3.3857,-3.3901,-3.4124,-3.3732,-3.2143,-3.2704,-3.2739,-3.1527,-3.2617,-3.3398,-3.3398,-3.4648,-3.5781,-3.6641,-3.6269,-3.6227,-3.6684,-3.6544,-3.6094,-3.5373,-3.4962,-3.4765,-3.4785,-3.4296,-3.4284,-3.4691,-3.4164,-3.4366,-3.5095,-3.504,-3.5205,-3.5545,-3.5526,-3.5493,-3.5493,-3.5493,-3.5417,-3.5426,-3.6551,-3.6994,-3.7228,-4.1623,-4.1303,-4.0663,-3.9164,-3.867,-3.8422,-3.8156,-3.7416,-3.6991,-3.7185,-3.6516,-3.5799,-3.5249,-3.3814,-3.2814,-3.2641,-3.1256,-3.0417,-3.0467,-3.11,-3.1213,-3.0637,-3.0598,-3.0579,-3.0579,-3.0577,-3.0544,-3.0487,-3.0487,-3.0448,-3.0398,-3.0398,-3.0398,-3.0398,-3.0398,-3.0398,-3.0398,-3.0398,-3.0398,-3.0398,-3.0398,-3.0398,-3.0398,-3.0398,-3.0398,-3.0398,-3.0467,-3.0448,-3.0448,-3.0621,-3.0656,-3.0659,-3.0832,-3.0892,-3.0891,-3.0852,-3.0845,-3.0835,-3.0898,-3.0898,-3.0898,-3.0898,-3.1055,-3.1152,-3.0957,-3.1055,-3.1133,-3.0937,-3.0898,-3.0898,-3.0898,-3.1777,-3.2559,-3.2754,0.0,-3.3908,-3.3936,-3.3701,-3.3158,-3.2116,-3.2004,-3.168,-3.0903,-3.2186,-3.3164,-3.3359,-3.4824,-3.6074,-3.6953,-3.6367,-3.6309,-3.6973,-3.6348,-3.5996,-3.5996,-3.5984,-3.5985,-3.5965,-3.5214,-3.5207,-3.5815,-3.5089,-3.507,-3.5584,-3.5584,-3.5565,-3.5493,-3.5493,-3.5493,-3.5493,-3.5493,-3.5484,-3.5592,-3.6573,-3.7005,-3.7219,-4.0604,-3.9802,-3.9069,-3.8936,-3.8041,-3.7308,-3.7286,-3.6547,-3.6081,-3.6345,-3.5696,-3.4958,-3.4359,-3.3449,-3.2602,-3.1852,-3.0948,-3.0398,-3.0398,-3.0479,-3.0529,-3.0598,-3.0598,-3.0579,-3.0521,-3.0518,-3.0467,-3.0398,-3.0398,-3.0398,-3.0398,-3.0398,-3.0398,-3.0398,-3.0398,-3.0398,-3.0398,-3.0398,-3.0398,-3.0398,-3.0398,-3.0398,-3.0398,-3.0398,-3.0398,-3.0398,-3.0398,-3.0448,-3.0506,-3.0583,-3.0652,-3.0714,-3.086,-3.0891,-3.0882,-3.0747,-3.066,-3.0667,-3.0856,-3.0898,-3.0898,-3.0898,-3.1504,-3.1894,-3.1074,-3.1523,-3.1875,-3.1074,-3.0898,-3.0898,-3.0898,-3.2226,-3.3574,-3.4375,0.0,0.0,-3.5799,-3.5041,-3.3885,-3.2196,-3.2004,-3.1632,-3.0703,-3.1528,-3.2441,-3.3242,-3.4238,-3.5176,-3.6055,-3.6035,-3.6035,-3.6094,-3.6035,-3.5996,-3.5996,-3.5946,-3.5913,-3.5913,-3.5717,-3.5611,-3.5622,-3.5565,-3.5526,-3.5526,-3.5526,-3.5493,-3.5493,-3.5493,-3.5493,-3.5493,-3.5493,-3.5935,-3.6483,-3.5592,-3.652,-3.8051,-4.0489,-4.0036,-3.9261,-3.8059,-3.7332,-3.671,-3.6222,-3.5394,-3.5214,-3.6158,-3.5583,-3.5073,-3.4999,-3.3757,-3.2776,-3.2468,-3.1198,-3.0398,-3.0398,-3.0398,-3.0417,-3.0467,-3.0487,-3.0467,-3.0448,-3.0448,-3.0417,-3.0398,-3.0398,-3.0398,-3.0398,-3.0398,-3.0398,-3.0398,-3.0398,-3.0398,-3.0398,-3.0398,-3.0417,-3.0467,-3.0467,-3.0487,-3.0525,-3.0525,-3.0525,-3.0525,-3.0525,-3.0544,-3.0564,-3.0641,-3.0679,-3.0721,-3.0858,-3.0895,-3.0902,-3.0845,-3.0739,-3.0704,-3.0855,-3.0833,-3.0801,-3.0879,-3.1152,-3.1309,-3.0976,-3.1562,-3.2109,-3.1777,-3.1719,-3.1855,-3.2363,-3.2969,-3.3691,-3.4551,0.0,-3.5976,-3.5996,-3.5695,-3.5022,-3.3823,-3.3662,-3.3315,-3.2373,-3.3119,-3.3786,-3.4076,-3.4939,-3.5588,-3.5918,-3.5858,-3.5806,-3.5806,-3.5806,-3.5844,-3.5946,-3.6408,-3.6349,-3.5776,-3.6233,-3.6144,-3.5603,-3.5565,-3.5526,-3.5493,-3.5493,-3.5493,-3.5493,-3.5493,-3.5493,-3.5493,-3.5493,-3.5897,-3.6463,-3.6552,-3.7337,-3.8369,-4.0489,-4.0003,-3.9066,-3.7478,-3.6625,-3.5918,-3.52,-3.4591,-3.4611,-3.5759,-3.5431,-3.4996,-3.471,-3.3622,-3.2795,-3.2545,-3.1218,-3.0513,-3.0794,-3.0552,-3.0398,-3.0398,-3.0398,-3.0398,-3.0398,-3.0398,-3.0398,-3.0398,-3.0398,-3.0398,-3.0398,-3.0398,-3.0398,-3.0398,-3.0398,-3.0398,-3.0398,-3.0417,-3.0467,-3.0487,-3.0528,-3.0559,-3.0598,-3.0598,-3.0598,-3.0598,-3.0598,-3.0604,-3.0641,-3.0679,-3.0723,-3.078,-3.0868,-3.0872,-3.0845,-3.0833,-3.0766,-3.0684,-3.081,-3.077,-3.0729,-3.0878,-3.1309,-3.1621,-3.1367,-3.2187,-3.291,-3.2637,-3.2383,-3.2363,-3.293,-3.3223,-3.3594,-3.4199,-3.5254,-3.5996,-3.5996,-3.5762,-3.5351,-3.4746,-3.4423,-3.3992,-3.333,-3.3867,-3.4352,-3.4545,-3.5128,-3.5603,-3.5815,-3.5764,-3.5706,-3.5706,-3.5969,-3.6016,-3.5815,-3.6618,-3.6714,-3.6103,-3.6858,-3.6781,-3.5949,-3.5911,-3.5738,-3.5493,-3.5493,-3.5493,-3.5493,-3.5493,-3.5493,-3.5545,-3.5795,-3.6266,-3.6903,-3.746,-3.8214,-3.898,-4.0489,-3.9357,-3.8131,-3.7343,-3.5982,-3.4833,-3.4282,-3.42,-3.4405,-3.5016,-3.5105,-3.4538,-3.3077,-3.291,-3.2564,-3.1775,-3.091,-3.0775,-3.1641,-3.0891,-3.0398,-3.0398,-3.0398,-3.0398,-3.0398,-3.0398,-3.0398,-3.0398,-3.0398,-3.0398,-3.0398,-3.0398,-3.0398,-3.0398,-3.0398,-3.0398,-3.0398,-3.0467,-3.0506,-3.051,-3.0571,-3.0606,-3.0606,-3.0606,-3.0606,-3.0586,-3.0606,-3.064,-3.0691,-3.071,-3.0795,-3.0898,-3.0898,-3.0801,-3.0694,-3.0694,-3.0645,-3.0626,-3.0681,-3.0698,-3.0743,-3.0866,-3.2168,-3.3184,-3.2363,-3.3496,-3.4434,-3.3574,-3.2754,-3.2207,-3.2226,-3.2871,-3.3418,-3.3418,-3.4863,-3.5996,-3.5996,-3.5254,-3.4687,-3.4629,-3.3848,-3.3293,-3.3223,-3.3268,-3.3658,-3.4462,-3.4564,-3.4922,-3.5661,-3.5699,-3.5699,-3.5699,-3.6551,-3.6536,-3.5622,-3.6474,-3.6897,-3.6897,-3.7642,-3.7526,-3.6699,-3.6699,-3.6257,-3.5493,-3.5493,-3.5493,-3.5493,-3.5493,-3.5493,-3.5603,-3.6392,-3.7238,-3.8007,-3.8007,-3.8903,-3.9986,-3.9429,-3.8634,-3.7804,-3.698,-3.5821,-3.4833,-3.4282,-3.42,-3.4357,-3.4774,-3.4448,-3.4244,-3.4423,-3.3023,-3.2199,-3.2506,-3.1237,-3.0513,-3.0775,-3.0533,-3.0398,-3.0398,-3.0398,-3.0398,-3.0398,-3.0398,-3.0398,-3.0398,-3.0398,-3.0398,-3.0398,-3.0398,-3.0398,-3.0398,-3.0398,-3.0417,-3.0467,-3.0487,-3.0544,-3.0652,-3.0664,-3.0723,-3.081,-3.081,-3.0439,-2.999,-3.0595,-3.0428,-3.0014,-3.0622,-3.0866,-3.0898,-3.0898,-3.0801,-3.0722,-3.0813,-3.0769,-3.0693,-3.081,-3.1299,-3.1613,-3.1042,-3.1738,-3.2324,-3.1484,-3.2578,-3.3555,-3.2734,-3.2812,-3.3223,-3.3848,-3.4141,-3.4512,-3.5117,-3.5664,-3.5996,-3.5996,-3.5781,-3.5605,-3.5586,-3.5351,-3.5168,-3.5095,-3.5104,-3.5187,-3.5328,-3.5315,-3.5378,-3.5565,-3.5565,-3.5565,-3.5565,-3.5801,-3.5801,-3.5545,-3.6993,-3.7127,-3.5916,-3.6719,-3.6661,-3.5872,-3.5872,-3.5738,-3.5493,-3.5493,-3.5493,-3.5493,-3.5493,-3.5834,-3.6372,-3.6622,-3.7459,-3.8588,-3.8831,-3.9421,-4.0082,-3.8289,-3.7751,-3.7168,-3.6367,-3.5539,-3.4833,-3.4282,-3.42,-3.4203,-3.4183,-3.4169,-3.4011,-3.3639,-3.2656,-3.2141,-3.2398,-3.1506,-3.0775,-3.0417,-3.0398,-3.0398,-3.0398,-3.0299,-3.0241,-3.0241,-3.0241,-3.0241,-3.0241,-3.0355,-3.0398,-3.0398,-3.0398,-3.0398,-3.0398,-3.0398,-3.0448,-3.0487,-3.053,-3.0586,-3.0702,-3.0757,-3.0837,-3.0898,-3.0898,-3.0566,-3.0176,-3.0703,-3.0566,-3.0195,-3.0723,-3.0898,-3.0898,-3.0898,-3.084,-3.0801,-3.0879,-3.084,-3.0807,-3.0884,-3.1273,-3.1559,-3.103,-3.2051,-3.3047,-3.2519,-3.3457,-3.4297,-3.3809,-3.3828,-3.4082,-3.4609,-3.4707,-3.4863,-3.5391,-3.5781,-3.5996,-3.5996,-3.5996,-3.5996,-3.5996,-3.5985,-3.5947,-3.5894,-3.5847,-3.5794,-3.5674,-3.5603,-3.5545,-3.5493,-3.5493,-3.5493,-3.5493,-3.5815,-3.5834,-3.5493,-3.6858,-3.7012,-3.5988,-3.6815,-3.6776,-3.5968,-3.5968,-3.5815,-3.5526,-3.5853,-3.5968,-3.6007,-3.6353,-3.6776,-3.7243,-3.744,-3.8053,-3.8842,-3.9279,-3.97,-4.012,-3.7098,-3.6785,-3.6317,-3.5578,-3.5151,-3.4741,-3.4234,-3.4152,-3.3989,-3.3501,-3.4088,-3.3752,-3.167,-3.2003,-3.221,-3.1719,-3.1609,-3.1256,-3.0436,-3.0398,-3.0398,-3.0398,-3.0136,-2.9999,-2.9999,-2.9984,-2.9984,-2.9999,-3.0254,-3.0386,-3.0398,-3.0398,-3.0398,-3.0398,-3.0321,-3.0321,-3.0383,-3.0389,-3.0459,-3.0607,-3.0732,-3.082,-3.0898,-3.0898,-3.0859,-3.0797,-3.0856,-3.0839,-3.0801,-3.0879,-3.0859,-3.0801,-3.0879,-3.0898,-3.0898,-3.0898,-3.0898,-3.0898,-3.0898,-3.0957,-3.1035,-3.1113,-3.293,-3.4668,-3.4512,-3.5215,-3.5859,-3.5781,-3.5195,-3.4707,-3.4707,-3.4766,-3.4824,-3.4824,-3.5488,-3.5996,-3.5996,-3.5996,-3.5996,-3.5992,-3.5937,-3.5892,-3.5872,-3.5766,-3.565,-3.5611,-3.5545,-3.5493,-3.5493,-3.5493,-3.5493,-3.5493,-3.6219,-3.6238,-3.5526,-3.6238,-3.6603,-3.6603,-3.7411,-3.7353,-3.6603,-3.6603,-3.6199,-3.5532,-3.6276,-3.6603,-3.6661,-3.7526,-3.7873,-3.7954,-3.8588,-3.8823,-3.8861,-3.9432,-3.9819,-4.0061,-3.6002,-3.5614,-3.5312,-3.5128,-3.454,-3.4017,-3.3913,-3.3876,-3.3828,-3.3721,-3.3515,-3.319,-3.2697,-3.1992,-3.152,-3.1389,-3.0951,-3.059,-3.0398,-3.0398,-3.0398,-3.0398,-3.0136,-2.9999,-2.9999,-2.9845,-2.9845,-2.9999,-3.0061,-3.0196,-3.0398,-3.0398,-3.0398,-3.0359,-2.9698,-2.9456,-2.9514,-2.8892,-2.9104,-2.9843,-2.9861,-3.0293,-3.0898,-3.0898,-3.0478,-2.9959,-3.0549,-3.0375,-2.998,-3.0664,-3.0449,-3.0,-3.0684,-3.0898,-3.0898,-3.0898,-3.0898,-3.0898,-3.0898,-3.1406,-3.207,-3.2695,-3.3789,-3.4355,-3.3047,-3.3906,-3.4785,-3.4101,-3.4355,-3.4707,-3.4707,-3.5254,-3.5723,-3.5723,-3.5879,-3.5996,-3.5996,-3.5996,-3.5974,-3.5921,-3.5907,-3.5853,-3.5757,-3.5669,-3.5586,-3.5526,-3.5526,-3.5493,-3.5493,-3.5493,-3.5493,-3.5493,-3.568,-3.568,-3.5493,-3.568,-3.5757,-3.5776,-3.5949,-3.5949,-3.5757,-3.5757,-3.5661,-3.5512,-3.568,-3.5757,-3.5834,-3.6642,-3.6988,-3.7127,-3.8616,-3.9042,-3.8899,-3.9698,-3.988,-3.9709,-3.4803,-3.4252,-3.3853,-3.3853,-3.3201,-3.2651,-3.2651,-3.2981,-3.3091,-3.2706,-3.3073,-3.3006,-3.198,-3.1751,-3.1447,-3.091,-3.058,-3.0398,-3.0398,-3.0398,-3.0398,-3.0398,-3.0136,-2.9999,-2.9999,-2.9796,-2.9796,-2.9999,-3.0136,-3.0267,-3.0398,-3.0398,-3.0398,-3.0359,-2.9486,-2.9171,-2.9201,-2.8434,-2.8665,-2.9551,-2.959,-3.0117,-3.0898,-3.0898,-3.0621,-3.0277,-3.0664,-3.0549,-3.0293,-3.0742,-3.0605,-3.0293,-3.0762,-3.0898,-3.0898,-3.0898,-3.1191,-3.1523,-3.1523,-3.1855,-3.2383,-3.3203,-3.373,-3.4062,-3.4023,-3.4687,-3.5195,-3.4726,-3.5,-3.5312,-3.5312,-3.5666,-3.595,-3.595,-3.5895,-3.5868,-3.5868,-3.5868,-3.5846,-3.5815,-3.5784,-3.5718,-3.5622,-3.5584,-3.5545,-3.5493,-3.5493,-3.5493,-3.5493,-3.5493,-3.5493,-3.5493,-3.5493,-3.568,-3.6084,-3.6084,-3.6084,-3.6084,-3.568,-3.5493,-3.5493,-3.5493,-3.5718,-3.6084,-3.6084,-3.6546,-3.7353,-3.7777,-3.795,-3.8012,-3.8783,-3.8951,-3.8842,-3.9123,-3.9394,-3.9599,-3.3456,-3.2852,-3.2449,-3.2596,-3.1935,-3.1439,-3.1568,-3.2045,-3.2155,-3.1476,-3.2559,-3.2661,-3.0739,-3.1179,-3.1293,-3.0401,-3.0323,-3.0355,-3.0398,-3.0398,-3.0398,-3.0398,-3.0196,-3.0075,-3.0075,-2.9893,-2.9896,-2.9999,-3.0222,-3.0355,-3.0398,-3.0398,-3.0398,-3.0359,-2.9352,-2.8931,-2.8935,-2.8024,-2.8266,-2.9274,-2.9313,-2.9957,-3.0856,-3.0856,-3.0852,-3.0849,-3.0849,-3.0766,-3.0693,-3.0859,-3.0801,-3.0703,-3.0859,-3.0898,-3.0898,-3.0898,-3.1406,-3.1973,-3.1973,-3.1973,-3.2207,-3.3164,-3.3398,-3.3867,-3.5605,-3.5996,-3.5996,-3.5996,-3.5996,-3.5996,-3.5996,-3.5947,-3.5892,-3.5892,-3.5794,-3.569,-3.569,-3.569,-3.569,-3.5671,-3.5612,-3.5622,-3.5699,-3.5718,-3.5776,-3.593,-3.5795,-3.5718,-3.5718,-3.5718,-3.5641,-3.5493,-3.5795,-3.618,-3.6699,-3.6853,-3.693,-3.6911,-3.6257,-3.5795,-3.5493,-3.5641,-3.6084,-3.6699,-3.6699,-3.7603,-3.9084,-3.9238,-3.92,-3.9069,-3.9084,-3.9012,-3.8861,-3.8677,-3.9018,-3.958,-3.1887,-3.1623,-3.177,-3.2485,-3.1935,-3.1623,-3.2339,-3.1935,-3.1513,-3.1403,-3.1586,-3.1354,-3.0349,-2.9956,-2.9851,-3.0052,-3.0042,-3.015,-3.0379,-3.0398,-3.0398,-3.0398,-3.0367,-3.0355,-3.0355,-3.0311,-3.0215,-2.9999,-3.0047,-3.0163,-3.0398,-3.0398,-3.0398,-3.0321,-2.8756,-2.8093,-2.8056,-2.6449,-2.6742,-2.8281,-2.8301,-2.924,-3.0633,-3.0633,-3.0683,-3.0712,-3.0656,-3.0243,-2.9805,-3.0626,-3.0391,-2.9902,-3.0664,-3.0898,-3.0898,-3.0898,-3.0976,-3.1074,-3.1074,-3.1074,-3.1445,-3.3008,-3.3398,-3.3867,-3.5605,-3.5996,-3.5996,-3.5996,-3.5996,-3.5996,-3.5996,-3.5947,-3.5892,-3.5892,-3.5797,-3.5689,-3.5689,-3.5689,-3.5669,-3.5612,-3.5553,-3.5795,-3.6469,-3.6546,-3.6853,-3.7603,-3.6969,-3.6546,-3.6546,-3.6546,-3.6219,-3.5512,-3.6911,-3.7353,-3.6719,-3.745,-3.7815,-3.7815,-3.7719,-3.6911,-3.5512,-3.6219,-3.6603,-3.6699,-3.6699,-3.7257,-3.8238,-3.8988,-3.8854,-3.8315,-3.9707,-3.9842,-3.9292,-3.97,-3.9745,-3.9486,-3.1458,-3.1035,-3.0834,-3.1201,-3.0595,-3.0191,-3.0516,-3.0668,-3.0723,-3.0723,-3.1109,-3.1091,-3.0283,-2.9818,-2.9731,-3.0182,-3.0222,-3.0267,-3.0398,-3.0398,-3.0398,-3.0398,-3.0398,-3.0398,-3.0398,-3.0398,-3.0105,-2.9494,-2.9494,-2.955,-2.966,-2.9217,-2.9236,-2.9602,-2.7928,-2.7178,-2.715,-2.5928,-2.6419,-2.8053,-2.8076,-2.909,-3.0588,-3.0626,-3.0674,-3.0706,-3.0743,-3.055,-3.0355,-3.0757,-3.0644,-3.0391,-3.0781,-3.0898,-3.0898,-3.0898,-3.123,-3.1621,-3.1621,-3.1621,-3.2031,-3.3711,-3.3769,-3.3867,-3.5605,-3.5996,-3.5996,-3.5996,-3.5996,-3.5989,-3.5944,-3.5862,-3.5783,-3.5726,-3.5661,-3.5603,-3.5603,-3.5603,-3.5584,-3.5565,-3.5526,-3.5834,-3.6622,-3.6699,-3.7065,-3.793,-3.7642,-3.743,-3.743,-3.743,-3.7257,-3.6911,-3.7603,-3.8046,-3.8142,-3.8527,-3.8719,-3.8719,-3.9181,-3.8527,-3.6892,-3.6757,-3.7238,-3.8104,-3.7123,-3.7738,-3.9392,-3.9335,-3.9065,-3.8796,-3.9527,-3.9604,-3.9392,-4.0085,-4.0139,-3.9823]}]]